GFSWCAN_sfc_wetblb_078.txt.gz
Wetbulb
45.05 45.03 45.76 46.33 46.95 48.54 48.66 49.09 49.22 49.39 49.03 50.06 51.22 51.02 50.63 48.18 46.37 43.01 38.96 39.76 40.81 35.36 33.62 34.36 34.46 35.42 38.46 39.18 38.85 39.03 39.26 40.39 39.93 35.52 34.90 33.50 33.05 32.79 31.95 32.06 32.07 32.00 31.83 31.71 30.89 29.13 26.23 36.48 36.41 33.49 36.34 35.88 37.91 37.58
44.16 45.07 45.70 46.38 47.15 48.40 48.36 48.83 49.13 49.05 48.81 50.84 51.03 50.58 49.72 47.91 46.20 43.69 39.78 40.02 40.18 38.02 34.69 36.51 36.28 37.19 35.66 36.04 39.02 37.95 38.12 37.89 39.72 37.73 36.67 35.62 32.99 33.09 31.99 30.65 33.56 30.88 34.38 33.63 33.57 34.04 35.50 36.91 37.34 37.62 37.65 37.93 37.07 37.95
43.57 44.85 45.64 46.38 47.56 47.93 48.14 48.85 48.58 48.44 48.74 51.08 51.26 50.97 50.85 48.60 46.59 44.06 40.32 39.90 40.89 37.05 36.24 36.82 35.07 37.93 38.85 37.67 38.12 39.54 39.24 39.43 38.50 38.76 39.06 37.25 33.71 35.50 32.56 32.93 32.88 34.28 34.74 34.16 33.50 35.17 35.78 36.69 36.90 37.26 37.51 37.50 37.60 37.68
43.40 44.69 45.42 46.25 47.63 47.70 48.09 48.58 48.03 48.00 48.62 51.53 51.84 51.19 50.55 48.64 46.99 44.48 41.14 39.90 41.36 39.82 36.63 34.12 38.69 36.90 39.80 38.93 37.86 38.52 39.05 38.94 39.16 39.77 38.85 37.85 35.61 34.86 34.41 33.23 33.46 35.91 34.75 34.46 34.50 36.07 34.78 36.47 36.85 37.64 36.83 36.35 35.94 36.12
43.56 44.41 45.36 46.56 47.31 47.52 48.14 47.87 47.71 47.45 47.89 50.60 51.22 51.49 49.68 47.53 45.09 42.45 41.05 39.74 39.90 40.66 34.76 34.05 35.91 37.80 39.04 38.66 38.24 38.98 39.18 38.81 39.25 39.12 38.30 36.25 34.88 33.89 32.27 32.59 32.77 35.28 36.23 34.62 35.34 36.61 36.58 35.78 35.94 37.33 35.99 35.37 35.55 34.57
43.63 44.37 45.05 46.13 47.20 47.39 48.26 47.88 47.38 47.47 47.14 48.41 50.07 48.88 47.03 45.23 43.50 42.39 39.86 41.09 40.81 40.84 38.51 33.85 36.24 35.55 36.76 37.71 36.90 36.18 36.16 35.87 37.03 37.46 34.37 33.61 32.69 33.75 32.35 31.75 36.77 36.36 35.74 36.02 36.54 34.66 34.79 34.78 35.03 35.67 35.41 34.72 34.31 34.13
43.79 44.24 44.90 46.25 47.09 47.48 48.11 47.78 48.95 49.76 48.69 49.32 50.25 48.82 47.25 45.40 43.06 39.23 37.69 40.11 41.15 40.81 37.20 32.76 32.76 35.11 34.96 36.09 36.15 36.65 35.85 35.12 36.63 34.11 33.23 33.37 33.23 33.95 32.13 30.75 34.55 33.13 34.98 34.08 34.68 35.30 34.05 34.23 34.46 34.98 34.68 34.06 34.15 33.49
43.84 44.36 44.97 46.36 47.03 47.72 48.60 49.68 50.72 50.11 49.21 50.03 48.89 48.11 46.90 44.89 42.73 39.37 40.85 42.35 40.02 37.10 36.28 30.41 30.70 32.15 35.11 33.86 34.21 34.81 34.91 35.35 33.56 32.88 32.24 31.78 31.58 31.52 29.05 34.26 32.45 32.92 34.08 34.00 34.06 33.34 32.89 33.63 33.96 33.66 33.70 32.65 31.47 30.55
43.88 44.54 45.40 46.44 46.84 47.00 49.18 49.57 49.59 49.43 48.81 48.31 47.48 45.09 42.87 39.80 37.92 38.38 41.80 41.11 38.73 37.66 34.09 31.47 31.81 30.52 34.43 32.73 33.99 34.80 34.22 32.71 32.86 31.63 31.40 31.41 29.90 27.90 32.92 32.53 31.59 33.13 34.18 34.32 33.46 32.43 32.37 32.47 32.14 32.13 31.01 30.02 28.91 29.28
43.96 44.47 45.36 46.44 46.57 46.94 49.08 49.52 48.90 48.17 47.47 44.53 42.16 37.86 35.27 36.51 41.93 40.11 37.57 35.72 35.26 33.70 32.83 32.13 30.48 30.25 32.84 31.74 31.15 32.16 31.29 30.30 29.36 30.17 31.81 29.01 29.70 33.58 33.05 33.13 32.97 34.22 34.45 34.10 30.44 28.91 29.72 29.00 30.10 29.81 29.35 29.10 28.58 28.76
44.16 44.64 45.36 46.48 46.71 47.02 49.05 48.61 47.98 45.81 44.26 40.14 35.96 34.57 37.09 39.68 37.02 32.92 31.84 31.09 30.26 29.32 30.28 29.21 30.49 29.32 32.94 30.84 30.70 32.04 29.24 28.14 26.84 28.10 28.62 28.32 27.83 31.27 31.45 32.28 33.18 34.84 34.57 33.47 32.51 31.98 32.29 31.34 29.94 29.18 29.27 29.07 29.04 29.06
44.32 44.80 45.49 46.63 46.86 47.51 48.92 48.07 46.68 42.67 40.47 39.70 37.99 37.41 36.35 32.70 29.88 27.96 25.49 25.41 25.65 27.84 27.21 28.73 29.36 31.40 31.05 32.70 31.33 30.01 27.91 26.70 24.74 28.90 26.62 24.57 30.84 31.20 31.20 31.81 32.09 34.18 33.61 32.18 31.48 30.98 30.69 30.51 29.97 29.13 28.89 28.79 28.63 28.76
44.28 44.87 45.54 46.78 46.99 47.57 48.83 48.02 45.79 43.72 41.44 38.68 34.10 31.42 29.40 28.20 22.43 22.12 20.29 23.24 22.59 27.16 28.32 29.13 28.90 29.95 29.77 31.54 28.72 27.66 24.83 25.10 28.48 24.38 24.15 28.03 29.69 30.18 30.98 31.25 30.56 31.68 32.18 31.23 30.61 30.97 30.14 29.39 29.15 28.53 28.28 28.48 27.69 27.14
44.42 45.19 45.82 47.02 47.53 48.04 48.44 47.75 44.62 42.25 39.01 33.81 28.92 21.89 25.58 22.63 23.61 26.15 27.23 28.38 28.07 29.50 29.17 29.99 28.21 29.30 29.71 28.65 27.46 24.24 26.17 26.78 19.83 18.11 23.65 30.23 29.34 30.50 30.77 31.03 30.19 29.59 29.45 28.52 29.33 28.60 27.94 27.14 26.68 27.01 26.96 27.27 26.72 26.56
44.69 45.37 46.17 46.91 47.41 47.76 47.98 46.40 42.49 38.25 35.42 31.99 28.07 22.89 23.97 27.06 25.56 24.40 24.49 27.36 28.02 31.17 29.65 28.14 27.98 28.51 27.33 25.36 26.90 24.87 20.62 18.84 21.31 24.93 29.62 29.36 28.49 29.51 29.89 29.52 30.12 30.01 29.37 28.77 28.21 26.82 25.45 24.43 24.68 25.52 26.64 26.12 26.01 25.69
44.68 44.95 44.49 46.84 47.39 47.73 47.32 43.40 39.55 38.90 32.65 27.96 23.19 22.64 23.34 23.67 23.87 25.03 24.95 26.20 28.83 30.23 28.91 29.44 25.32 23.79 24.75 25.37 22.12 20.96 20.70 21.00 27.74 26.69 29.28 28.23 28.16 28.96 29.55 29.23 29.28 29.31 28.83 28.64 28.56 27.57 26.99 26.18 25.66 25.10 24.47 25.10 25.07 24.77
44.14 42.00 45.91 46.79 47.14 47.09 44.38 38.13 36.97 33.75 32.72 29.26 25.30 25.31 26.54 25.28 25.21 25.84 26.11 27.25 29.95 29.63 28.04 25.78 20.52 23.27 22.93 20.93 20.23 23.27 23.26 29.39 28.79 26.77 26.74 28.62 28.79 28.14 28.83 28.23 27.58 27.28 28.00 28.14 26.65 26.34 25.31 24.31 21.89 22.30 23.27 24.73 24.13 24.21
40.57 43.54 46.45 46.91 46.49 42.06 36.67 35.79 33.64 31.85 29.06 26.80 25.47 26.65 26.99 27.60 26.45 26.59 27.24 28.17 29.40 27.40 25.27 24.49 24.14 21.30 21.88 21.02 22.53 26.31 26.39 24.19 25.01 27.34 27.43 27.59 27.78 27.76 27.90 27.87 27.48 27.92 27.01 24.14 22.80 21.62 21.40 22.20 23.43 24.18 23.09 23.82 23.29 24.09
41.65 44.15 46.42 46.70 44.20 37.14 34.14 32.79 32.53 27.96 28.36 23.97 25.09 26.24 27.44 27.40 27.74 27.65 27.98 28.80 27.94 27.17 24.67 23.15 21.02 22.34 23.71 24.85 27.82 25.21 25.48 27.25 27.39 26.28 26.19 26.51 26.88 26.76 26.27 25.46 24.53 24.14 23.87 23.60 24.03 24.72 24.16 23.30 23.56 23.33 23.17 22.95 22.07 22.91
44.52 45.78 46.35 46.05 43.35 34.73 32.03 31.46 32.51 28.51 22.65 25.39 25.31 24.85 26.37 26.16 25.82 26.49 27.26 27.21 26.25 25.08 22.21 20.79 23.56 26.38 26.72 28.29 27.46 27.88 27.70 28.09 27.31 25.44 24.56 24.96 24.95 22.96 24.19 24.54 25.76 24.48 23.63 21.90 22.56 24.69 24.35 23.47 23.14 22.39 22.12 22.58 20.67 19.62
43.03 43.49 45.23 43.92 35.64 34.78 34.08 27.69 25.03 24.35 23.15 24.33 23.82 24.95 23.34 22.80 23.99 24.03 24.90 25.04 23.25 21.65 23.65 25.51 26.40 26.54 25.73 25.62 27.00 28.45 27.92 29.30 28.89 28.97 27.71 24.51 23.36 23.61 22.07 22.75 22.70 23.29 24.04 23.46 22.68 22.38 22.13 21.34 20.89 21.08 20.41 19.83 19.72 19.69
41.24 44.22 37.04 35.47 30.30 29.27 30.29 29.31 25.50 24.60 22.84 22.07 22.85 24.31 22.53 22.24 22.56 22.13 23.03 22.76 22.36 27.73 25.52 25.92 25.04 25.50 25.31 25.85 26.57 27.97 27.98 26.11 25.31 28.13 28.79 26.51 22.06 21.90 22.27 23.64 22.52 22.97 22.02 21.70 21.25 20.88 20.03 19.37 20.55 20.47 18.74 18.33 18.69 17.76
41.91 37.55 32.06 31.21 26.98 26.36 25.42 27.95 24.78 21.76 19.82 21.07 19.95 18.96 19.36 21.53 21.80 19.13 23.09 24.30 26.33 25.42 24.14 24.53 23.40 22.42 23.79 21.63 23.49 23.53 24.00 25.76 24.93 24.96 25.69 24.41 24.04 23.56 23.48 22.48 22.23 21.03 20.51 19.92 19.78 19.33 17.97 19.17 18.12 18.03 16.92 16.27 15.94 15.99
38.48 32.58 30.54 26.92 26.71 22.59 24.79 22.39 25.42 23.57 20.49 19.16 19.12 17.59 16.51 19.70 17.70 19.85 20.94 22.58 24.08 22.08 22.72 21.91 23.72 22.23 22.82 23.72 24.11 24.30 23.48 24.34 23.36 22.19 23.28 23.60 22.42 21.19 22.11 21.56 20.30 20.08 20.66 19.41 18.09 17.39 16.11 15.44 16.56 15.28 14.56 13.73 14.02 14.62
29.55 26.57 27.09 22.30 25.04 21.80 20.55 20.47 21.00 21.05 17.13 18.96 17.54 14.66 15.59 17.53 20.69 19.26 18.59 24.61 22.27 22.47 23.84 22.81 25.20 27.05 26.27 25.22 23.53 23.42 20.10 24.78 24.51 22.90 20.98 22.32 20.63 18.66 18.12 18.45 18.71 18.33 17.07 17.40 16.47 15.77 14.93 14.39 14.43 14.06 13.55 13.52 14.63 14.98
26.65 26.32 23.62 21.90 20.92 21.87 20.12 18.73 18.47 16.71 16.31 14.07 16.76 16.00 17.04 19.81 19.31 20.86 20.64 25.98 22.63 24.69 23.74 24.12 25.23 23.40 23.74 25.15 25.53 23.30 23.91 21.64 24.31 24.39 21.46 21.03 21.87 21.46 20.03 18.72 17.85 17.34 15.86 16.59 15.38 14.42 13.69 13.89 14.00 12.73 13.48 12.94 14.55 11.36
20.79 20.22 24.57 27.22 24.49 22.75 20.46 20.07 20.95 18.46 15.21 12.97 15.10 14.46 18.32 19.43 20.25 23.13 22.28 23.16 24.46 27.02 29.00 29.16 29.60 29.41 29.34 23.88 22.41 22.22 21.75 21.95 23.10 23.75 21.22 18.72 17.73 18.87 20.31 19.08 16.47 18.40 15.69 14.81 14.36 13.91 14.06 14.27 14.20 13.83 13.07 12.59 11.24 9.62
25.18 22.86 19.72 19.71 16.77 17.89 16.54 17.61 17.53 18.25 20.35 20.62 21.15 18.40 21.58 23.25 24.83 24.44 22.45 19.64 20.08 26.10 28.77 27.04 27.90 28.01 27.20 24.68 20.48 17.65 15.19 15.10 14.85 14.79 14.77 13.31 10.92 11.06 11.58 13.98 16.64 20.31 15.13 14.40 14.85 15.54 15.90 15.47 14.67 13.88 12.33 10.75 9.85 9.92
20.72 20.20 22.38 12.96 9.74 15.83 18.25 20.18 21.92 23.32 24.16 23.17 25.56 21.20 22.89 23.86 21.12 20.21 18.99 18.57 20.81 23.84 23.77 21.83 18.47 19.65 17.69 16.65 16.82 17.79 18.00 19.70 19.98 17.99 18.50 17.13 14.90 15.34 9.53 11.02 11.38 11.13 11.54 13.65 18.14 18.39 15.73 16.30 14.63 13.69 10.88 9.86 9.56 8.07
18.34 16.02 13.01 12.11 14.51 17.29 17.00 15.40 14.55 14.60 19.63 21.58 22.98 20.51 20.17 19.68 18.44 16.95 17.04 18.23 21.09 24.25 26.22 25.49 20.63 22.52 19.80 19.85 15.70 14.90 14.61 17.37 18.72 22.32 19.13 17.17 18.15 14.10 10.02 9.72 10.03 9.54 9.09 11.55 12.21 11.07 16.57 11.26 10.67 7.48 7.53 7.60 8.41 9.64
16.93 14.62 10.81 10.73 10.19 8.85 10.67 16.36 17.37 21.28 17.82 17.10 19.71 22.15 21.29 19.53 18.13 16.63 18.14 19.69 20.23 21.67 21.33 21.44 23.00 23.37 23.09 20.17 20.48 18.41 17.09 15.66 10.70 10.43 11.94 14.59 12.80 11.93 11.16 10.93 10.90 9.21 9.23 10.06 9.76 9.61 8.81 7.96 6.86 5.94 6.45 4.97 4.09 7.32
17.24 13.87 11.41 6.98 8.84 16.13 15.75 16.88 15.59 12.80 13.87 18.40 17.52 17.58 17.11 20.32 21.08 19.15 16.39 17.77 20.14 21.35 24.24 24.00 22.91 22.65 24.29 24.85 24.06 23.66 27.28 17.48 12.61 13.80 13.32 12.21 12.75 12.44 11.41 9.53 7.45 8.82 9.13 8.95 8.10 7.26 5.44 5.46 6.44 6.12 6.85 4.58 3.40 3.31
11.05 7.32 7.42 11.52 13.07 12.29 14.93 17.54 16.44 11.60 12.88 15.87 15.63 15.90 18.35 20.96 22.78 20.25 14.40 17.20 21.93 23.90 24.12 24.01 22.76 18.97 20.21 22.22 21.07 21.48 21.10 16.77 15.77 19.75 20.80 19.99 18.92 14.78 10.19 9.26 9.10 9.55 8.58 8.78 7.44 6.24 4.12 2.65 4.39 3.29 2.75 1.24 1.87 2.53

GFSWCAN_sfc_wetblb_081.txt.gz
Wetbulb
47.33 45.91 45.47 46.42 47.10 47.98 48.76 49.05 49.50 49.30 49.89 51.34 50.89 50.87 49.94 48.67 46.29 46.58 42.36 44.28 45.15 40.49 36.86 37.98 37.84 39.75 41.74 42.99 40.51 42.16 41.37 42.36 41.93 37.25 36.62 35.59 35.12 35.55 34.12 34.90 34.01 33.68 33.47 33.33 33.48 30.72 27.89 39.52 38.04 34.58 38.07 39.16 40.45 40.17
46.74 45.21 45.20 46.04 46.86 48.14 48.37 49.01 49.23 48.82 49.71 51.45 50.23 50.47 49.82 48.69 46.32 45.68 43.38 44.00 45.33 42.34 37.97 39.93 39.41 39.69 38.01 38.35 40.89 42.55 41.24 41.32 42.65 39.75 39.43 38.70 35.31 36.43 34.85 32.69 36.73 32.91 36.44 34.51 35.05 35.37 38.80 41.06 40.58 40.62 40.87 40.25 39.89 40.39
45.94 44.54 45.17 45.65 46.77 48.08 48.19 48.96 48.66 48.54 49.65 51.45 51.09 50.49 49.91 49.21 47.10 47.10 44.34 44.10 45.97 41.60 39.31 40.23 38.27 40.48 41.82 40.68 41.27 40.42 43.51 42.76 42.33 42.23 42.31 40.04 35.35 38.49 34.01 34.93 35.54 37.50 38.26 35.81 35.76 38.97 39.10 39.95 40.81 40.52 40.29 40.10 40.16 40.31
45.40 44.13 44.96 45.52 46.79 47.58 47.77 48.70 48.19 48.27 49.58 51.69 51.36 51.00 49.87 48.81 47.31 47.54 43.81 43.49 45.46 44.48 40.36 37.23 41.53 39.53 41.96 42.32 40.34 41.01 40.74 42.70 43.08 43.46 41.90 40.15 36.99 38.69 37.11 36.05 35.74 38.25 37.54 36.93 36.78 39.75 39.05 39.59 40.39 40.76 39.64 39.09 38.49 38.59
45.22 44.13 44.93 45.25 46.37 47.46 47.51 48.49 48.10 47.80 48.21 51.81 51.81 51.26 49.18 46.81 46.11 46.40 44.86 43.65 43.47 43.15 38.95 37.69 38.91 39.89 41.49 41.98 41.20 41.96 42.15 42.07 42.95 41.97 40.95 38.48 38.87 37.06 37.17 35.60 35.33 38.50 38.10 35.62 36.09 39.70 39.05 38.01 38.66 39.80 38.86 37.91 38.31 37.43
45.02 44.27 44.85 45.08 45.99 47.31 47.59 48.13 48.16 47.92 47.89 49.28 49.66 48.82 46.75 45.37 44.75 46.53 42.81 44.46 44.00 43.91 42.32 36.98 39.61 38.49 39.68 40.49 40.09 39.73 39.74 40.50 41.39 40.63 39.77 38.19 36.10 36.16 34.69 34.38 40.11 40.97 40.36 40.20 39.28 38.11 38.09 37.61 37.71 38.47 38.30 37.47 36.93 36.21
44.79 44.41 44.79 45.00 46.11 47.38 47.78 48.31 48.45 48.65 48.51 49.51 48.98 47.35 46.89 45.87 46.81 41.92 39.89 42.47 43.09 43.50 41.33 36.11 36.87 37.76 37.85 38.56 40.04 40.45 40.24 39.37 39.87 38.74 37.49 37.16 36.09 36.22 35.39 32.84 38.14 37.87 39.62 37.95 38.28 37.91 36.04 36.59 36.84 37.27 37.21 36.41 35.85 35.24
44.79 44.47 44.91 45.18 46.28 47.32 48.04 49.65 50.12 50.28 49.58 50.30 49.26 47.83 46.11 45.05 44.15 42.18 42.21 42.18 42.20 41.23 40.66 35.30 35.19 35.19 37.57 37.53 37.73 38.76 38.72 39.03 37.61 37.30 35.74 34.71 34.60 34.51 31.09 37.54 36.21 35.83 36.83 36.85 37.19 36.68 36.41 36.96 36.65 36.16 36.04 35.19 33.59 32.25
44.78 44.47 45.04 45.52 46.50 47.16 48.40 49.76 50.17 49.49 50.03 49.27 48.11 46.29 45.05 43.30 40.94 41.03 42.91 44.06 42.41 40.02 38.52 35.84 34.62 33.19 37.29 36.37 37.71 37.69 37.91 35.37 36.48 34.72 34.28 33.61 33.57 30.20 36.03 37.41 35.87 35.88 35.61 36.57 35.82 35.56 35.27 34.77 34.66 34.66 33.80 32.12 30.66 31.20
44.68 44.51 45.25 45.72 46.45 46.73 49.13 49.62 49.40 48.88 48.28 46.75 44.47 41.58 38.98 39.69 42.45 42.25 41.12 38.23 38.99 37.92 36.51 35.02 36.03 33.42 36.42 35.72 35.17 35.96 35.58 34.65 32.22 33.50 34.37 30.64 32.02 37.44 37.11 36.14 36.45 36.99 37.30 36.90 32.91 31.29 31.83 31.55 32.05 32.25 31.25 31.35 30.91 30.66
44.54 44.58 45.29 45.87 46.70 47.00 49.21 48.98 48.17 46.45 45.32 43.11 39.86 38.09 40.93 41.13 40.44 36.75 35.26 34.42 34.64 32.84 33.86 33.58 34.68 31.92 35.20 34.08 34.93 35.47 34.04 32.73 29.05 31.70 30.29 31.50 30.41 34.79 36.06 35.98 36.81 37.29 37.76 37.26 36.04 35.02 34.91 34.18 32.41 31.25 31.01 31.08 30.90 30.73
45.01 44.85 45.67 46.03 46.84 47.25 48.97 48.75 46.88 44.13 42.79 41.83 41.15 41.31 40.83 37.35 34.69 31.80 32.42 30.41 28.31 31.14 29.96 31.10 31.59 34.33 32.98 35.32 34.12 32.14 31.32 29.89 27.30 32.28 28.95 27.17 34.93 34.63 34.15 34.40 34.90 36.92 36.89 34.81 34.17 32.83 32.61 32.09 31.92 31.05 30.67 30.31 30.26 30.27
45.29 45.39 45.74 46.12 46.86 47.38 48.84 47.99 46.15 44.72 42.63 41.52 38.12 35.54 35.36 31.85 27.31 26.28 25.57 28.73 27.76 30.70 31.18 31.53 30.60 32.58 31.91 33.91 31.71 30.46 27.39 27.38 30.78 26.85 26.92 31.80 33.18 33.48 34.35 34.25 33.51 35.79 35.29 33.96 32.49 32.84 32.13 30.98 30.86 30.12 29.66 30.20 29.52 29.12
45.32 45.46 45.93 46.54 47.22 47.78 48.46 47.31 45.08 42.68 41.95 37.47 33.67 28.01 30.72 27.74 28.36 31.97 31.14 32.54 32.14 33.00 32.09 34.07 30.83 32.12 32.30 30.67 30.59 26.74 29.14 28.21 23.82 21.47 25.50 34.28 32.60 33.26 34.07 34.10 33.15 32.53 32.18 31.42 31.89 31.09 30.20 29.44 28.84 29.03 28.63 28.89 28.32 27.68
45.34 45.42 45.91 46.34 47.24 47.56 48.27 46.49 44.44 41.40 39.15 34.54 31.83 27.72 28.90 32.66 31.02 30.62 29.31 30.22 31.40 34.08 33.08 31.42 31.23 32.24 30.14 28.29 29.20 27.16 23.06 21.44 24.33 27.83 35.11 34.80 32.77 32.88 32.64 32.38 33.09 32.26 31.78 31.19 30.35 28.10 26.79 26.62 27.10 27.57 28.60 27.93 27.59 27.11
45.39 45.04 44.60 46.26 47.31 47.68 47.53 43.28 40.67 40.43 36.75 32.93 30.39 28.13 28.05 28.29 29.98 29.19 29.50 30.57 32.49 33.52 32.94 33.13 29.33 27.53 28.29 29.16 24.68 23.50 23.73 23.96 31.08 32.74 34.40 31.50 31.41 32.64 32.45 32.25 32.25 32.21 31.90 31.37 30.80 30.35 29.18 28.14 27.55 27.05 26.58 27.09 26.37 25.80
44.85 41.76 45.34 46.53 47.15 46.97 44.17 39.28 37.67 34.14 33.54 30.57 30.22 31.22 31.89 30.21 32.90 31.51 31.34 31.54 34.09 32.28 31.15 31.10 25.33 27.10 26.78 25.37 23.99 28.27 26.43 34.00 35.09 31.08 31.44 32.43 31.50 31.83 32.13 31.19 29.66 29.33 29.65 30.30 29.69 28.76 28.07 26.67 24.98 24.89 24.71 26.02 25.39 25.29
40.75 43.42 45.63 46.88 46.65 43.21 37.80 36.82 34.55 32.58 31.31 32.19 30.45 32.00 29.69 31.85 30.85 30.40 30.63 31.51 32.47 31.66 29.43 29.75 28.09 24.80 25.51 25.08 27.60 31.47 31.08 29.77 29.70 30.69 31.01 30.34 31.72 31.79 30.91 30.00 28.93 28.96 29.32 27.12 26.42 25.10 24.49 23.93 25.07 25.84 24.85 25.72 24.25 24.98
41.58 44.11 45.96 46.62 44.01 38.35 35.55 33.67 33.60 30.57 31.89 30.92 30.58 29.88 31.15 31.07 31.55 31.66 32.10 32.05 32.18 31.15 29.81 27.25 25.95 27.16 28.37 30.47 32.20 34.43 31.69 29.92 28.72 29.46 29.52 29.80 30.59 29.93 29.09 28.39 27.68 26.86 26.14 25.40 25.50 27.12 26.52 25.23 24.98 24.78 24.63 24.11 23.18 23.72
44.38 45.89 46.39 45.51 43.83 35.64 32.45 32.78 34.28 31.64 28.60 30.20 29.45 29.17 30.39 30.23 30.20 30.11 30.41 30.74 29.81 30.10 27.21 24.51 26.38 30.19 29.95 32.89 32.71 33.04 31.68 31.44 29.28 27.55 26.82 27.74 28.68 27.85 27.46 26.96 27.06 27.08 25.96 24.74 24.94 26.10 25.65 24.94 24.63 24.01 23.35 22.94 21.60 20.47
40.84 42.08 45.66 43.69 36.76 37.35 36.17 32.22 30.30 31.96 31.36 28.54 29.26 28.62 28.18 26.65 26.95 27.56 28.19 30.45 29.20 28.74 27.17 30.02 30.76 32.26 29.18 29.23 29.27 31.08 30.70 31.34 31.37 31.45 29.85 27.31 26.48 27.11 25.85 26.90 26.42 26.71 26.01 25.61 24.89 24.42 23.99 23.49 22.83 22.53 21.78 21.00 20.84 20.65
38.95 43.80 38.28 37.38 33.16 32.20 32.47 33.59 32.00 29.72 27.99 27.49 26.78 29.04 26.43 25.07 25.69 26.55 29.66 26.14 27.68 30.97 31.38 31.94 29.90 28.79 28.35 27.76 28.86 29.96 31.35 30.40 29.32 31.09 31.26 29.38 23.97 24.30 24.62 25.60 25.10 26.10 26.06 25.92 23.96 23.49 22.84 21.66 21.75 21.81 20.24 19.61 20.05 19.11
41.37 38.41 32.45 32.03 30.13 28.34 29.28 31.27 27.71 26.15 23.39 23.34 25.13 25.41 25.00 25.64 27.89 26.86 24.93 28.44 30.54 32.74 32.49 29.69 27.94 26.76 28.66 26.26 26.01 27.04 27.81 28.94 28.32 28.10 28.33 27.83 27.36 26.78 26.72 25.58 27.01 25.88 23.76 22.42 23.17 22.37 21.11 20.34 19.68 19.36 18.64 18.08 17.58 17.42
39.66 32.81 31.07 29.15 30.89 26.95 26.75 24.17 27.99 25.39 24.43 22.87 22.57 22.22 23.33 25.91 21.10 21.49 22.63 29.68 30.00 28.07 26.70 26.48 25.95 24.21 24.46 24.90 26.24 27.50 27.30 29.03 27.14 25.31 26.55 26.45 25.16 24.64 25.87 24.21 23.74 24.30 24.34 22.98 21.37 20.25 18.83 18.02 18.06 17.29 16.68 16.00 16.20 16.59
29.67 28.95 29.41 25.88 28.11 22.80 21.20 21.39 23.16 23.97 21.55 22.61 21.27 22.52 20.57 20.41 20.10 21.28 22.93 29.88 30.55 26.90 27.89 26.44 26.33 27.52 27.79 28.13 28.11 27.43 25.14 27.70 26.96 25.60 25.20 27.59 24.57 22.24 21.43 21.69 21.69 21.90 21.23 20.53 18.68 18.61 17.75 16.99 16.64 16.25 15.75 15.56 15.50 16.02
26.99 29.20 26.85 25.62 22.81 22.39 21.64 19.40 20.25 21.35 22.10 20.35 21.92 23.19 20.99 20.28 19.05 20.97 27.08 31.67 30.52 29.98 28.08 26.29 26.45 26.22 27.36 29.68 28.25 26.54 25.52 25.96 27.77 26.75 24.80 25.45 25.41 25.16 22.93 20.60 19.44 19.21 19.64 21.15 19.94 17.84 16.72 16.40 16.05 14.46 15.50 15.04 15.98 13.37
27.26 25.57 27.06 28.91 26.80 25.59 23.41 24.04 24.83 23.21 19.82 18.83 19.68 17.47 18.78 17.72 21.11 27.02 31.27 30.77 33.66 31.93 32.41 31.13 30.50 30.10 30.21 28.87 29.14 27.66 26.67 27.21 26.93 26.69 25.39 24.57 23.36 23.55 25.89 23.73 21.11 22.44 19.45 18.99 18.76 18.07 17.06 16.22 16.21 15.79 15.27 15.40 14.43 12.68
27.49 25.19 19.64 23.10 23.85 25.63 21.26 21.66 20.85 21.39 23.58 24.73 21.36 16.27 17.50 21.88 26.03 32.10 31.54 26.60 25.83 26.54 31.64 31.39 31.80 32.04 32.14 30.23 26.76 23.06 20.03 18.69 18.63 18.95 18.98 17.64 16.06 17.06 18.44 19.71 20.34 22.16 18.82 18.03 17.91 17.35 17.48 17.32 16.72 16.02 14.73 13.86 13.27 13.19
24.15 26.03 26.12 20.69 20.13 20.79 21.73 22.38 22.81 26.21 27.86 25.12 24.84 26.17 25.75 29.99 29.39 26.01 23.03 22.06 24.41 27.58 25.95 25.60 23.65 25.29 24.56 24.25 24.11 24.24 20.73 22.42 22.12 20.73 21.49 20.88 17.94 17.75 16.37 18.87 20.28 17.57 17.18 19.06 21.46 19.04 16.33 17.15 16.55 15.80 13.43 13.12 12.74 11.45
21.67 27.65 22.77 21.29 18.21 19.51 23.48 24.83 26.46 24.42 24.44 27.11 26.28 25.59 25.27 24.48 22.91 20.60 20.63 21.06 23.88 25.80 27.32 28.15 23.61 24.91 22.38 22.17 19.96 20.20 23.43 25.65 28.00 26.79 24.23 22.80 22.50 20.08 15.50 14.88 14.96 14.67 14.94 16.26 16.10 14.97 21.26 15.56 14.87 11.39 11.11 11.00 11.91 12.11
22.08 20.87 18.01 20.28 20.12 20.10 18.25 18.99 20.66 22.79 21.96 22.50 22.90 24.52 27.27 24.02 21.05 20.09 19.96 21.64 25.33 26.32 25.42 22.40 23.69 25.67 24.46 23.30 22.19 20.93 19.42 19.53 19.55 21.70 22.75 21.77 18.22 17.28 15.81 15.45 15.53 13.94 14.36 14.74 14.20 14.35 14.01 12.19 11.55 9.66 9.48 6.60 4.95 8.88
21.09 18.91 16.24 13.96 15.12 17.08 18.72 20.13 21.20 21.38 21.05 20.81 22.25 20.52 20.06 21.06 21.09 21.89 19.42 21.77 23.12 23.46 26.31 25.62 24.93 24.20 27.69 27.19 27.26 27.43 29.75 20.51 17.94 19.50 19.77 18.43 17.63 16.72 15.79 14.63 13.16 13.70 13.62 13.28 13.02 11.20 8.73 8.94 9.72 8.72 8.82 5.21 3.84 2.96
16.06 15.99 16.12 16.21 16.14 16.61 18.64 20.27 18.88 17.97 18.34 18.52 18.52 17.64 20.36 20.87 22.23 21.69 18.53 22.82 24.51 25.26 26.03 27.18 27.68 26.77 26.40 26.01 25.60 25.19 23.39 21.06 21.39 23.62 23.84 22.59 20.79 18.27 14.59 13.33 13.53 13.46 12.24 12.39 11.44 9.95 6.75 4.25 5.66 3.95 2.95 0.94 1.06 1.76

GFSWCAN_sfc_wetblb_084.txt.gz
Wetbulb
51.75 50.15 46.79 45.66 46.92 47.80 48.84 49.01 49.72 49.29 50.36 51.23 50.75 50.41 50.11 49.17 47.78 46.16 41.44 43.56 42.04 36.94 34.81 38.41 38.48 36.96 38.60 39.22 36.41 38.76 37.74 38.72 37.93 32.61 31.01 29.40 28.51 29.96 28.27 29.68 28.53 28.75 26.68 26.51 27.24 23.10 20.94 36.05 34.34 29.97 33.46 34.53 36.18 35.61
51.48 49.97 46.38 45.35 46.39 47.47 48.47 48.87 49.40 48.96 49.91 51.28 50.94 50.94 50.82 50.39 49.40 48.20 42.00 44.33 44.24 39.01 35.43 39.55 38.91 38.70 37.52 36.92 35.25 39.38 37.76 38.47 38.07 34.42 33.17 32.04 28.94 30.13 29.65 25.62 31.29 26.85 31.30 28.36 29.64 29.55 35.03 35.94 35.21 36.07 36.68 36.29 35.33 35.53
51.17 49.45 46.00 45.23 46.24 47.33 48.14 48.57 48.98 48.70 49.49 51.66 51.15 51.28 50.70 50.41 50.01 47.55 42.59 42.73 44.25 38.71 36.21 36.36 36.57 38.56 40.90 39.52 39.70 36.13 39.04 39.45 39.42 38.21 36.45 34.42 30.80 31.74 26.58 28.47 28.64 32.69 34.20 30.27 31.39 33.21 33.78 35.46 36.15 36.43 35.62 35.40 36.35 36.72
50.75 48.68 45.79 45.12 45.96 46.98 47.96 48.04 48.79 48.41 49.04 51.77 51.31 51.51 50.24 48.46 49.06 48.10 41.79 41.96 42.04 42.00 36.22 34.04 40.43 37.32 40.28 40.73 39.44 39.17 38.05 40.48 39.31 38.42 36.17 33.84 31.28 34.18 30.69 31.03 30.06 32.78 33.30 32.01 31.76 34.55 33.49 34.57 35.53 36.40 36.36 36.20 35.74 36.01
50.46 48.27 45.98 45.10 45.70 46.31 47.60 47.83 48.56 48.38 48.37 50.95 51.43 50.79 48.81 46.91 46.84 46.47 43.26 42.48 41.84 39.92 34.62 33.74 37.28 38.49 39.84 39.99 39.80 40.19 39.65 38.57 37.79 36.28 34.21 32.19 32.95 32.09 31.84 30.11 29.08 33.57 32.46 30.27 29.49 34.52 33.88 33.07 33.85 35.45 35.47 34.85 35.18 34.44
50.20 48.12 46.08 45.01 45.68 46.20 47.32 47.65 48.40 48.47 48.40 48.63 50.44 48.85 46.57 46.71 46.67 45.29 40.16 42.37 42.25 41.26 38.14 32.34 36.93 36.06 37.12 37.98 37.79 36.78 36.98 36.82 36.40 35.31 33.79 32.44 33.49 30.97 28.21 27.46 34.94 35.47 36.58 35.24 33.64 34.04 34.06 34.39 34.54 34.94 34.59 34.61 34.32 33.19
49.98 47.88 45.95 44.95 45.65 46.23 47.34 47.77 48.32 48.74 48.63 48.64 48.68 47.67 47.41 46.79 44.42 40.08 37.95 40.11 42.48 40.46 37.64 32.74 32.45 34.75 35.76 35.62 36.71 36.58 36.76 35.02 34.79 33.93 32.32 31.74 31.71 31.51 30.14 27.45 34.43 35.46 35.83 33.92 34.29 34.21 31.84 33.63 32.63 34.17 34.10 33.70 34.57 32.14
49.65 47.49 45.94 44.99 45.64 46.52 47.46 48.16 49.18 49.87 49.80 49.50 48.44 47.45 46.17 45.78 44.10 40.10 40.09 42.99 42.79 38.45 37.66 31.34 32.17 30.86 34.46 33.56 32.94 35.03 33.70 34.07 33.36 32.46 30.63 29.37 29.69 29.15 26.57 32.48 31.83 32.94 34.28 33.59 33.77 32.92 32.99 33.93 33.90 32.80 32.86 32.22 30.47 28.86
49.44 46.99 45.82 45.10 45.90 46.86 47.53 49.33 50.38 50.19 49.62 49.79 48.37 47.46 43.98 41.61 38.81 39.25 43.90 43.71 40.87 36.72 32.11 31.62 29.63 27.20 34.02 32.65 33.76 33.19 32.97 29.24 32.41 29.66 29.50 29.56 28.18 25.08 30.15 32.66 32.57 32.23 32.31 32.74 32.93 32.54 32.01 31.81 31.98 31.76 31.06 28.46 25.75 26.51
48.82 46.59 45.38 45.21 46.06 46.87 47.68 49.55 49.75 49.81 49.21 48.30 43.65 39.16 36.06 38.38 42.97 42.95 39.47 35.78 34.97 34.55 33.28 29.70 32.22 27.29 31.24 31.46 31.49 31.27 31.44 29.42 23.20 29.23 29.91 26.61 26.86 33.32 34.49 33.76 34.03 33.85 34.61 33.55 29.12 27.06 27.99 26.56 29.04 29.08 27.74 27.71 27.26 26.72
48.26 46.47 45.51 45.40 46.19 46.97 48.87 49.32 49.08 47.82 46.03 41.29 38.02 35.56 38.94 42.17 38.18 34.17 31.06 29.71 31.50 28.74 31.84 29.81 29.38 26.74 32.07 28.82 30.21 31.79 28.90 26.97 20.58 25.12 24.86 25.40 25.86 30.11 33.62 31.70 32.72 34.15 34.55 33.79 32.12 32.35 31.41 30.03 28.66 27.26 26.95 27.26 27.05 25.77
47.72 46.33 45.60 45.79 46.40 47.09 49.02 48.40 46.97 44.27 42.01 40.97 39.85 40.38 38.48 34.91 31.62 25.55 25.01 27.75 26.11 25.81 27.71 27.25 28.02 30.29 29.98 32.06 30.66 29.78 26.07 24.50 19.36 28.73 24.03 22.63 28.06 30.25 30.76 30.97 31.74 33.32 33.50 30.85 30.74 29.37 29.23 28.92 28.18 27.18 26.78 26.01 25.72 25.30
47.36 46.21 45.79 45.93 46.63 47.19 48.80 47.87 46.35 44.77 42.86 39.78 35.95 31.03 31.79 29.04 21.72 20.97 17.83 22.25 22.63 27.33 27.66 27.48 25.43 28.72 28.74 30.43 28.85 27.02 21.16 21.90 26.61 18.77 21.69 26.93 29.09 29.96 30.27 30.72 31.17 31.74 30.58 29.52 29.06 29.07 28.88 27.41 27.30 25.83 25.23 25.73 24.76 24.76
47.22 46.00 45.86 46.39 47.04 47.61 48.72 47.93 45.58 42.79 40.52 34.01 28.02 20.58 24.74 21.33 24.67 27.53 27.01 28.65 28.05 28.60 28.36 29.36 26.62 27.65 28.75 26.26 27.66 20.16 26.30 24.94 14.82 13.43 20.51 26.36 27.94 29.01 31.02 31.55 31.59 30.31 28.53 26.70 26.51 27.04 26.74 26.09 24.09 24.52 24.74 24.72 24.07 23.26
47.12 45.88 45.81 46.27 47.10 47.47 48.40 46.98 44.87 40.68 36.97 30.00 28.20 21.25 24.95 29.05 26.58 25.21 24.99 25.85 26.92 30.52 29.97 27.24 26.53 27.91 25.31 23.86 25.76 22.95 17.05 11.08 18.92 20.30 25.71 27.25 27.42 29.49 29.97 30.37 31.17 30.46 29.05 27.88 26.61 24.07 21.51 22.08 21.77 22.04 23.53 23.67 23.31 23.15
46.87 45.42 44.01 46.26 47.24 47.49 47.58 44.54 40.92 39.75 34.37 30.09 27.45 23.06 26.72 24.43 23.24 23.37 23.08 25.03 28.74 30.24 27.86 28.42 24.13 20.93 21.70 23.14 18.49 16.66 16.57 17.04 24.73 27.21 27.09 24.64 27.40 28.65 29.06 29.88 30.05 30.09 28.50 27.73 27.03 26.83 25.79 23.94 23.15 21.67 22.53 22.11 21.58 21.73
45.44 40.73 44.70 46.34 47.06 47.29 44.82 39.47 37.71 33.90 33.16 31.27 27.68 30.20 27.64 25.57 27.34 26.58 28.37 28.07 31.12 28.11 24.78 25.00 18.87 19.84 22.05 17.45 17.88 23.16 20.98 26.27 29.67 27.93 26.09 27.70 27.89 27.74 28.99 29.20 28.76 28.73 28.23 27.39 26.29 24.93 22.98 22.64 18.62 16.83 16.89 20.87 21.17 21.61
40.59 43.05 45.65 46.74 46.53 43.58 38.61 36.79 34.72 32.80 30.41 32.01 28.95 27.67 28.11 27.64 27.29 26.30 26.91 30.09 29.41 27.40 26.03 22.47 22.92 16.32 18.18 15.35 19.85 26.17 27.99 26.20 25.04 26.33 27.30 28.07 28.37 28.54 28.58 27.17 27.25 27.49 27.39 25.60 24.57 21.07 16.74 16.88 18.86 19.73 18.45 19.21 18.33 18.14
41.63 43.93 45.51 46.42 43.87 38.66 34.85 33.61 33.78 30.75 31.46 32.14 30.50 27.21 28.46 28.17 28.21 28.70 28.19 29.14 28.70 27.68 25.94 21.64 19.39 18.20 22.37 24.89 26.44 30.09 27.10 26.22 25.75 26.42 26.93 27.69 28.72 28.09 26.47 25.72 25.46 25.81 24.82 22.36 23.00 23.33 21.93 22.50 21.67 20.77 19.65 18.97 18.21 19.67
44.67 45.04 44.57 45.55 43.63 35.60 32.67 32.58 33.86 31.57 28.45 28.56 27.49 27.52 27.02 26.60 26.95 26.18 26.61 27.86 26.10 23.60 20.61 19.65 22.99 26.17 26.38 28.49 29.53 27.66 28.57 29.63 27.16 25.42 25.25 25.29 26.13 24.73 25.18 25.19 25.93 25.28 24.14 21.99 22.77 24.87 20.99 20.92 21.58 20.70 18.63 18.39 17.20 16.06
42.97 42.47 44.49 43.93 37.33 36.16 34.82 31.75 30.16 31.51 30.55 26.52 26.79 28.18 25.25 24.44 23.01 22.91 22.21 26.51 21.37 22.30 22.67 27.63 27.67 29.87 28.57 27.06 27.40 26.67 27.10 28.48 28.41 29.16 26.93 24.68 24.78 25.00 23.60 24.85 25.37 24.90 23.43 23.34 22.14 21.52 23.19 20.19 19.70 18.90 19.17 18.27 16.46 16.62
37.32 43.25 40.82 38.78 32.49 32.74 33.09 33.46 28.66 28.98 24.87 25.16 27.21 25.02 21.85 21.08 23.27 25.31 28.82 26.06 23.57 25.44 27.71 29.59 31.38 31.25 30.53 26.80 28.77 26.56 28.33 28.61 28.08 28.78 31.37 29.65 24.12 23.04 23.82 24.91 24.16 23.75 23.45 22.91 21.29 20.48 20.24 19.37 19.46 19.14 17.52 16.92 17.64 15.58
41.42 36.72 32.21 32.14 29.79 29.41 29.52 31.88 23.74 24.80 21.54 22.84 24.57 19.62 21.04 23.87 25.89 28.43 22.82 23.36 25.31 29.30 32.14 32.06 32.61 26.33 28.45 24.36 21.61 23.14 26.10 28.91 27.27 26.32 27.84 26.25 26.13 25.25 25.10 24.84 24.98 24.77 22.35 21.08 21.68 20.09 17.90 21.17 19.40 17.65 16.11 15.52 14.80 14.21
38.39 32.16 30.67 29.72 31.51 27.19 27.33 23.18 29.23 25.78 25.02 21.62 21.14 16.60 19.94 23.81 21.53 20.39 20.06 20.85 26.54 27.04 30.08 31.81 29.15 21.81 20.17 20.35 22.14 25.30 25.41 28.68 27.97 24.91 25.16 25.46 24.43 24.21 25.56 24.03 24.35 23.76 23.43 22.10 20.36 17.79 15.71 16.60 18.90 15.76 14.90 10.74 10.68 11.02
29.35 28.77 29.99 26.81 28.87 21.98 19.37 20.23 20.20 21.88 17.33 20.17 17.75 17.71 18.10 19.72 18.39 18.28 15.16 19.68 27.42 28.91 30.89 31.00 28.68 28.22 27.87 28.46 28.77 26.35 25.80 28.13 27.68 26.79 24.19 26.24 24.37 22.06 20.75 20.34 20.67 21.14 21.86 19.96 18.00 16.26 14.05 14.56 14.19 11.67 10.55 8.82 9.08 7.32
25.94 28.38 27.05 26.77 21.31 17.88 18.75 15.42 19.42 19.52 17.61 15.71 17.73 16.71 18.56 19.54 16.68 15.59 18.55 25.47 30.54 31.59 31.74 29.54 27.12 25.81 25.95 28.67 29.72 24.35 25.59 28.21 28.82 27.34 23.97 25.88 25.53 24.73 21.88 19.58 18.32 18.45 19.83 20.03 18.28 15.17 14.64 14.70 13.36 10.25 9.23 10.24 15.87 6.95
26.50 26.50 28.66 28.25 24.68 23.14 20.62 21.14 22.55 19.22 15.50 16.58 18.20 17.74 18.99 17.23 14.06 19.16 25.10 28.55 29.59 30.91 32.89 32.58 29.84 28.87 29.24 29.08 29.60 26.88 28.29 28.33 26.36 25.92 25.38 25.23 23.96 25.43 25.86 23.16 21.22 22.23 20.23 20.02 18.17 16.07 14.92 14.22 12.72 11.45 9.33 8.10 7.02 6.52
28.87 24.83 18.96 22.85 19.69 19.85 16.56 16.79 15.79 16.93 18.06 21.33 21.65 17.59 18.77 16.91 18.76 24.81 27.01 22.00 19.25 18.28 20.77 21.82 26.80 29.27 25.87 23.88 26.60 25.60 21.16 19.45 19.05 20.29 20.13 18.29 17.33 18.88 20.23 21.05 22.30 24.20 19.73 18.11 16.82 14.59 15.77 14.88 12.85 11.36 8.65 6.47 5.48 5.67
22.31 25.52 24.14 19.91 14.49 15.52 17.09 17.53 19.42 23.37 26.26 23.53 21.83 21.11 18.25 22.03 22.19 21.08 18.30 15.03 14.69 19.10 18.56 17.97 18.07 24.07 24.59 25.10 25.68 24.69 21.25 22.01 21.32 19.68 21.13 20.28 16.74 16.34 18.32 21.58 20.86 18.31 18.69 19.42 22.28 17.56 14.07 12.38 11.65 11.53 6.62 5.96 4.74 2.47
22.21 26.46 19.95 16.36 15.51 16.41 18.96 23.44 25.39 25.46 25.25 26.07 23.74 21.08 21.57 20.93 16.21 13.50 13.57 13.62 15.68 16.76 19.09 21.34 23.09 23.89 23.44 23.70 21.62 20.36 23.02 26.30 29.12 27.07 24.49 22.50 22.66 18.30 19.21 18.34 16.71 16.59 17.59 17.19 15.84 15.55 23.64 14.78 14.54 3.76 2.33 1.44 2.13 2.24
24.51 19.25 16.79 18.30 17.12 17.06 18.17 19.48 20.40 22.71 15.98 13.09 14.41 15.98 19.78 14.92 17.50 12.97 12.64 13.81 15.45 16.92 20.56 18.16 21.85 22.76 24.55 24.71 22.22 20.32 20.49 21.90 20.21 25.36 25.61 23.86 20.54 19.40 18.76 17.66 16.25 15.91 15.93 14.79 13.13 11.27 13.15 6.09 2.96 0.85 0.10 -1.35 -2.37 2.17
21.36 19.67 18.88 17.20 16.32 15.77 16.80 17.18 13.24 11.91 10.64 10.69 11.54 10.38 11.40 13.28 14.66 17.71 13.04 17.06 18.44 20.00 25.04 23.68 23.27 24.69 27.12 26.56 25.50 26.53 29.37 21.60 19.80 22.68 21.78 20.13 19.38 18.69 17.86 16.54 15.53 15.26 14.17 13.02 11.50 9.00 5.99 5.63 4.01 0.58 -0.17 -2.84 -4.11 -4.93
15.15 11.88 9.06 10.38 11.32 9.59 14.92 13.41 12.63 8.51 8.66 7.99 9.99 11.64 12.51 15.81 17.50 17.93 11.21 14.13 18.11 21.94 23.42 25.50 25.83 27.07 27.72 25.96 26.02 26.37 25.01 23.12 22.99 25.09 25.26 23.78 22.28 19.86 16.46 15.79 15.24 14.45 12.65 11.78 9.79 6.69 4.54 1.76 -1.45 -3.02 -4.06 -4.57 -6.16 -6.29

GFSWCAN_sfc_wetblb_087.txt.gz
Wetbulb
51.21 51.28 49.29 46.96 46.04 46.83 48.16 48.92 49.57 49.50 51.04 50.95 50.88 51.47 51.24 51.01 50.45 41.91 38.35 39.65 38.40 31.40 31.56 35.34 36.08 33.10 35.47 35.69 33.16 36.27 36.20 36.44 35.05 29.87 28.68 27.00 26.16 27.97 25.86 28.39 26.09 26.90 23.85 24.65 24.75 21.19 19.20 34.81 33.03 29.39 32.22 33.49 35.17 35.09
50.95 51.17 49.77 46.78 45.63 46.57 47.64 48.41 49.10 49.20 49.92 51.34 51.25 51.84 51.10 50.91 50.19 46.49 37.84 41.69 41.23 35.17 33.40 36.73 36.03 36.49 35.53 35.07 33.78 36.11 35.88 35.74 35.55 32.05 30.11 28.87 27.58 27.14 26.64 22.93 29.13 24.55 29.14 27.37 27.76 27.70 33.40 34.35 34.52 34.81 35.31 34.56 34.36 34.91
51.08 50.95 50.18 46.99 45.54 46.32 47.28 48.13 48.60 49.21 49.30 51.12 51.25 51.40 50.61 50.08 50.02 45.25 38.21 38.40 39.95 34.33 33.61 34.39 34.14 36.47 38.38 37.51 37.86 35.04 36.34 37.01 37.02 36.26 33.90 31.93 28.58 28.98 24.66 25.46 26.43 29.06 31.91 28.81 29.50 30.42 32.40 34.18 34.75 35.31 35.61 35.00 35.26 35.13
51.02 51.01 50.22 47.09 45.42 45.99 46.70 47.89 48.03 48.85 48.89 50.94 51.63 51.12 49.58 48.74 49.15 45.20 37.81 38.62 38.75 38.28 32.63 33.08 38.33 35.45 37.99 38.18 37.67 37.15 36.23 37.87 37.27 35.88 33.68 31.12 29.65 31.87 28.06 29.29 28.45 30.51 31.64 29.59 29.35 32.07 31.21 33.48 33.78 34.91 35.09 35.13 34.41 34.22
50.82 51.10 50.09 47.30 45.59 45.73 46.33 47.29 47.89 48.60 48.73 49.20 51.21 50.49 48.86 47.63 47.50 42.13 39.31 38.94 38.53 37.79 31.96 31.55 35.26 36.55 37.59 37.46 37.89 37.95 37.22 36.16 35.10 33.67 30.73 30.67 30.63 30.24 29.41 28.14 26.22 31.38 30.70 29.13 27.92 32.49 32.31 32.08 33.49 35.11 34.14 33.77 34.18 33.16
50.77 51.12 49.92 47.47 45.67 45.71 46.26 46.90 47.69 48.15 48.83 48.94 49.71 49.05 47.24 47.15 47.11 41.59 36.78 40.07 39.34 38.03 32.91 29.01 35.09 34.01 35.11 35.90 35.71 34.96 35.37 34.83 34.04 33.39 31.73 30.53 31.73 29.82 25.46 24.73 31.48 32.48 33.55 34.71 33.25 32.83 32.93 33.01 33.61 33.43 33.70 33.29 33.09 31.93
50.62 50.87 49.70 47.55 45.65 45.55 46.24 46.96 47.63 48.21 48.75 48.98 48.95 47.11 47.09 46.85 39.79 37.35 35.22 38.31 41.91 38.25 34.63 30.74 30.38 33.27 34.19 34.16 34.57 34.54 34.65 33.36 33.48 31.79 30.26 29.68 30.10 29.57 27.03 25.33 32.41 33.83 33.66 32.78 33.13 33.61 31.19 32.42 31.59 32.56 32.85 32.74 33.91 30.83
50.52 50.76 49.46 47.47 45.62 45.40 46.27 47.16 47.78 48.56 49.37 49.36 48.71 47.46 46.21 45.92 43.25 38.20 37.93 42.18 40.90 36.22 35.26 29.44 26.73 29.01 33.58 31.01 31.01 32.95 31.84 31.84 31.60 30.65 29.20 28.03 28.59 27.27 25.17 29.55 31.53 31.66 32.28 32.07 32.78 32.34 33.12 32.96 32.05 31.19 30.92 30.50 28.96 27.71
50.16 50.48 49.30 47.44 45.71 45.47 46.59 47.44 48.41 49.43 49.87 49.72 48.27 47.49 41.93 38.29 35.63 36.52 43.79 42.67 37.85 34.12 26.56 27.83 19.17 19.93 32.32 30.38 31.05 31.79 30.69 26.65 30.57 27.92 27.99 28.73 26.20 24.00 29.32 30.14 31.36 30.90 32.41 32.06 31.55 31.29 31.60 31.45 31.07 30.68 30.26 28.93 26.07 25.26
49.69 50.01 48.93 47.16 45.67 45.92 46.80 48.29 50.14 50.19 49.67 48.81 41.54 36.88 32.94 36.26 42.49 41.27 36.80 32.44 30.84 30.57 29.35 25.20 25.77 24.25 28.71 28.56 29.24 28.36 29.08 26.75 19.84 27.67 28.68 26.34 25.82 31.03 33.32 32.91 33.53 32.31 32.69 32.14 28.38 26.59 27.95 27.02 29.35 29.57 28.34 27.21 26.35 25.66
49.46 49.56 48.36 46.84 46.12 46.33 46.98 49.59 49.78 49.03 46.26 39.67 34.71 32.14 36.46 41.88 36.19 31.56 26.51 25.55 27.03 24.74 28.64 26.76 25.79 23.75 29.98 25.47 27.43 30.07 25.84 22.44 16.44 23.09 24.27 23.68 26.60 28.38 31.53 32.73 32.84 32.59 32.71 32.09 30.98 30.88 31.02 29.84 28.71 27.83 26.23 26.42 26.85 26.20
49.32 49.07 47.73 46.51 46.38 46.70 48.44 49.43 48.17 43.05 38.84 38.99 37.56 37.91 36.02 32.06 27.31 22.20 18.01 24.03 23.68 23.37 26.22 24.59 26.55 28.65 27.84 29.77 28.00 27.94 22.96 21.60 15.47 25.18 21.48 20.34 27.47 29.47 29.14 27.41 29.87 31.85 32.05 30.68 30.79 30.59 29.90 29.13 27.82 26.23 26.16 25.93 26.21 25.75
49.14 48.75 47.43 46.51 46.63 47.00 49.05 48.60 46.92 45.42 42.28 38.32 32.47 27.04 27.07 24.67 17.63 16.56 15.16 16.00 17.52 24.19 24.15 24.45 22.84 27.16 27.59 29.24 26.95 24.78 19.67 21.16 25.05 15.85 18.49 22.38 27.44 29.07 28.59 29.10 28.74 29.07 28.74 28.03 27.88 28.11 27.66 26.66 27.22 26.46 25.59 25.66 25.16 24.29
48.97 48.59 47.40 46.35 46.82 47.45 48.81 47.77 45.81 43.61 38.76 30.41 23.29 18.08 21.32 15.47 19.57 21.37 20.82 21.03 25.32 25.32 26.57 26.88 24.01 25.39 27.39 24.74 25.83 16.72 24.61 23.61 11.76 8.89 16.84 22.62 26.94 28.22 28.62 29.49 29.33 27.80 26.83 24.89 25.70 27.26 26.81 26.16 24.70 25.13 25.53 24.90 24.33 23.64
48.96 48.23 47.10 45.95 46.79 47.40 48.51 46.87 45.01 40.23 35.73 25.70 24.21 17.71 19.72 25.20 19.94 18.63 17.44 20.71 23.55 27.77 27.75 25.66 23.96 25.71 22.41 22.21 24.50 21.01 15.41 10.19 15.11 16.26 20.78 23.03 27.42 27.70 28.56 28.86 29.28 27.66 26.41 25.73 25.65 25.36 26.21 25.19 23.73 23.85 24.57 24.22 23.54 23.74
48.93 47.71 45.22 45.93 47.03 47.43 48.02 44.50 41.03 39.13 33.69 26.14 25.22 20.30 24.84 20.54 17.98 18.30 15.38 19.17 23.77 28.16 24.76 26.30 20.50 17.59 19.83 20.64 16.45 15.06 12.57 12.54 17.70 20.46 25.09 23.20 26.39 27.47 28.67 29.41 29.88 29.90 27.94 27.22 25.94 26.09 26.00 24.63 23.82 23.34 23.13 22.55 22.31 22.54
48.34 42.29 45.38 45.89 46.92 47.36 45.39 39.62 37.72 33.83 33.50 30.88 28.04 27.88 24.27 20.18 22.74 23.74 24.61 25.45 27.92 26.61 20.91 21.34 15.23 19.05 20.05 13.25 14.91 19.91 17.03 21.06 24.68 25.34 22.60 25.71 26.60 26.92 28.22 29.17 29.42 29.20 28.30 27.15 25.94 25.99 25.43 24.53 21.13 19.74 19.79 21.29 21.59 22.37
43.60 43.48 45.24 46.09 46.37 44.08 39.26 37.04 35.03 33.01 30.39 31.94 29.43 28.46 27.95 26.90 25.20 26.08 26.18 27.87 27.61 25.00 24.79 19.80 21.29 15.77 15.23 13.21 16.43 21.70 23.67 22.86 22.88 24.19 24.23 26.69 26.81 27.47 28.22 28.00 28.16 27.54 26.55 24.37 23.89 23.72 22.34 20.04 20.13 21.37 20.02 19.54 19.95 19.84
43.72 43.71 45.45 45.86 44.36 38.70 35.02 33.78 33.92 30.76 31.47 32.14 29.89 28.32 28.39 28.02 28.04 27.30 26.87 29.25 26.97 26.92 23.47 18.53 15.07 17.46 19.71 21.32 22.18 21.00 21.67 24.21 25.49 24.54 24.74 26.60 27.44 27.45 26.85 25.56 24.75 24.00 23.75 22.39 23.00 23.75 23.20 23.16 22.43 21.61 20.86 20.38 19.92 20.04
45.09 45.22 45.29 45.20 43.52 34.43 31.69 32.65 34.04 31.72 28.26 29.56 25.57 27.87 28.22 27.96 28.10 27.68 26.00 28.03 25.94 20.79 16.86 18.16 21.58 25.61 23.73 25.24 25.89 25.23 25.10 26.06 24.90 24.24 25.20 25.04 25.95 24.72 25.52 25.27 25.63 24.07 22.67 21.54 22.30 25.45 22.48 21.66 21.83 21.37 20.34 20.34 18.68 17.33
44.10 43.99 44.43 43.19 35.79 34.76 33.61 31.17 30.45 31.53 30.12 27.81 23.40 28.16 26.00 25.22 25.66 25.87 26.25 26.90 20.22 20.24 19.72 25.86 26.48 29.60 28.12 27.33 26.48 27.02 25.27 26.55 25.59 26.28 26.65 22.59 24.64 24.94 23.89 23.70 23.15 23.52 22.51 22.89 23.26 23.24 24.66 21.65 21.48 20.86 20.48 19.39 17.84 17.87
37.59 43.94 40.33 36.24 31.88 31.77 31.91 32.31 27.40 29.90 27.76 24.43 26.75 20.91 20.09 21.52 22.85 24.95 27.88 25.62 23.43 27.35 26.73 30.34 32.12 31.25 30.72 28.40 28.95 25.12 28.45 25.78 26.61 26.48 31.06 29.04 23.02 21.99 23.80 24.34 23.71 23.35 23.02 23.59 23.40 22.74 22.34 21.31 20.83 20.24 18.85 18.10 18.58 16.93
40.90 36.54 32.15 31.88 30.27 30.85 30.03 31.63 25.40 22.94 21.95 23.13 24.46 20.63 18.04 18.12 23.17 27.64 23.34 25.33 25.42 27.42 32.14 32.47 33.40 33.08 30.32 29.33 21.76 22.92 24.20 25.30 26.20 26.08 26.93 27.65 25.61 25.12 25.05 24.92 25.75 23.75 22.15 22.42 23.09 22.38 21.08 22.51 22.87 18.59 17.55 16.86 16.26 15.55
37.97 32.12 30.74 29.68 30.07 27.11 28.89 26.85 27.82 24.82 23.12 23.06 21.70 16.23 16.55 19.14 24.72 22.58 20.84 19.20 23.40 27.48 29.75 31.81 32.92 31.42 20.33 19.33 24.43 29.24 27.95 25.02 26.10 22.55 25.34 24.25 22.36 23.25 25.36 25.52 24.56 23.20 24.17 23.38 22.38 21.20 19.97 18.83 20.78 17.92 15.89 14.35 13.54 12.43
29.34 27.95 29.93 27.42 28.84 21.46 19.14 19.91 20.35 20.44 17.50 18.64 15.96 13.16 18.68 18.16 14.12 11.16 13.88 17.01 21.45 28.50 29.94 30.38 29.94 29.71 29.38 29.61 29.28 29.20 25.24 26.18 26.22 25.68 24.87 26.69 23.44 21.07 18.15 19.48 22.04 21.61 23.43 21.85 19.73 19.35 17.72 17.21 16.16 15.33 14.25 13.15 12.07 9.41
25.83 27.75 27.29 26.85 21.84 19.88 18.15 15.42 18.00 18.76 18.50 15.85 17.94 15.50 12.20 14.47 9.88 14.53 15.31 20.53 27.69 30.65 30.29 29.20 29.29 28.48 26.72 28.54 29.25 29.35 28.33 26.12 25.77 24.91 25.54 26.56 25.88 24.93 22.86 21.22 18.17 17.49 21.76 23.26 21.16 19.07 17.23 16.29 15.27 14.24 13.68 14.87 18.55 10.81
24.49 25.11 28.25 28.37 24.38 21.75 20.00 19.45 21.70 19.92 17.84 16.74 16.64 14.12 14.86 13.73 14.14 18.10 21.21 22.31 25.71 28.13 30.09 32.19 30.91 29.49 29.89 28.87 27.97 29.21 23.13 26.75 25.14 24.56 22.59 26.69 26.96 27.31 25.87 23.26 21.26 23.96 22.08 22.01 21.66 20.10 18.00 16.24 15.33 14.60 13.99 12.76 11.14 10.49
29.89 26.27 23.55 23.39 20.61 20.47 17.40 18.43 17.96 17.88 18.19 20.30 20.16 11.40 16.25 17.57 18.90 22.50 23.78 20.61 19.41 15.34 16.55 16.96 22.91 28.47 28.18 23.81 20.92 22.06 16.86 18.03 18.29 18.47 19.87 18.21 13.57 14.86 20.68 20.65 24.20 26.25 23.27 22.74 21.38 20.12 18.75 17.42 16.12 14.83 13.61 12.31 10.53 9.10
23.71 25.33 24.96 19.47 19.60 20.04 17.77 17.51 18.61 20.84 23.70 23.18 23.04 20.08 19.48 20.66 19.51 19.60 19.05 14.91 9.97 17.34 17.17 17.38 17.22 13.24 14.55 14.96 17.19 18.82 20.26 21.50 18.72 17.75 19.52 16.17 13.50 16.61 17.80 23.81 23.72 21.95 22.07 23.16 24.70 20.78 17.59 16.88 16.13 15.13 13.31 11.27 9.12 4.71
22.33 26.88 19.94 21.06 19.70 19.70 20.10 21.88 21.16 22.73 23.62 25.84 26.53 21.40 19.03 18.71 16.02 10.03 12.95 11.77 15.54 18.33 19.31 17.91 18.56 22.19 19.95 20.35 16.03 12.53 14.66 21.49 25.34 25.04 23.97 22.81 23.43 19.86 21.03 19.32 19.52 20.73 21.58 21.01 19.98 20.77 24.16 20.20 19.01 11.52 8.80 6.61 4.69 3.20
25.36 20.33 16.20 16.21 17.10 13.35 12.65 15.96 19.28 23.21 19.23 15.45 13.81 15.96 17.18 16.02 17.63 11.26 13.08 13.46 14.28 11.39 14.09 13.44 16.53 20.03 19.86 19.17 19.79 18.24 18.38 22.45 24.87 23.71 24.44 22.19 20.99 21.74 20.45 19.35 19.73 20.21 20.26 19.39 19.29 20.01 18.51 12.53 10.88 9.06 7.21 4.11 -0.11 3.93
19.99 18.50 17.93 13.96 12.15 13.14 16.56 17.87 19.23 20.72 18.32 19.02 11.76 5.58 10.56 12.50 14.12 19.79 14.68 13.83 13.60 16.34 23.39 22.87 20.88 21.94 23.86 21.51 22.71 20.34 29.00 26.85 25.55 25.15 23.95 22.35 22.37 21.16 19.54 18.83 19.17 19.40 18.63 17.92 17.66 16.42 13.58 12.24 9.86 8.70 6.03 2.04 -2.50 -4.26
12.67 8.04 8.38 11.86 10.33 12.68 16.20 19.96 18.95 17.39 15.07 6.44 10.24 11.61 11.62 16.15 18.43 22.28 10.60 17.75 20.18 23.76 23.81 23.88 19.88 18.70 22.57 23.37 24.59 26.24 27.32 23.66 24.31 27.72 27.08 26.01 24.31 21.82 19.01 18.50 18.39 18.11 16.67 15.56 14.74 13.66 11.16 9.35 7.89 5.08 2.82 0.94 -2.72 -6.11

GFSWCAN_sfc_wetblb_090.txt.gz
Wetbulb
52.05 51.36 51.47 49.59 47.05 46.09 47.13 48.57 49.02 49.35 49.93 51.10 51.22 51.52 51.07 50.66 49.66 41.59 37.81 39.12 37.39 31.82 31.19 34.43 34.92 32.14 34.84 34.69 32.13 35.13 35.19 35.37 33.77 29.22 28.01 26.22 25.34 26.60 23.96 26.40 24.53 25.23 22.75 23.76 23.78 20.84 18.44 33.76 32.58 28.09 30.45 32.12 34.26 34.43
52.07 51.38 51.40 49.89 47.53 46.09 46.71 47.94 48.61 49.07 49.11 50.09 51.44 51.56 50.91 50.17 49.02 44.23 37.53 39.98 39.67 35.25 33.70 36.00 35.85 36.39 35.74 35.05 34.33 34.88 34.35 34.31 34.50 31.19 29.06 27.78 27.11 25.56 24.71 22.03 27.39 24.85 28.05 26.15 26.96 26.48 31.89 33.52 32.34 33.99 33.93 33.80 33.69 34.11
51.93 51.46 51.16 50.64 47.98 46.25 46.41 47.33 48.17 48.92 48.94 50.19 51.77 51.34 51.15 50.17 48.15 43.81 37.40 37.11 38.17 34.05 33.56 33.92 33.57 36.10 37.42 36.81 37.38 34.87 35.28 35.84 35.82 35.12 32.63 30.76 27.45 28.20 24.00 24.34 24.15 27.83 30.53 28.58 28.94 28.17 31.61 33.05 33.21 34.16 34.90 34.48 34.62 34.64
51.51 51.40 51.19 51.08 48.49 46.44 45.99 46.89 47.81 48.27 48.70 49.48 51.57 51.32 50.19 49.47 47.68 43.20 36.83 36.99 38.59 37.11 32.25 33.04 37.27 34.83 37.64 37.11 36.54 36.35 35.77 36.45 36.21 34.91 32.49 29.91 29.33 31.05 27.11 27.93 27.37 29.75 30.66 28.95 28.12 30.73 30.87 33.22 33.35 34.56 33.94 34.24 33.89 33.79
51.31 51.13 51.18 51.24 48.98 46.86 45.94 46.58 47.28 47.88 48.52 49.15 50.38 51.15 50.16 48.70 46.13 40.23 37.48 37.06 37.74 38.72 32.52 31.68 34.54 35.79 36.57 36.47 36.66 36.52 35.99 35.05 33.78 32.07 29.66 29.96 29.88 29.29 27.75 26.69 25.06 29.98 30.04 28.68 27.42 32.10 31.61 31.51 33.45 34.17 33.23 32.82 33.07 32.06
51.21 50.83 50.89 51.27 49.44 47.30 45.95 46.51 46.89 47.58 48.26 48.60 49.14 49.27 48.33 48.02 47.02 40.32 35.82 39.12 38.09 38.68 33.20 28.59 34.06 32.59 34.59 35.34 35.15 34.95 34.99 33.75 33.01 32.27 30.62 30.17 30.67 29.75 25.01 23.79 30.72 30.79 32.22 33.68 32.06 32.03 32.79 32.47 33.15 33.99 33.65 33.43 33.23 32.42
51.00 50.56 50.72 51.05 49.66 47.49 46.07 46.46 46.82 47.50 48.05 48.66 48.95 47.68 47.48 47.59 39.40 36.68 35.19 37.91 40.92 37.93 33.70 28.31 27.70 32.79 33.05 32.84 33.52 33.53 33.56 32.83 32.67 30.93 29.92 28.82 29.37 30.26 26.07 24.17 31.09 32.41 33.05 32.59 32.40 32.81 30.00 31.85 31.51 33.05 33.07 32.78 34.21 30.59
50.78 50.39 50.55 50.74 49.71 47.68 46.07 46.43 46.97 47.56 48.29 49.17 49.08 47.54 46.39 46.56 42.45 37.45 37.52 42.42 39.23 35.47 33.51 24.05 25.34 27.64 31.58 30.15 30.07 31.80 30.65 30.41 30.25 29.83 28.52 28.10 28.20 26.96 24.86 29.25 29.79 31.02 31.16 31.18 31.73 30.72 32.38 32.06 31.31 30.50 30.71 29.84 28.31 27.12
50.37 50.16 50.35 50.52 49.67 47.74 46.11 46.49 47.22 47.76 48.90 49.48 48.84 46.74 40.84 37.60 34.63 35.65 43.80 41.46 36.42 33.31 25.74 23.98 20.80 20.22 31.24 29.50 29.94 30.87 29.81 26.26 29.89 27.83 27.43 28.39 26.84 24.05 29.55 30.26 30.13 30.81 31.39 31.82 30.92 31.15 30.85 30.48 29.86 29.42 29.30 28.61 27.25 25.65
49.89 49.75 50.00 50.12 49.23 47.92 46.37 46.74 47.53 48.65 49.58 48.68 40.59 36.28 31.79 35.51 42.35 40.57 35.62 31.83 29.70 29.79 29.04 24.65 24.84 24.15 28.68 27.65 28.62 27.80 28.26 26.41 20.15 27.11 28.68 26.28 26.02 30.71 32.13 31.54 32.46 32.33 31.95 30.89 27.86 25.75 27.30 27.19 28.71 28.88 28.95 27.86 25.95 25.34
49.71 49.39 49.59 49.62 48.53 47.08 46.63 47.14 48.88 49.89 47.25 38.03 33.95 32.09 35.64 41.09 35.08 30.27 26.24 24.81 26.37 24.52 27.62 25.42 25.59 24.79 29.05 25.68 26.86 29.34 20.97 21.39 16.56 21.77 24.08 22.59 23.54 28.80 31.14 29.69 30.62 32.69 31.84 31.76 30.37 30.25 30.54 30.14 29.88 29.08 27.23 26.25 26.53 26.28
49.50 49.13 49.30 49.21 48.03 46.79 46.68 48.38 49.40 42.56 38.15 38.49 36.88 36.83 34.57 31.02 26.42 21.58 17.85 23.39 23.09 22.91 25.36 24.57 26.48 27.95 27.34 29.41 28.17 26.88 22.47 20.29 16.72 23.11 20.51 17.99 23.91 28.66 28.77 28.39 29.95 29.81 30.81 31.14 31.56 30.86 30.09 29.82 29.59 28.04 26.18 25.90 26.60 26.67
49.34 48.99 49.21 49.06 47.85 46.67 47.20 49.32 47.84 44.57 41.62 35.97 31.32 25.82 27.35 22.85 18.42 16.29 14.46 15.75 14.72 22.88 23.23 23.33 22.56 26.65 27.14 29.18 26.54 24.40 20.42 20.99 23.81 14.01 17.57 20.80 24.91 27.31 28.09 28.08 28.29 29.11 29.08 28.57 28.07 28.24 28.09 26.97 27.06 26.49 25.96 26.57 26.06 24.73
49.28 48.88 49.00 48.72 47.59 46.81 47.94 49.03 47.18 43.50 36.95 27.95 23.24 19.34 21.71 14.74 19.91 21.82 20.59 19.75 24.35 24.10 24.41 24.47 22.94 24.71 26.65 24.69 24.85 16.39 24.03 23.18 11.05 10.93 15.69 19.59 24.14 27.41 27.36 28.20 29.06 29.30 27.76 25.28 24.90 26.03 26.06 25.67 24.92 26.12 26.42 25.96 25.24 24.06
49.23 48.76 48.68 48.10 47.04 46.56 48.19 48.53 45.90 40.50 34.27 27.00 23.96 18.87 18.96 23.62 19.27 18.86 17.95 19.87 22.57 27.17 26.35 24.51 23.41 24.59 22.31 21.78 24.30 20.61 15.28 10.63 15.16 16.69 19.51 21.84 26.28 25.99 26.11 27.70 28.12 27.18 26.02 25.44 25.53 25.31 24.42 24.73 24.64 23.75 25.03 25.32 24.33 23.69
49.21 48.51 47.58 48.00 46.77 46.56 48.18 46.22 40.97 38.65 33.17 24.74 25.41 20.32 24.09 21.39 14.47 16.84 14.80 17.48 23.47 27.35 24.29 25.49 19.51 17.52 19.00 21.02 16.86 15.27 12.89 12.74 18.27 18.67 23.74 22.00 26.71 25.76 26.16 27.79 28.47 28.10 25.99 25.49 25.05 25.79 25.49 24.64 24.56 24.12 24.27 23.11 22.75 22.82
48.73 45.74 47.95 47.33 46.31 46.47 46.75 39.90 37.90 35.60 33.95 31.83 27.46 27.79 27.98 26.05 24.29 23.27 23.69 24.89 28.01 26.95 21.97 21.25 15.28 19.19 21.06 14.93 17.01 19.85 15.98 20.57 21.99 22.38 22.81 25.25 26.02 25.47 26.06 27.97 28.75 28.83 27.34 26.17 24.72 24.56 23.67 23.78 21.22 20.05 21.46 22.32 22.24 22.34
46.39 47.27 47.25 46.68 45.44 44.57 39.69 37.72 35.47 33.40 31.05 32.12 28.99 28.60 29.27 29.34 26.51 25.75 25.52 27.15 28.14 25.64 24.14 20.35 20.27 16.31 20.15 18.30 18.15 21.79 23.14 20.77 21.03 23.89 24.32 26.08 25.73 25.90 27.21 27.58 28.60 28.65 28.11 25.27 24.22 22.46 20.91 19.57 19.63 20.20 21.66 22.10 21.01 20.48
47.09 45.96 46.56 46.00 43.56 37.27 32.62 32.70 33.93 31.45 31.89 32.30 26.30 27.57 29.76 29.40 29.32 28.61 27.65 29.30 26.49 27.14 23.75 18.14 16.37 20.27 23.39 23.78 22.78 20.60 18.69 23.17 25.88 24.13 23.55 24.90 26.15 26.34 26.11 25.34 24.18 22.61 22.78 22.44 22.63 23.91 23.29 22.35 21.72 22.44 22.43 21.76 20.68 20.80
48.03 46.34 46.13 45.12 42.40 33.26 30.31 31.25 33.76 31.44 29.53 31.35 27.42 28.20 28.43 28.83 28.87 28.51 27.86 28.91 26.27 20.21 16.65 17.43 23.28 26.43 24.67 24.69 26.11 25.87 24.50 26.62 25.51 23.34 24.33 24.30 24.93 21.95 24.10 24.90 25.38 23.89 21.12 18.10 19.33 24.59 20.79 20.25 20.74 22.04 21.59 21.18 20.47 18.80
45.74 44.66 45.18 42.43 33.31 32.26 32.98 31.33 30.67 32.56 30.30 27.84 25.05 28.65 27.52 26.26 26.44 26.08 26.43 28.30 24.98 19.93 19.55 26.08 28.94 33.20 28.55 27.44 26.94 27.37 27.24 25.84 25.34 27.56 26.78 21.65 24.34 23.98 22.78 23.32 21.90 23.29 22.23 22.64 22.41 22.55 24.13 20.69 20.31 21.48 22.54 20.68 19.35 19.00
41.15 44.90 39.04 35.44 31.60 30.85 31.63 32.35 31.56 30.96 27.75 24.64 26.87 22.99 23.35 23.39 23.79 25.50 28.00 24.94 20.92 27.93 26.57 32.28 33.02 33.20 30.96 27.54 29.19 26.52 30.05 26.31 25.65 25.21 30.11 28.93 23.38 20.01 21.36 23.50 22.88 23.36 23.67 23.78 23.43 22.91 22.55 20.57 20.46 21.14 20.56 19.70 20.43 17.72
41.49 35.86 31.80 31.85 30.19 29.85 28.59 31.79 25.71 25.41 20.95 23.35 25.06 21.54 18.56 19.45 23.99 28.30 25.30 24.84 26.53 29.11 33.26 33.03 33.55 32.80 30.32 31.93 23.83 24.91 25.41 27.05 26.51 26.47 27.52 27.95 28.21 24.88 22.72 24.14 25.70 24.55 23.04 21.72 22.44 21.26 20.21 23.30 23.83 19.92 19.45 19.11 17.27 16.54
37.77 32.15 31.09 29.12 29.93 27.64 28.74 26.97 26.85 23.88 22.59 22.19 21.52 21.01 17.21 18.44 25.76 23.93 22.91 21.39 25.16 26.99 29.49 31.99 32.82 30.85 24.95 19.72 25.59 30.81 32.08 25.76 27.25 28.06 25.89 25.27 25.03 24.65 25.78 25.55 25.16 26.10 26.84 24.95 22.03 20.24 19.27 20.19 23.90 19.97 17.51 16.50 16.07 15.56
29.00 27.40 29.58 27.08 28.40 23.63 22.72 22.18 20.48 20.28 17.17 18.49 16.95 14.88 18.21 22.25 21.04 20.10 17.98 20.23 23.91 29.30 29.74 29.60 28.75 29.97 29.41 30.03 30.72 30.91 26.68 26.67 26.29 25.82 27.39 25.64 25.00 17.77 17.01 19.13 22.59 23.61 22.62 20.95 20.17 19.14 17.95 17.95 19.04 17.27 16.29 15.69 14.79 14.08
26.53 27.87 26.93 27.80 22.52 20.62 19.14 16.07 16.84 15.54 17.17 16.15 17.04 16.13 15.52 17.57 13.92 16.58 18.96 21.87 30.10 32.02 28.82 27.27 28.15 27.47 27.84 29.61 29.59 29.56 29.77 25.68 24.41 24.85 28.12 24.86 24.79 24.72 22.39 20.60 19.07 18.90 21.85 24.79 21.51 18.49 17.29 18.72 17.47 16.64 15.82 17.52 20.28 14.65
24.93 25.07 27.87 28.69 24.87 21.95 19.60 20.13 21.39 19.55 18.38 17.56 16.29 15.08 18.97 18.25 17.22 19.28 22.94 26.38 27.42 29.43 31.35 31.35 30.68 29.81 30.16 28.84 27.71 28.82 20.35 23.81 23.12 22.30 19.97 23.58 26.13 26.69 26.26 23.64 22.46 24.55 22.37 22.41 21.67 20.57 19.27 18.03 17.80 16.95 16.15 15.49 15.78 14.97
29.15 25.98 23.96 22.83 20.09 19.30 17.40 18.42 17.62 19.07 20.52 20.96 22.22 16.43 18.60 20.39 20.12 25.64 26.81 24.86 25.01 18.82 22.12 22.96 27.61 30.01 29.16 27.94 21.99 20.45 13.47 12.31 11.81 12.46 14.29 14.18 11.41 10.30 14.81 16.87 21.02 26.88 23.61 22.96 22.08 22.31 20.94 20.19 18.78 17.27 15.81 14.79 13.97 13.00
26.62 25.89 23.35 15.96 17.66 19.98 20.63 20.57 21.24 23.87 25.75 24.22 23.60 20.25 18.94 22.05 25.50 25.51 23.44 18.25 11.61 20.66 21.57 20.41 21.37 11.78 13.14 11.67 12.99 16.47 18.03 19.63 19.00 15.03 14.70 15.85 11.61 14.55 13.76 23.46 26.10 24.94 23.78 23.80 26.47 23.48 20.93 20.20 18.74 17.17 15.94 15.02 13.90 11.09
22.29 27.51 16.90 17.99 18.09 18.87 20.72 23.10 23.05 23.65 24.06 26.80 26.96 23.03 22.48 21.81 21.07 13.03 13.09 14.07 18.72 21.61 24.88 22.63 18.00 21.24 22.08 20.15 17.46 11.48 13.68 20.50 24.18 23.33 19.58 20.16 18.85 17.99 20.85 20.97 21.98 22.17 22.55 22.46 22.45 23.05 26.19 22.48 20.59 14.27 11.85 10.54 9.92 8.77
24.18 19.10 13.27 14.99 15.53 13.84 14.11 18.13 20.64 23.93 20.59 20.36 19.32 23.27 21.14 15.56 17.02 12.43 16.48 16.74 16.90 10.61 13.06 14.93 12.45 16.83 18.55 17.89 18.61 16.59 18.59 19.01 18.96 16.39 14.73 16.78 19.32 22.37 20.24 19.25 21.12 21.91 21.79 21.76 21.63 21.22 19.93 15.09 13.15 11.84 11.17 10.02 9.49 9.67
19.42 19.19 16.70 14.62 10.97 10.45 15.22 18.07 20.98 21.91 20.11 21.78 19.69 11.41 12.26 14.35 15.35 19.34 16.39 13.76 12.60 14.24 22.22 22.63 20.62 24.02 22.20 20.52 21.83 18.74 27.26 19.94 21.81 22.00 20.82 21.66 22.58 20.94 20.09 20.46 20.71 20.97 21.06 21.04 20.54 18.86 15.66 14.32 12.46 11.99 10.66 9.19 7.33 5.14
16.62 16.04 15.01 15.28 15.42 15.66 16.25 20.25 19.62 17.64 16.50 13.89 15.80 14.27 12.63 16.37 19.00 22.14 13.39 19.60 24.95 27.58 26.64 25.62 24.49 16.14 20.19 21.33 22.26 22.81 24.72 18.79 22.92 27.74 28.42 27.05 25.43 22.63 20.24 20.30 20.63 20.03 20.02 19.97 18.37 16.37 14.53 12.85 11.95 10.78 9.43 7.56 4.87 1.75

GFSWCAN_sfc_wetblb_093.txt.gz
Wetbulb
52.44 52.19 52.07 51.74 50.69 48.26 46.32 47.64 48.61 49.43 49.45 50.40 50.94 51.71 51.69 51.42 48.16 41.30 37.29 38.35 37.86 32.51 31.46 34.60 35.22 31.90 33.54 33.48 31.98 34.76 33.60 34.40 32.38 28.59 27.73 25.90 24.72 25.32 22.96 24.70 23.08 24.07 21.57 22.68 22.73 20.09 18.06 32.58 31.73 27.52 29.87 30.79 32.91 32.65
52.35 52.10 52.09 51.77 51.20 49.09 46.79 47.15 48.07 48.75 49.28 49.67 50.93 51.87 51.55 51.54 50.09 43.68 36.63 39.16 38.50 36.07 34.33 35.68 36.07 36.37 36.13 35.02 34.69 33.61 33.85 33.15 33.72 30.32 28.27 27.20 26.82 24.35 23.74 22.00 25.48 24.63 27.18 24.60 26.40 25.79 30.71 32.88 31.37 32.68 33.19 33.37 33.19 33.25
52.31 52.09 52.10 51.77 51.59 49.90 47.44 46.48 47.61 48.26 49.00 49.42 51.31 51.64 51.77 50.31 48.20 43.19 36.21 36.74 37.07 33.70 32.95 33.22 33.45 36.05 36.73 36.32 36.90 34.67 34.13 35.43 34.57 34.10 31.58 29.57 27.58 27.61 23.85 23.27 22.34 27.18 29.21 28.04 28.46 27.45 29.79 32.59 32.56 33.89 33.67 33.74 34.21 34.16
51.96 51.87 51.98 51.62 51.94 50.31 48.10 46.30 47.02 47.86 48.65 48.95 50.75 50.96 50.55 49.80 47.69 42.41 36.21 36.11 37.96 35.90 31.79 32.73 36.45 33.82 36.67 36.48 36.01 35.88 35.63 35.63 35.22 33.91 31.62 29.77 28.95 30.58 26.81 27.07 26.08 29.28 29.71 28.13 27.15 29.85 29.45 32.07 32.54 34.31 33.96 34.10 33.38 33.19
51.69 51.69 51.79 51.50 51.69 50.57 48.63 46.58 46.73 47.40 48.09 48.98 49.33 50.66 49.92 48.67 45.60 40.09 36.28 36.14 37.17 37.88 31.53 31.44 33.84 35.30 35.55 35.56 35.80 35.54 35.00 34.23 32.91 31.16 28.91 29.45 29.37 28.37 26.96 25.84 24.19 29.31 29.19 28.30 27.00 31.33 30.35 30.37 31.33 34.06 33.36 33.27 33.49 32.51
51.59 51.46 51.50 51.19 51.24 50.88 49.09 46.97 46.55 47.07 47.73 48.67 48.70 49.23 48.56 47.67 46.15 39.84 35.19 38.29 37.26 37.44 31.48 28.64 33.55 31.29 33.70 34.14 34.45 34.07 34.71 33.09 32.20 31.25 29.89 29.84 30.12 30.10 24.91 23.32 29.56 29.76 31.09 32.65 31.74 29.58 31.52 30.65 31.40 31.91 32.94 32.99 32.93 31.99
51.43 51.26 51.15 50.81 50.91 50.96 49.46 47.26 46.48 47.01 47.51 48.29 48.83 48.56 47.03 47.21 39.43 36.73 34.64 37.04 40.86 37.25 32.37 27.92 27.01 32.12 31.47 32.01 32.60 32.64 32.41 31.43 31.81 30.28 29.57 28.49 29.02 30.16 26.26 24.26 31.20 31.50 31.98 31.49 30.33 32.14 29.26 30.88 31.63 32.98 33.12 32.99 35.18 30.59
51.20 51.12 50.97 50.52 50.66 50.83 49.55 47.58 46.49 46.99 47.44 48.24 49.32 48.44 46.85 45.71 42.24 36.51 36.99 42.32 38.33 34.54 32.33 23.20 23.40 27.42 31.50 29.39 29.40 30.63 29.79 29.52 29.71 29.76 28.63 27.95 28.06 26.85 25.16 28.88 30.02 31.40 31.27 31.21 31.73 31.91 31.52 31.73 31.43 30.83 30.42 29.27 28.45 27.49
50.77 50.86 50.80 50.53 50.52 50.65 49.47 47.73 46.72 47.09 47.54 48.46 49.27 47.14 39.88 37.06 34.01 35.11 43.09 40.40 35.32 32.78 25.25 22.57 20.33 20.01 30.38 28.87 29.59 29.85 29.24 25.94 29.37 27.66 27.05 28.13 25.70 23.07 29.30 29.27 29.60 30.36 30.76 30.66 29.67 29.83 29.53 29.95 30.00 29.59 29.21 28.55 27.63 26.57
50.28 50.45 50.52 50.25 50.21 50.26 49.26 47.68 46.64 47.27 48.28 48.72 40.65 36.00 31.77 34.79 41.86 40.10 34.66 31.48 28.61 28.79 27.87 23.99 24.17 24.21 27.66 27.18 28.03 27.33 27.75 26.26 19.08 26.99 27.90 25.86 25.19 30.38 31.50 31.70 31.21 31.55 31.56 30.30 28.24 26.39 27.69 27.54 28.78 28.50 28.79 28.78 28.22 25.78
50.14 50.15 50.17 49.87 49.77 49.62 48.78 47.53 46.98 47.94 48.18 40.79 34.86 32.76 34.91 40.19 34.11 29.63 26.53 25.30 26.31 24.29 27.46 24.74 24.40 24.49 28.60 24.90 26.38 28.83 20.68 21.30 16.47 21.94 23.84 21.91 22.56 26.51 29.84 29.68 29.86 28.56 29.83 31.35 30.99 30.96 31.81 30.73 30.08 29.14 28.70 27.87 26.29 25.92
49.92 49.89 49.83 49.55 49.60 49.30 48.37 47.32 47.59 46.31 42.00 39.36 36.83 36.03 33.81 30.23 25.74 21.48 19.07 22.71 23.02 23.31 24.95 24.92 25.99 27.20 27.08 28.93 27.68 26.64 21.49 19.75 16.36 22.50 20.52 18.41 23.39 27.27 27.88 27.94 27.99 28.47 28.52 29.83 30.61 30.33 30.07 30.84 30.81 30.04 28.09 25.98 26.14 26.82
49.74 49.73 49.78 49.48 49.55 49.19 48.01 47.24 48.65 45.15 41.92 36.68 31.63 27.10 26.94 23.98 17.00 15.89 17.81 15.88 13.81 22.16 23.05 24.34 23.22 26.49 26.66 28.68 26.15 24.03 19.82 21.30 23.46 14.71 18.09 21.08 25.29 26.50 26.03 26.89 27.17 26.35 28.81 29.46 29.12 29.14 29.29 28.24 28.49 26.60 24.98 25.13 24.70 24.29
49.58 49.53 49.62 49.34 49.32 48.78 47.37 48.14 47.23 42.98 37.94 32.12 27.96 20.66 21.93 15.18 20.14 21.76 21.05 19.85 23.09 22.78 24.96 24.33 23.74 25.30 26.34 24.71 24.76 16.68 23.87 22.67 12.22 13.35 17.33 20.86 24.41 26.31 26.76 27.18 27.51 27.24 26.77 25.09 25.98 26.56 25.95 25.42 24.03 24.23 25.42 24.88 23.84 22.59
49.39 49.35 49.28 48.88 48.84 48.19 47.10 48.65 45.98 41.00 35.01 30.92 27.16 22.16 20.05 24.20 20.03 18.22 16.24 19.98 22.30 26.16 24.78 24.30 23.94 24.59 21.68 21.38 24.32 20.50 14.72 11.64 16.83 18.20 20.96 22.78 25.40 26.11 25.65 26.38 26.90 27.28 26.05 24.44 23.23 22.63 21.86 22.22 22.28 21.68 23.07 23.41 23.19 23.13
49.26 48.94 48.29 48.96 48.70 47.62 47.08 48.09 42.00 38.92 33.28 28.90 22.14 19.62 22.59 21.15 23.93 23.25 16.05 18.38 23.08 26.29 23.60 24.89 20.07 17.99 18.86 20.62 16.09 17.12 14.53 14.36 19.72 19.46 23.32 21.65 26.43 26.19 25.52 26.67 27.69 27.79 26.37 25.28 24.38 24.40 24.24 23.33 22.70 21.93 22.20 21.66 21.50 21.23
48.71 46.14 48.32 48.64 48.21 46.74 46.92 39.96 37.97 34.52 32.47 32.69 28.07 26.43 26.83 27.36 28.58 26.69 25.27 24.37 27.04 26.44 20.84 19.81 14.85 19.39 21.50 15.11 17.63 20.09 17.81 21.83 22.75 21.02 20.85 24.17 26.96 26.28 25.31 26.25 28.01 28.32 26.97 25.37 24.12 23.85 22.99 23.15 19.89 17.31 18.53 20.37 20.11 20.39
46.03 47.30 48.18 48.46 46.97 44.96 40.26 37.26 33.52 31.86 30.27 32.26 29.35 26.89 28.76 29.73 28.21 26.90 26.04 27.90 28.46 26.02 22.83 19.45 20.74 14.17 17.12 19.55 21.20 22.66 22.20 20.66 20.30 22.06 23.71 26.83 26.86 25.94 26.49 26.03 27.74 27.81 27.66 22.64 20.72 18.40 17.88 17.50 19.33 20.35 18.37 18.72 17.72 16.31
46.78 47.64 48.02 48.05 45.00 34.82 32.12 31.23 32.87 30.15 31.55 32.55 29.16 26.31 29.72 29.66 29.99 30.40 28.29 30.37 28.35 28.17 24.55 17.11 13.33 17.54 23.65 26.21 25.69 18.95 17.55 22.35 25.96 25.85 25.08 25.93 25.72 26.69 25.84 24.59 24.48 23.90 24.36 22.52 21.91 23.92 23.83 22.81 22.72 20.87 20.38 20.17 19.26 19.77
47.72 47.94 47.78 46.81 42.84 32.68 29.99 30.97 33.19 31.45 29.96 32.08 27.32 26.74 28.09 28.58 29.21 29.30 28.73 29.59 27.89 24.44 16.81 16.45 22.33 28.12 27.19 28.18 25.52 24.50 23.51 25.24 25.28 24.77 25.41 24.79 25.03 22.30 24.20 24.39 25.48 24.86 22.52 18.44 19.87 25.41 20.40 20.42 21.00 21.07 20.76 20.55 18.94 18.52
46.22 46.31 46.88 43.70 33.36 32.40 32.08 30.83 29.94 32.47 30.46 29.77 29.10 27.66 26.39 26.20 26.65 26.78 27.28 29.77 28.21 21.02 19.33 25.66 30.49 33.39 30.32 28.11 27.28 27.32 26.92 26.63 26.26 27.01 28.81 29.78 25.51 23.71 23.14 23.25 21.68 23.24 22.70 23.16 23.22 23.54 25.69 22.58 21.88 20.55 22.00 21.18 18.78 18.04
42.87 44.07 37.50 35.28 31.75 30.98 31.41 32.17 32.11 31.81 29.19 27.65 28.81 28.38 23.14 22.64 23.96 25.93 28.50 26.86 26.93 29.85 26.85 32.08 33.20 33.42 32.82 29.79 31.03 26.87 29.90 27.71 26.46 26.21 30.42 28.54 24.71 20.83 21.45 22.98 21.81 23.76 24.32 24.79 24.31 23.98 24.36 21.71 20.85 20.58 20.11 19.18 20.94 17.34
39.28 36.62 32.22 31.87 29.63 28.33 28.60 31.88 27.96 27.34 23.89 24.83 26.03 24.61 20.78 18.38 22.24 28.38 24.60 25.82 28.95 28.87 33.81 34.19 34.61 34.88 33.62 33.50 25.07 25.56 25.47 25.53 26.19 26.23 27.58 28.28 28.94 28.39 24.32 24.17 25.27 25.56 23.95 23.97 24.62 24.30 22.90 24.38 25.03 19.93 19.04 19.18 17.22 16.33
37.61 32.34 31.13 29.06 29.57 26.66 28.53 26.73 27.17 24.50 22.92 23.48 23.02 23.53 19.26 15.35 24.51 23.84 22.36 22.08 24.28 27.28 31.77 33.35 33.97 33.01 31.87 23.78 30.15 32.31 32.46 26.96 28.56 29.37 29.75 27.65 25.27 26.13 26.07 26.79 25.55 26.36 27.08 23.49 23.18 22.26 20.98 21.84 25.07 20.84 18.47 16.34 16.30 15.48
29.79 28.18 29.27 26.37 29.23 24.67 23.24 20.94 21.16 21.10 17.03 17.02 19.03 20.15 19.98 23.81 21.08 20.47 20.28 18.97 22.03 26.58 30.46 32.68 32.33 32.82 31.67 32.19 32.79 32.18 29.45 28.79 28.45 27.87 29.11 26.11 27.21 20.29 20.46 22.57 23.54 24.36 22.72 21.15 20.29 20.47 20.40 21.16 20.05 17.01 16.51 16.61 15.37 14.23
25.46 28.49 26.06 27.23 23.62 21.28 19.06 14.24 16.48 16.88 16.38 15.51 19.87 18.95 17.50 19.47 16.26 15.52 17.05 21.71 28.69 32.20 31.72 32.35 31.74 29.38 29.32 31.34 31.41 30.58 31.16 26.71 25.65 26.00 27.93 25.08 25.56 25.19 24.28 20.27 20.02 19.73 21.22 24.30 21.55 20.09 18.99 19.93 17.93 15.79 16.34 18.69 21.58 14.96
25.29 25.82 28.56 30.09 24.41 21.21 18.40 18.58 19.26 17.44 17.98 19.29 14.93 14.78 18.51 17.76 15.21 18.98 21.91 26.37 30.27 31.74 34.34 34.47 32.39 31.05 31.21 29.77 30.14 29.88 22.43 26.07 25.83 24.62 20.99 22.26 24.64 25.66 25.20 21.85 21.86 22.81 22.16 23.44 23.26 21.57 19.89 18.66 18.05 18.29 17.25 17.06 18.86 16.13
28.05 28.62 24.31 23.30 20.09 15.53 13.93 13.90 14.53 17.20 19.65 20.92 21.33 14.78 16.83 18.63 20.05 24.68 26.79 28.67 28.81 24.24 26.50 27.87 31.30 31.80 31.13 30.04 25.54 23.76 17.71 14.20 13.04 14.29 16.40 16.18 12.65 14.86 18.55 20.28 17.45 27.95 22.12 23.83 23.11 22.18 21.21 20.47 19.93 19.06 17.60 16.96 15.71 16.03
26.56 24.84 24.65 21.65 19.14 18.74 17.34 17.61 18.90 22.45 24.43 22.77 21.93 19.03 18.48 20.73 23.93 26.55 26.52 20.72 12.38 18.50 19.96 21.13 21.06 16.10 15.65 14.41 15.45 17.80 18.74 20.64 21.11 18.85 18.86 21.53 15.02 19.80 14.12 16.10 17.23 20.31 19.20 22.99 27.52 24.35 21.40 21.56 20.91 19.69 17.87 16.35 15.30 14.22
25.07 26.28 23.55 21.30 19.85 17.83 19.02 21.83 18.69 19.30 22.43 25.57 26.33 22.43 20.62 18.91 21.53 21.41 20.88 18.29 22.40 24.00 27.15 23.97 22.16 24.26 24.77 23.37 23.17 15.32 15.62 20.70 24.88 25.66 23.25 23.90 21.54 13.17 16.39 18.08 18.65 19.83 22.07 23.20 22.94 23.77 27.92 24.19 22.96 16.03 13.56 12.45 12.13 11.41
25.84 25.03 21.17 21.35 18.70 13.21 11.33 12.47 16.51 23.52 16.82 18.55 19.97 24.17 25.00 19.26 22.23 18.88 19.27 21.25 19.99 14.03 17.05 18.24 13.99 15.19 19.93 17.95 19.15 20.61 21.75 18.56 19.83 21.45 17.36 11.84 14.52 16.68 18.39 18.81 20.03 21.73 22.23 22.74 22.75 22.82 21.29 17.09 14.71 13.20 12.67 11.91 12.18 12.41
18.25 20.29 19.04 14.31 11.68 7.54 7.72 12.42 17.58 18.23 13.78 17.18 15.88 9.35 13.09 16.23 17.21 21.53 17.99 17.43 15.43 16.86 24.20 25.26 23.03 25.54 22.89 25.96 19.82 21.03 29.88 18.81 20.45 21.08 17.46 17.03 16.91 17.48 19.42 19.70 20.17 21.00 21.22 21.79 21.81 19.25 15.85 15.07 13.91 13.89 12.83 12.47 12.75 10.23
17.96 18.23 12.43 13.81 16.16 14.73 14.15 15.56 15.60 14.46 14.77 13.80 13.76 15.16 18.24 20.39 20.55 23.21 14.49 22.97 28.27 29.07 28.19 27.78 28.29 26.84 19.89 22.15 23.01 23.21 25.57 15.56 18.23 25.73 26.49 26.23 25.41 23.17 22.00 21.49 21.57 20.98 21.16 20.80 18.54 16.12 14.36 14.72 14.13 13.52 12.55 10.95 9.68 8.22

GFSWCAN_sfc_wetblb_096.txt.gz
Wetbulb
53.44 52.83 52.61 52.40 51.92 50.91 48.16 46.69 47.65 48.73 49.54 49.81 50.68 51.45 51.58 51.53 49.95 40.89 37.30 37.57 36.20 32.46 31.48 33.78 35.22 32.87 32.62 32.50 31.29 33.71 31.97 32.92 31.13 28.05 27.26 25.85 24.27 24.21 21.52 23.78 22.03 23.58 20.59 21.76 21.85 19.08 17.86 31.90 30.59 27.05 29.71 29.29 32.16 32.30
53.39 52.95 52.52 52.27 51.91 51.44 49.41 46.89 46.96 47.92 48.79 49.49 50.46 52.05 51.66 50.83 48.00 42.66 36.40 38.52 37.68 35.23 33.69 34.89 35.75 35.01 35.23 35.06 35.12 32.46 32.80 32.70 33.05 29.48 27.63 26.92 26.33 22.51 22.20 21.89 23.46 23.03 26.47 23.68 25.82 25.53 30.30 31.77 31.68 32.05 32.20 32.69 32.32 32.39
53.13 52.98 52.51 52.12 52.09 51.75 50.57 47.65 46.82 47.41 48.26 49.15 49.73 51.76 50.85 50.23 47.96 42.25 35.92 36.30 36.66 33.46 33.37 33.04 33.34 34.59 36.06 35.58 36.43 33.89 33.32 34.79 33.31 33.35 30.82 29.08 27.39 27.53 23.40 22.55 21.32 25.94 27.56 26.85 27.95 26.86 29.29 31.49 32.27 32.98 33.04 32.77 33.39 33.04
52.57 52.70 52.47 52.11 52.15 51.90 51.16 48.55 46.81 47.18 47.82 48.65 49.53 51.02 50.87 49.21 46.04 41.42 35.73 35.63 37.28 35.11 31.25 32.33 35.86 32.75 35.21 35.94 35.48 35.30 34.80 35.13 33.96 33.10 30.47 29.22 28.46 29.45 25.66 26.17 24.68 27.80 28.46 26.78 26.18 29.34 28.74 31.11 31.20 32.54 33.45 33.74 33.40 32.69
52.16 52.43 52.33 52.04 51.93 51.57 51.38 49.27 47.15 46.87 47.46 47.99 49.06 49.85 49.86 48.35 46.53 40.27 35.71 35.33 36.58 37.14 30.68 31.38 32.99 33.65 34.62 35.02 34.82 34.25 34.57 33.30 31.88 30.20 27.63 28.70 29.11 27.95 26.44 25.11 23.92 28.60 28.56 27.12 27.19 30.70 30.21 29.85 31.26 32.69 33.33 33.29 33.78 32.69
52.07 52.14 52.08 51.84 51.70 51.35 51.29 49.86 47.54 46.92 47.17 47.66 48.31 49.01 49.17 48.30 45.55 39.20 34.86 37.20 36.65 37.03 30.80 28.35 32.74 30.04 31.55 32.66 32.91 31.70 33.56 32.39 31.43 30.50 29.25 29.47 29.84 30.07 24.76 23.20 29.08 29.11 30.20 31.55 30.81 28.60 30.22 31.40 32.04 30.42 32.39 33.01 33.19 32.91
51.79 51.82 51.77 51.56 51.52 51.20 51.17 50.15 47.88 46.96 47.10 47.45 48.09 48.81 47.65 47.47 39.14 37.19 34.83 37.07 40.11 36.72 31.72 27.71 26.67 31.24 31.40 31.56 31.50 31.70 31.35 30.69 30.73 29.42 28.28 27.61 28.17 29.69 25.92 23.82 30.70 30.71 31.14 30.94 31.02 30.20 30.19 30.94 32.00 32.28 32.34 33.25 35.66 31.93
51.43 51.55 51.61 51.38 51.29 51.01 50.94 50.09 48.25 47.04 47.14 47.38 48.04 49.16 48.04 45.43 41.35 36.23 36.32 42.45 37.87 33.78 31.64 20.39 23.30 26.59 32.09 28.94 28.85 29.67 29.44 28.85 29.31 29.20 27.77 27.41 27.65 26.69 25.24 29.48 28.63 30.70 30.73 30.10 30.64 30.97 30.49 29.66 30.67 30.48 29.84 30.28 29.18 28.38
50.69 51.01 51.30 51.34 51.18 50.81 50.82 49.93 48.27 47.45 47.30 47.60 48.43 47.12 39.91 36.90 33.55 34.46 42.75 39.44 34.47 32.32 25.13 22.42 20.01 20.74 29.83 28.45 29.33 28.80 29.07 25.56 29.02 27.02 26.80 27.79 25.57 23.79 29.67 29.71 30.16 30.65 30.50 30.47 28.67 29.34 29.67 29.86 29.97 29.12 28.89 28.59 28.38 27.42
49.10 50.25 50.69 50.96 50.89 50.53 50.59 49.85 48.02 47.39 47.63 48.19 41.55 36.33 32.76 34.95 41.24 39.86 33.95 31.08 28.57 28.34 27.20 23.41 23.72 22.13 27.48 26.88 27.40 27.03 27.29 26.07 18.88 26.62 27.63 25.61 25.43 30.50 31.56 31.19 31.20 30.95 30.70 29.34 27.42 26.57 27.93 27.27 28.62 28.18 28.38 28.43 28.51 27.17
49.39 49.96 50.22 50.39 50.37 50.09 50.19 49.55 47.93 47.86 47.82 41.80 35.57 33.14 35.24 39.80 33.97 29.93 26.55 25.63 26.45 24.10 27.32 25.05 24.27 23.46 28.68 24.46 26.54 29.11 21.32 22.56 16.37 21.51 23.29 21.32 22.53 26.46 29.64 29.38 30.25 29.40 28.38 28.99 30.71 30.76 31.33 30.50 29.10 28.62 27.73 28.41 28.01 26.28
49.71 49.84 49.84 49.97 50.14 50.01 50.09 49.23 47.91 46.11 42.77 41.46 38.13 36.04 33.19 30.33 26.34 22.85 19.64 23.03 23.03 22.66 24.12 23.06 25.36 26.96 26.99 28.46 27.22 26.43 21.99 20.06 16.73 22.42 20.67 20.24 24.25 28.05 28.21 28.21 28.35 27.93 27.86 27.87 29.02 30.48 30.43 30.56 30.07 29.05 28.26 27.47 25.60 25.16
49.37 49.68 49.81 49.93 50.14 50.24 49.98 48.95 47.72 46.17 42.08 37.94 33.59 30.46 28.69 25.46 18.38 20.40 19.48 19.35 15.56 22.84 22.54 24.15 22.76 25.75 26.47 28.18 25.62 23.22 18.55 22.31 22.62 14.52 18.12 21.30 25.43 26.33 26.24 25.99 27.07 27.33 27.03 27.96 29.13 29.20 28.50 27.58 28.11 27.75 26.70 24.91 24.38 23.69
48.42 49.23 49.52 49.68 49.90 49.99 49.62 48.65 47.50 44.13 39.83 33.29 29.69 24.97 24.84 17.45 22.14 24.38 24.29 25.41 26.10 24.55 24.59 24.20 22.68 23.82 26.25 24.19 24.41 16.49 23.77 22.35 11.48 16.18 17.94 21.71 23.98 25.94 25.69 26.28 26.53 26.00 26.44 24.22 24.94 27.30 26.81 25.12 23.88 24.04 25.82 24.18 23.53 22.54
47.18 48.64 49.18 49.15 49.36 49.52 49.16 47.95 46.79 42.25 35.76 31.75 28.36 23.82 22.30 25.36 20.10 21.08 20.65 24.84 25.10 26.85 26.42 24.85 23.26 24.27 21.54 21.17 23.68 20.20 15.71 12.51 15.90 17.55 22.79 23.23 25.15 24.96 25.69 25.68 26.37 26.91 26.65 25.56 23.99 21.49 19.89 21.66 21.97 21.29 22.84 23.44 22.99 22.55
47.53 48.16 47.47 49.05 49.26 49.33 48.53 47.27 42.84 39.52 33.46 30.94 27.22 21.00 23.13 19.61 19.42 19.89 21.12 23.29 26.18 27.34 25.11 25.80 20.63 17.70 18.94 20.16 16.36 16.60 15.30 14.85 19.70 19.91 23.88 21.82 25.45 25.83 25.46 25.77 26.81 27.30 26.69 26.06 24.77 24.72 24.57 22.90 22.41 21.80 21.58 21.39 21.46 21.66
47.02 45.18 48.32 48.66 48.92 48.84 47.33 40.45 37.13 31.90 31.74 31.26 29.63 27.35 25.20 23.67 27.22 27.16 26.76 26.99 28.70 27.81 24.72 22.29 17.57 20.65 20.64 12.61 15.31 22.02 20.40 22.05 23.41 22.65 20.27 23.58 27.37 26.76 26.07 25.99 27.14 27.98 26.98 25.97 24.48 23.65 22.42 22.94 20.32 18.69 19.35 20.31 19.96 20.35
43.11 45.61 48.07 48.41 48.48 46.30 38.95 33.06 32.66 31.53 29.08 31.78 30.16 28.41 26.87 28.16 28.43 27.33 27.68 28.33 28.92 27.63 25.89 20.37 19.67 13.71 15.61 16.50 21.43 26.18 23.91 21.42 20.79 22.89 23.57 25.22 25.81 26.09 26.70 26.64 27.04 27.79 27.79 24.51 22.61 19.66 18.00 18.66 19.85 21.74 21.11 19.50 17.63 16.06
44.13 45.91 47.27 48.06 46.37 35.41 32.36 30.86 31.71 28.87 30.70 32.33 32.49 26.12 26.53 28.27 29.96 30.85 29.38 30.07 29.34 29.34 25.55 16.91 13.00 15.33 21.51 25.69 28.65 29.01 21.12 21.11 25.43 25.58 25.10 26.18 27.23 26.97 25.63 25.25 25.12 24.43 24.34 21.83 22.09 23.44 24.00 23.45 24.00 23.14 21.81 20.54 20.53 19.51
46.26 46.72 46.96 47.11 41.76 33.81 30.50 30.94 31.71 30.72 30.15 32.28 31.75 27.27 24.09 26.41 29.24 29.31 29.47 29.76 28.84 28.77 26.03 18.38 20.38 24.62 26.45 29.76 30.09 30.12 27.39 25.32 25.11 25.11 26.29 26.11 26.05 24.83 24.89 25.30 25.63 24.73 23.40 19.67 19.64 26.69 21.70 21.28 21.62 21.64 21.22 21.33 19.80 19.06
43.71 43.15 45.58 45.38 35.22 33.26 31.83 30.57 29.25 32.09 31.60 30.71 29.63 29.76 26.67 22.41 24.55 27.81 27.87 30.05 28.64 26.44 22.32 25.19 26.41 32.51 31.11 30.79 29.93 29.45 28.47 27.16 26.93 28.13 28.95 27.23 28.73 25.02 25.43 24.89 23.90 23.06 23.37 24.31 24.30 25.09 28.60 24.39 25.00 22.30 22.35 22.59 21.55 18.89
39.17 44.58 37.44 36.53 32.53 32.24 30.50 31.89 31.61 31.93 29.15 29.36 28.84 30.85 25.28 23.16 21.51 26.37 29.37 27.59 27.81 32.12 29.47 30.39 32.92 33.80 33.66 32.81 32.59 28.92 31.83 28.88 28.49 26.97 31.53 30.16 27.04 24.51 24.44 24.87 22.78 23.91 24.90 26.15 26.08 25.77 26.03 26.61 22.34 21.98 22.04 21.69 22.71 17.53
40.03 37.78 33.30 33.11 30.67 28.28 28.68 31.75 29.04 27.82 25.48 26.32 27.30 27.32 23.19 20.93 21.01 29.21 26.23 26.22 29.94 29.59 35.42 34.85 34.53 34.32 34.36 35.79 27.11 25.02 29.21 30.21 29.93 28.15 28.85 29.45 28.82 29.12 27.66 27.30 26.42 26.26 26.00 26.23 25.54 25.58 24.96 25.81 25.99 22.06 21.22 21.05 18.03 16.38
38.58 32.83 30.37 29.24 29.86 26.57 28.76 27.05 28.09 25.06 24.87 24.40 24.78 24.02 19.06 20.38 25.17 23.98 22.10 24.53 30.01 26.31 31.43 33.73 34.15 33.55 34.14 33.21 32.52 33.79 34.45 31.47 29.18 30.13 31.22 29.07 28.73 28.63 27.32 27.94 26.54 26.15 27.35 24.87 23.98 23.24 21.35 23.55 25.61 22.57 20.07 18.06 16.89 16.39
29.41 28.57 29.75 26.46 29.43 20.19 20.32 20.50 18.48 21.68 19.68 16.36 19.44 21.95 18.53 22.73 21.54 21.71 22.19 19.34 24.83 27.29 30.75 32.91 33.89 33.97 33.24 34.09 34.39 34.00 33.25 32.48 30.04 28.98 31.51 29.38 29.10 25.75 24.07 23.63 24.24 24.78 23.56 22.23 20.65 21.10 20.66 20.73 22.31 18.88 18.23 17.42 16.02 14.94
25.78 28.49 26.19 25.03 22.10 21.45 19.48 14.85 15.90 14.35 15.22 13.71 20.08 16.82 17.18 21.28 18.90 17.93 17.26 23.03 30.16 31.20 31.54 32.46 32.50 31.98 32.18 33.02 32.88 33.34 33.77 29.83 30.51 29.36 31.11 28.27 28.51 28.73 28.04 26.10 24.46 22.24 22.15 25.32 23.06 20.83 19.46 20.52 18.44 16.95 17.11 19.16 22.68 15.99
24.57 26.48 24.90 27.10 24.09 20.23 16.97 16.44 17.41 14.47 11.53 14.44 14.37 15.99 19.87 19.31 18.42 19.90 20.86 23.99 32.09 34.74 35.30 35.84 33.91 32.59 32.92 32.73 32.13 33.15 23.83 28.73 28.45 27.45 22.65 25.01 26.80 28.13 28.57 25.93 23.47 23.64 21.19 23.20 23.13 21.12 19.94 19.61 19.07 18.09 17.22 17.87 19.67 16.74
23.28 22.96 22.90 24.95 22.04 14.68 12.34 11.58 11.67 13.01 15.39 17.66 18.40 11.95 16.15 18.68 21.33 23.99 24.83 24.67 24.38 27.03 30.31 31.10 33.58 34.00 32.28 29.86 24.21 24.28 17.56 16.24 13.07 14.79 18.30 19.71 19.13 21.62 23.23 20.32 18.47 28.18 19.33 21.93 22.30 20.33 20.92 20.60 19.72 18.40 17.26 17.39 18.01 16.65
25.54 27.65 24.89 21.96 17.79 17.68 19.72 16.34 16.14 19.45 22.47 20.28 18.85 16.31 18.01 20.11 21.60 23.30 26.63 24.42 18.34 18.21 21.22 23.50 22.45 17.20 14.38 13.19 15.32 19.81 19.38 22.07 22.53 20.57 21.20 24.40 20.25 23.15 17.91 17.21 16.35 17.26 17.69 18.72 28.11 23.53 19.00 20.33 19.63 18.97 17.36 17.72 17.31 17.34
24.81 28.28 22.39 12.72 18.89 19.03 20.23 20.54 14.45 14.78 20.66 23.56 24.29 21.47 20.44 19.09 20.74 20.94 21.24 18.03 16.67 21.79 23.53 20.67 19.83 24.59 24.89 24.20 21.79 15.62 16.15 22.54 27.11 27.68 26.76 26.65 25.00 14.89 12.09 14.30 15.98 16.56 17.51 18.85 19.15 18.91 27.73 23.97 24.06 17.39 14.85 13.96 15.20 14.56
25.24 22.59 11.89 15.02 15.60 13.20 11.76 9.96 11.79 23.19 15.36 14.20 16.30 22.73 27.94 20.05 19.21 18.70 20.51 21.13 23.03 14.29 17.67 17.42 17.00 22.94 24.09 24.04 22.90 22.40 23.17 23.06 22.65 24.71 17.49 17.16 15.81 15.86 16.62 17.30 18.30 19.50 19.89 19.97 20.72 21.96 21.87 16.64 14.76 14.28 13.55 14.68 14.47 13.74
22.59 23.74 16.57 10.67 10.41 5.80 5.64 10.39 11.85 17.64 15.33 13.71 15.14 8.13 13.90 14.99 17.91 23.65 20.80 16.30 16.62 18.79 25.34 26.69 24.43 26.63 25.19 29.42 27.48 26.46 30.64 24.99 23.26 23.07 22.58 18.86 17.43 16.64 17.19 18.38 19.47 20.54 20.22 20.65 21.34 19.93 15.87 15.12 15.07 15.24 14.97 13.11 12.74 11.38
20.61 15.03 4.37 8.23 9.80 10.03 9.99 13.43 13.18 17.73 16.20 16.23 14.58 13.48 15.84 22.85 25.39 28.34 17.13 23.52 31.03 31.35 29.04 28.64 30.45 31.42 24.33 25.60 26.23 25.53 26.78 19.72 20.71 25.90 26.79 26.06 25.16 21.15 19.08 19.66 20.05 20.39 19.84 20.50 18.29 15.73 13.73 13.55 13.15 12.69 13.15 12.87 11.89 10.37

GFSWCAN_sfc_wetblb_099.txt.gz
Wetbulb
53.82 53.81 53.77 53.00 52.57 52.20 50.73 48.83 47.63 47.95 48.73 49.51 49.85 51.08 51.97 50.72 48.48 40.83 36.91 36.80 36.64 31.66 31.58 33.27 34.65 32.62 32.00 32.00 30.08 31.48 30.91 31.23 30.08 27.62 26.82 25.24 24.08 23.64 21.40 23.21 22.27 23.37 20.55 21.24 21.66 19.73 18.26 31.48 31.32 28.07 30.85 30.85 33.42 33.65
53.72 53.61 53.66 53.21 52.49 52.38 51.49 49.80 47.97 47.52 48.08 48.93 49.60 51.11 51.54 50.64 47.80 43.51 36.36 38.02 37.03 35.00 34.34 34.23 35.23 34.42 34.54 35.74 34.57 31.90 31.05 31.42 31.80 28.52 27.55 26.84 26.46 21.22 21.33 21.63 22.63 22.40 26.24 23.90 25.42 25.42 30.29 31.49 32.30 32.53 31.69 33.47 33.27 33.36
53.22 53.46 53.54 53.23 52.80 52.35 51.88 50.74 48.64 47.67 47.56 48.25 49.17 50.29 50.91 49.75 46.98 41.90 35.62 35.54 36.17 33.39 33.56 32.83 33.13 33.26 35.41 35.63 36.85 33.65 32.35 33.59 32.67 32.13 29.32 28.27 26.93 27.27 23.12 21.94 21.27 25.47 26.87 26.46 27.82 27.91 29.03 31.65 32.07 32.73 33.06 33.07 32.95 33.55
52.25 52.94 53.22 53.13 52.65 52.38 52.07 51.50 49.55 48.04 47.53 47.93 48.63 49.69 50.63 49.43 45.87 41.32 35.63 35.22 36.54 34.44 30.30 32.17 35.18 31.79 34.33 35.43 35.02 35.28 34.70 34.02 33.48 32.59 29.98 28.71 27.89 29.05 25.20 25.70 24.24 27.60 27.64 26.05 25.62 28.93 29.55 30.65 30.57 32.02 32.63 33.76 33.84 33.87
51.81 52.47 52.82 52.92 52.60 52.00 52.00 51.73 50.17 48.38 47.65 47.64 48.08 49.06 49.14 49.11 47.57 40.16 35.58 34.92 36.14 36.45 30.23 31.77 32.61 32.32 33.48 34.70 34.68 34.24 34.31 32.87 31.34 29.88 27.51 28.41 28.91 27.14 25.46 24.44 22.85 27.37 27.40 26.40 26.89 30.77 30.35 30.32 29.98 31.86 31.15 32.72 33.46 33.61
51.57 52.08 52.43 52.54 52.38 52.10 51.76 51.50 50.41 48.75 47.65 47.45 47.82 48.44 49.11 47.63 45.49 39.04 35.29 36.96 36.30 36.70 30.06 28.53 32.33 29.10 30.22 31.88 32.62 31.80 33.06 31.72 30.89 30.16 28.69 28.74 29.38 29.30 24.90 23.17 28.73 28.42 29.51 31.11 30.94 28.86 29.92 30.75 31.84 32.09 31.78 32.60 33.34 33.14
51.14 51.63 51.93 52.13 52.18 51.92 51.63 51.38 50.53 48.94 47.66 47.40 47.55 48.29 48.43 45.91 39.36 37.29 35.51 36.80 39.69 36.65 31.07 27.26 27.10 30.69 30.98 30.89 30.32 30.47 30.42 29.87 30.37 29.16 28.01 27.64 28.13 30.13 25.99 25.68 30.96 30.73 31.34 30.93 30.91 29.32 29.75 31.05 32.13 31.85 32.18 32.70 35.78 32.19
49.53 50.93 51.49 51.70 51.88 51.78 51.49 51.19 50.52 49.02 47.64 47.40 47.57 48.29 48.75 45.49 41.19 36.18 36.63 42.46 37.88 33.44 31.54 20.85 23.60 25.92 30.54 28.47 28.27 29.05 28.52 28.40 28.88 28.98 27.28 27.22 27.31 26.74 25.21 30.17 28.32 30.22 29.60 30.07 30.36 30.13 30.94 29.74 29.70 29.89 30.09 30.70 29.77 29.23
47.96 48.27 49.58 50.77 51.39 51.68 51.44 51.01 50.28 48.71 47.65 47.38 47.78 46.95 39.94 36.79 33.54 34.29 42.42 39.16 34.17 32.64 25.87 23.73 20.77 20.41 29.40 27.79 28.77 28.49 28.65 24.88 28.64 26.80 26.53 28.22 26.01 24.42 29.97 30.39 30.20 30.95 31.18 30.73 30.06 29.22 28.27 28.92 30.24 29.61 29.20 28.70 28.91 28.28
48.19 48.16 48.92 48.81 49.80 51.05 51.27 50.88 50.09 48.32 47.69 47.84 43.04 36.50 32.52 34.31 40.77 40.62 33.64 31.03 28.85 29.10 28.08 24.01 23.81 20.97 27.24 26.31 27.08 26.60 26.73 25.27 17.91 26.37 27.16 25.89 26.09 30.05 31.78 31.22 31.72 31.73 30.81 29.39 27.08 26.15 27.27 27.34 28.56 28.39 28.18 28.68 29.24 28.40
48.64 48.90 49.12 49.55 49.92 50.24 50.73 50.74 49.63 47.67 47.67 41.85 37.29 34.68 34.92 39.52 33.17 29.67 26.33 25.71 27.14 24.88 27.88 25.84 25.68 24.51 28.43 24.63 26.27 28.75 20.51 22.71 15.93 21.46 22.98 22.35 22.81 26.63 29.03 28.66 30.00 30.28 29.91 29.26 29.25 29.35 29.91 29.67 29.32 28.71 28.53 29.00 28.76 27.67
48.28 48.64 49.16 49.60 49.90 50.13 50.47 50.60 48.77 45.34 43.35 42.05 38.67 36.67 34.71 31.40 26.90 22.33 19.75 22.63 23.42 24.06 24.75 23.70 24.54 27.23 26.88 28.41 27.37 26.39 22.07 21.59 17.95 21.91 23.14 21.12 24.27 27.61 27.45 27.91 27.37 27.62 27.45 27.86 28.05 28.11 28.98 30.58 29.80 29.16 28.71 28.23 27.84 27.34
47.76 48.07 48.62 49.25 49.96 50.31 50.43 50.29 48.09 46.09 43.05 39.87 35.28 31.77 29.49 26.73 18.03 21.59 21.46 18.73 18.05 24.22 23.02 25.26 24.42 27.01 26.51 28.20 25.46 23.75 21.49 23.39 22.49 13.19 17.13 20.53 25.18 26.31 26.06 26.06 26.34 26.90 26.84 28.37 28.75 28.35 29.67 28.44 29.10 28.29 27.71 27.40 25.98 24.46
47.33 47.62 47.75 48.34 49.23 49.82 50.08 50.10 47.72 44.91 41.48 33.95 31.25 26.73 24.46 17.31 21.32 24.06 24.55 24.64 25.82 24.21 24.76 24.63 22.32 25.00 27.02 25.29 25.22 19.24 24.13 22.30 12.78 16.82 16.72 21.16 24.05 25.86 24.94 25.88 25.85 25.28 27.28 25.27 24.23 26.52 26.77 26.04 25.35 24.50 27.70 25.65 23.83 23.09
46.48 47.17 47.08 46.99 48.46 49.26 49.52 49.52 46.78 43.76 37.04 31.80 30.82 26.40 23.89 25.72 20.71 19.90 20.88 24.80 24.94 28.35 26.81 24.17 22.84 24.78 22.36 22.51 24.04 20.56 16.34 14.26 16.97 18.12 21.02 22.84 24.93 24.67 25.41 25.76 26.14 26.79 27.36 27.16 25.98 23.33 21.19 21.43 21.68 21.18 23.44 24.50 23.84 23.58
46.16 46.55 44.71 46.63 47.57 48.78 48.96 48.80 44.89 39.87 33.51 30.88 30.07 21.99 21.90 17.08 16.88 17.60 20.05 26.67 27.86 29.07 27.68 26.99 21.66 18.38 20.81 21.33 17.97 17.92 15.76 16.44 21.05 20.87 24.11 20.64 23.51 24.50 25.38 25.90 26.38 28.03 28.32 28.19 27.07 26.27 26.43 24.32 23.46 23.30 22.92 22.79 22.76 22.58
45.76 41.21 46.53 47.98 48.20 47.97 48.15 40.13 34.74 31.65 31.34 30.02 28.79 28.05 23.14 19.28 21.10 23.26 26.70 28.38 30.17 29.10 26.95 25.97 22.32 23.10 21.41 12.76 14.95 21.03 20.11 25.67 25.26 23.89 21.46 22.97 25.05 25.98 25.53 25.96 26.79 27.93 27.65 27.73 26.66 26.16 25.87 25.33 22.34 19.95 20.98 21.84 21.60 22.03
41.06 42.25 45.46 47.01 46.57 45.05 37.27 35.40 32.88 31.39 28.56 30.76 30.39 29.03 26.19 27.01 26.39 27.00 28.21 29.18 29.80 28.32 26.86 25.41 24.57 20.73 18.84 14.24 17.77 25.12 27.29 27.49 21.58 23.75 23.48 24.41 25.00 25.61 26.34 26.90 27.17 27.63 27.89 25.56 26.01 24.40 21.57 20.52 21.71 23.45 23.34 21.79 20.19 18.82
41.22 41.60 44.95 46.50 44.59 37.59 33.18 31.67 31.51 28.37 28.54 31.00 31.99 26.84 25.59 26.87 28.91 30.67 29.46 30.85 29.78 29.51 26.92 24.14 23.22 17.36 20.28 23.10 26.99 29.61 28.67 26.14 26.23 25.22 25.32 26.05 26.27 26.54 26.27 25.81 25.97 23.72 25.61 24.40 24.15 25.68 25.30 24.08 24.89 24.73 23.60 21.58 21.93 21.49
44.80 45.27 45.46 45.97 43.15 34.59 31.61 30.93 31.40 29.91 29.60 29.81 32.01 27.90 25.11 27.68 29.15 29.55 29.64 30.51 29.80 29.31 26.99 25.84 23.15 23.77 24.59 28.75 30.11 31.24 30.26 28.47 26.77 25.68 27.00 27.31 26.36 25.36 26.79 27.84 26.57 26.78 25.31 22.05 23.17 27.81 22.80 23.08 23.14 23.36 22.19 22.23 21.76 20.88
42.20 41.27 43.74 43.25 36.19 35.38 33.29 30.69 28.75 30.23 31.58 30.22 29.37 30.30 27.57 22.04 22.53 27.48 28.63 31.02 29.35 27.79 25.62 29.26 30.71 31.94 30.93 30.62 31.70 31.79 31.39 28.62 28.43 30.38 30.10 27.14 28.74 27.54 27.61 26.63 25.73 24.63 23.50 24.61 24.82 25.65 29.67 25.64 27.31 24.33 23.31 24.46 24.04 23.01
37.46 42.86 37.87 37.48 33.08 32.51 30.72 32.75 31.26 31.70 30.57 29.62 28.86 28.94 22.00 21.00 22.03 25.15 29.42 28.41 27.77 31.42 31.94 33.85 34.53 33.59 32.87 33.69 35.31 33.93 33.21 30.23 29.97 28.94 33.09 31.64 28.61 25.52 24.82 26.89 23.49 24.22 24.59 26.09 26.35 26.28 26.39 27.40 24.91 22.95 22.76 24.15 25.47 20.23
41.52 38.11 33.18 33.27 31.68 30.40 24.65 32.16 28.79 28.43 25.97 26.65 28.60 27.92 25.85 20.88 20.44 28.42 26.55 27.18 30.02 34.58 35.63 35.83 35.59 33.73 34.49 35.96 35.63 34.81 30.96 30.35 31.49 31.60 30.63 30.59 31.69 31.27 30.91 29.41 26.57 26.48 26.36 27.10 25.16 26.21 26.18 27.65 27.79 23.80 22.19 23.61 20.37 19.18
39.76 33.22 30.14 29.35 30.64 22.97 28.45 25.70 27.68 26.26 26.27 25.06 24.02 20.37 19.25 15.60 25.57 25.17 23.67 23.51 31.67 31.40 33.35 34.36 35.36 34.46 34.96 34.34 33.60 35.07 35.90 32.79 31.86 33.27 32.88 27.95 27.01 28.95 29.78 29.74 30.09 27.88 28.37 24.63 23.06 24.50 23.33 23.72 26.42 25.05 21.26 19.99 19.62 18.83
29.71 28.43 28.95 26.55 24.27 23.43 21.24 20.21 15.94 20.68 17.06 12.15 19.38 18.36 17.60 21.37 21.57 21.96 16.91 21.13 31.17 30.84 32.61 33.72 34.04 34.54 33.84 34.73 35.54 35.46 33.99 34.57 33.12 32.15 31.86 30.05 31.07 30.45 28.25 27.35 27.98 26.45 24.03 23.08 22.03 22.00 19.12 21.12 23.42 21.71 20.38 19.61 18.13 17.19
25.03 28.41 26.02 22.98 19.49 21.65 19.13 14.91 17.72 13.60 13.71 11.09 18.57 17.61 18.76 21.54 20.27 19.45 18.53 26.97 31.10 31.88 32.72 33.05 33.05 32.63 33.02 34.16 33.79 34.28 35.19 31.53 31.21 30.97 32.95 30.86 30.19 30.21 29.91 25.96 24.59 23.60 23.72 26.11 23.13 21.36 20.04 20.78 20.83 19.23 18.97 20.64 23.82 16.38
24.69 24.41 26.59 27.69 26.46 22.15 18.60 15.49 16.34 13.26 12.26 16.52 12.99 16.50 20.04 18.75 17.36 20.10 20.93 22.74 29.65 30.72 33.33 35.71 34.81 33.73 33.82 34.69 34.87 34.85 24.10 29.61 30.50 29.60 24.62 27.38 30.07 30.78 31.00 26.71 25.06 24.63 21.76 23.18 23.09 21.99 21.33 20.35 20.41 19.52 18.34 17.81 20.42 16.78
23.04 20.95 20.66 23.13 21.77 17.53 12.98 11.22 12.37 12.95 14.43 16.34 17.53 12.21 15.07 17.67 20.65 24.05 23.97 21.71 21.23 21.74 29.01 31.31 33.74 35.11 35.00 34.94 31.58 25.38 18.31 15.56 12.92 15.65 18.97 21.84 20.71 21.68 21.54 19.26 18.40 28.39 21.47 21.90 22.96 22.03 21.52 21.35 20.11 18.64 17.04 17.68 16.59 15.46
25.56 26.00 22.98 22.44 18.69 20.24 20.49 15.82 15.12 17.45 20.45 18.26 17.16 15.49 16.81 19.79 19.46 19.16 22.24 17.81 14.27 16.73 19.72 24.21 28.48 22.96 21.27 20.31 19.44 19.68 20.00 22.51 22.75 20.81 22.08 26.39 21.24 24.06 20.62 21.13 21.41 21.37 20.50 21.75 28.42 23.27 18.88 19.44 19.24 18.38 17.60 17.83 15.67 14.26
23.25 23.81 18.68 14.03 18.63 19.94 19.88 19.65 14.25 13.80 18.39 21.68 21.92 19.44 19.92 22.34 19.66 15.78 17.13 14.51 18.12 25.47 27.95 24.35 24.00 24.81 26.75 25.33 25.87 19.98 17.50 22.96 28.42 28.61 26.27 27.25 28.99 20.81 16.80 17.47 17.88 19.35 18.21 20.35 21.88 20.93 27.97 23.07 24.21 17.89 14.99 14.50 14.31 13.13
24.34 27.34 20.62 15.78 14.35 13.96 14.64 9.33 9.02 22.08 13.37 11.56 11.59 18.77 26.23 27.10 21.47 18.88 22.34 28.00 30.07 19.18 16.33 22.57 20.97 24.74 26.42 25.88 25.84 27.18 26.71 24.75 22.62 25.53 21.66 21.05 21.51 19.41 17.32 17.06 18.73 19.76 20.19 21.06 21.97 22.19 22.73 16.87 13.89 12.55 13.03 12.67 13.16 13.79
23.12 23.16 16.89 12.78 12.91 5.07 2.64 7.05 7.51 10.96 7.62 8.81 19.01 9.78 10.44 11.74 17.38 30.56 34.20 20.98 21.36 24.31 27.98 29.44 28.28 30.24 27.74 31.44 31.46 31.11 33.81 30.54 29.09 25.93 25.62 24.81 21.32 18.83 18.94 19.20 19.90 20.76 21.38 21.71 21.54 19.93 15.54 14.47 13.60 13.36 11.96 11.46 12.14 11.07
19.39 20.17 14.04 8.61 5.52 10.47 10.55 9.38 7.69 7.81 4.16 4.80 12.68 21.97 25.18 21.72 21.71 29.40 19.01 26.09 31.91 31.85 31.92 31.88 31.84 32.48 32.84 29.80 30.67 31.58 33.09 26.19 26.36 30.00 30.34 29.62 27.90 24.02 20.59 20.81 21.58 21.38 20.50 20.62 18.56 16.22 14.29 12.84 12.50 10.50 10.24 11.00 10.48 8.75

GFSWCAN_sfc_wetblb_102.txt.gz
Wetbulb
53.81 54.22 54.17 54.05 53.29 52.42 52.07 51.33 49.61 48.37 48.12 48.73 49.59 50.65 51.67 50.65 47.82 45.20 42.29 42.12 43.21 40.65 40.83 38.25 40.05 39.30 38.43 39.14 37.96 37.71 37.96 37.51 37.57 34.71 33.73 33.57 31.78 32.72 30.13 32.63 31.36 31.58 29.87 29.28 29.89 27.88 25.81 37.35 36.28 33.84 38.54 36.99 39.89 40.40
52.62 53.58 53.98 53.92 53.65 52.94 52.20 51.91 50.79 48.83 48.07 48.19 49.06 50.03 50.97 50.33 48.05 44.45 42.95 41.90 41.62 41.66 41.32 39.03 40.62 41.15 41.76 42.54 41.49 38.55 37.65 37.62 39.37 36.90 35.37 35.24 32.72 31.62 30.65 30.01 31.43 29.33 34.08 33.31 33.61 34.76 37.21 39.37 40.46 41.91 38.69 40.11 39.90 40.76
51.85 52.22 53.29 53.73 53.74 53.35 52.60 52.44 51.66 49.87 48.46 48.05 48.46 49.53 50.81 49.63 46.75 43.61 42.00 42.08 41.89 40.50 41.21 39.32 39.11 39.39 39.10 40.49 42.52 40.47 39.33 39.47 38.46 39.47 38.50 36.71 32.99 35.24 31.70 30.82 31.89 34.14 34.64 33.35 34.08 37.96 36.83 38.59 40.89 40.57 40.87 40.41 41.09 41.12
51.23 51.81 52.62 53.27 53.37 53.30 52.77 52.45 52.21 50.82 48.97 48.19 48.16 48.92 50.01 49.38 46.31 42.78 41.65 41.13 42.67 40.30 37.21 39.12 38.88 38.25 39.08 39.62 39.69 40.42 40.06 39.01 39.60 39.84 38.59 36.95 34.33 37.14 34.03 34.19 32.47 37.41 33.82 34.10 33.80 36.98 38.50 39.28 39.00 39.99 39.86 39.24 39.53 40.24
50.68 51.47 52.20 52.82 53.05 53.01 52.71 52.33 52.12 51.36 49.64 48.40 47.92 48.19 49.20 49.25 47.77 43.06 40.60 39.91 40.69 41.42 37.24 38.11 38.34 37.01 37.70 38.73 38.51 38.66 39.14 38.87 39.14 37.34 36.31 35.03 37.20 34.79 35.17 31.95 31.98 36.49 35.17 33.13 33.75 39.01 38.82 39.20 38.05 38.31 38.19 38.40 38.56 39.31
49.96 50.72 51.54 52.21 52.53 52.68 52.65 52.16 51.88 51.31 49.99 48.85 47.67 47.82 48.56 48.46 47.19 42.31 40.03 40.82 39.73 41.32 38.48 34.50 37.53 35.47 36.10 37.31 37.10 36.95 37.89 37.79 38.48 37.81 37.33 37.42 35.40 35.73 33.57 32.45 37.83 37.10 38.61 40.48 38.50 38.45 38.29 38.34 37.97 38.52 38.28 39.22 38.77 38.95
49.89 50.16 50.63 51.40 51.98 52.27 52.38 52.16 51.69 51.26 50.22 48.85 47.71 47.65 48.27 47.10 43.21 40.53 38.86 40.05 40.69 40.89 36.72 34.35 34.90 35.17 36.39 35.98 35.57 35.96 36.38 37.36 37.50 36.94 34.44 35.27 34.95 35.72 34.10 32.03 38.79 38.60 38.28 38.62 38.59 36.70 36.27 37.21 37.66 37.92 37.60 37.99 38.62 38.14
48.13 48.35 48.96 49.67 50.87 51.62 51.85 51.93 51.60 51.19 50.17 48.65 47.56 47.63 48.61 47.02 43.90 40.62 40.76 43.32 40.51 37.79 35.97 32.41 32.47 31.01 35.51 33.50 33.14 34.75 34.58 35.00 34.90 35.71 33.52 32.98 33.20 33.70 30.54 36.89 37.99 37.04 36.98 36.47 36.99 36.81 37.83 36.16 35.80 36.50 36.25 35.94 35.90 35.74
48.21 48.46 47.95 48.62 48.68 49.16 50.20 51.33 51.47 50.84 49.56 47.98 47.45 46.80 43.10 41.34 38.58 38.55 42.49 40.29 38.19 37.18 34.32 30.76 30.73 31.54 33.65 32.54 33.83 32.74 34.15 31.74 34.04 32.34 32.23 32.41 32.43 27.27 34.04 36.43 36.84 36.74 35.73 36.79 35.61 35.13 35.13 33.58 34.55 34.74 34.72 35.01 35.22 35.50
48.02 48.24 48.68 48.68 49.17 49.42 49.75 50.57 51.34 50.45 48.39 47.88 44.23 39.92 37.05 38.43 41.20 42.58 37.18 35.11 34.86 35.02 32.73 29.90 31.02 29.72 33.06 31.53 32.17 32.18 31.75 31.82 29.55 32.19 31.89 28.93 30.12 35.29 36.61 37.01 36.86 37.54 36.71 35.52 33.25 32.88 32.83 32.13 33.08 33.88 33.50 35.58 35.87 35.68
47.83 47.97 48.24 48.73 48.92 49.46 49.75 50.49 50.97 48.63 47.51 42.60 38.54 36.65 38.25 40.11 37.16 34.02 32.40 31.04 31.40 29.82 31.99 31.04 30.64 30.23 32.70 31.57 32.21 33.32 30.57 30.19 27.26 29.40 28.51 28.79 27.68 31.88 34.79 33.98 35.24 35.77 36.83 36.21 36.49 36.73 35.87 35.19 34.34 33.94 33.24 33.93 34.26 34.56
47.35 47.54 47.85 48.10 48.74 49.46 50.06 50.44 50.11 45.17 43.23 42.39 39.42 38.31 37.27 34.43 31.79 29.71 28.50 27.68 27.18 28.82 29.69 28.42 28.97 31.78 30.93 32.58 32.84 29.71 29.07 26.99 24.27 27.87 25.59 23.80 30.28 33.18 32.86 32.79 33.30 33.20 33.01 32.84 32.59 32.28 32.65 33.06 33.76 34.03 33.69 33.96 33.78 33.64
46.85 47.19 47.51 47.76 48.31 49.02 49.74 50.26 49.35 45.90 44.15 41.58 36.78 33.60 33.38 32.37 24.97 25.66 23.36 26.24 25.61 29.34 27.94 28.41 28.75 30.92 29.74 31.36 29.94 29.34 25.87 25.04 27.01 23.98 23.99 28.45 31.92 31.37 31.22 30.97 31.09 31.26 31.51 32.29 32.42 32.27 32.11 32.39 33.80 33.21 33.04 33.01 33.31 32.03
46.39 46.73 47.08 47.15 47.72 47.69 48.73 49.37 48.89 45.75 41.50 33.42 31.68 28.40 28.59 26.26 25.63 27.74 29.02 31.60 32.02 30.01 28.22 29.76 28.28 29.36 30.02 29.38 28.90 26.01 28.28 26.17 22.84 20.21 23.65 31.14 31.31 32.95 31.78 30.67 30.14 31.53 31.65 30.64 31.32 32.22 31.90 31.58 31.60 31.66 31.91 32.65 31.69 30.54
45.88 46.22 46.29 46.25 47.05 47.29 47.54 48.53 47.39 44.41 37.17 31.78 31.46 28.56 28.54 30.40 28.44 28.29 28.70 28.05 28.26 30.98 30.45 29.49 28.75 29.35 28.04 27.31 26.55 24.90 21.21 20.69 23.35 25.74 31.22 33.65 32.13 30.76 29.89 29.95 30.84 31.14 31.74 31.98 31.05 30.05 30.20 30.17 29.66 30.74 30.41 30.67 29.75 29.33
45.13 45.44 44.05 45.79 46.34 46.81 46.83 47.83 46.04 40.15 34.33 32.39 30.70 30.69 27.67 26.71 26.95 24.88 25.38 29.33 30.17 31.42 30.88 31.45 27.38 25.82 27.11 26.56 22.36 22.41 22.10 21.57 27.91 29.26 32.90 30.57 30.32 30.00 30.55 30.76 30.56 31.20 32.31 32.38 32.22 31.40 31.72 30.13 29.65 30.40 29.88 29.10 28.71 28.09
44.20 40.90 44.94 45.98 46.70 46.69 46.94 40.95 38.10 32.06 31.36 30.19 29.85 32.30 30.19 28.04 31.38 28.75 28.72 30.69 32.03 31.19 30.20 29.52 25.50 26.68 24.86 23.38 21.62 25.31 23.86 29.27 32.31 31.82 29.53 29.08 30.90 31.27 31.24 30.24 29.78 30.04 31.41 31.80 31.62 31.64 30.42 29.78 28.37 27.15 27.38 28.45 27.36 26.80
40.11 41.91 44.27 45.38 45.00 42.39 38.84 36.93 33.92 31.55 29.25 31.09 30.37 32.15 30.72 31.61 30.23 29.38 29.82 30.91 31.48 30.75 29.98 28.64 27.96 24.19 23.70 22.39 23.90 28.50 29.56 32.04 31.57 30.54 29.80 29.92 29.59 30.14 29.52 30.96 30.34 30.15 30.63 31.31 30.37 30.59 29.18 27.75 27.18 28.00 28.25 28.03 25.92 25.08
41.13 41.60 43.43 44.80 43.68 39.01 33.85 32.80 32.69 29.25 30.21 31.66 32.99 30.47 30.97 30.59 30.75 32.05 30.96 32.23 32.36 32.55 29.85 26.89 25.80 25.05 26.60 28.00 29.48 32.70 32.96 31.93 34.36 32.22 30.40 30.20 30.21 30.01 29.47 29.25 29.67 29.95 29.65 30.19 29.71 30.12 31.28 30.16 29.97 29.32 28.22 26.34 26.59 26.45
43.76 43.91 44.35 44.31 43.11 35.41 32.19 31.92 32.50 29.93 28.32 31.65 33.04 30.80 31.14 30.57 30.63 30.69 30.68 31.45 30.29 31.21 28.05 26.01 27.30 31.02 28.59 31.60 31.19 32.51 33.61 34.30 32.34 32.40 33.26 35.19 32.23 29.41 29.45 30.36 30.63 31.44 30.81 30.44 29.63 31.00 29.11 28.85 27.63 27.93 27.35 26.87 25.82 25.47
41.51 41.20 42.81 42.34 37.48 36.23 33.42 32.17 28.65 28.86 31.18 31.22 32.81 31.44 31.59 29.29 28.92 28.56 29.60 31.59 30.29 29.31 28.89 31.43 33.57 36.16 36.52 34.17 33.72 32.69 33.32 32.85 32.05 34.89 37.94 38.11 38.95 31.54 32.79 31.85 31.29 30.85 29.54 30.31 29.54 29.70 30.99 29.70 30.99 28.95 27.33 28.01 27.35 27.69
37.91 41.88 37.34 38.17 32.96 33.25 31.54 33.48 31.92 31.86 30.96 30.12 30.27 31.49 29.38 26.12 26.04 27.91 31.49 28.63 29.24 32.28 32.38 35.07 36.41 36.68 35.88 35.55 36.03 36.29 36.44 35.75 33.51 33.81 36.31 36.26 33.48 30.44 29.50 30.84 30.81 30.59 30.33 31.06 31.20 30.11 31.37 30.62 30.34 28.41 27.08 27.14 28.73 25.76
40.18 38.38 33.47 33.29 31.17 31.27 28.71 32.90 29.55 29.93 26.98 27.29 29.92 27.90 28.15 24.37 24.33 29.81 27.67 29.54 31.42 34.85 36.01 36.14 36.64 37.07 36.25 37.46 36.92 36.36 36.15 35.83 35.97 36.03 35.39 33.97 34.12 33.91 33.50 34.07 35.40 32.09 32.07 32.36 31.64 31.36 30.91 31.15 28.65 28.62 26.35 27.09 25.41 23.47
39.51 33.13 30.55 29.31 29.51 26.40 29.89 27.15 29.07 28.12 27.94 25.87 26.01 23.57 23.18 24.95 25.79 26.28 25.94 26.37 31.28 34.90 34.63 34.58 35.56 34.77 35.74 35.32 34.87 35.78 36.82 36.83 35.71 35.33 36.46 36.27 35.04 33.69 32.97 33.07 33.93 33.50 32.31 33.13 30.54 29.61 29.00 27.09 28.78 28.53 24.61 24.59 23.55 22.97
28.15 27.01 28.59 26.24 28.82 25.78 22.42 23.06 24.23 23.85 22.23 19.27 20.60 21.11 21.12 23.42 23.15 23.44 21.37 24.24 30.96 33.10 33.81 34.65 34.47 34.65 33.86 34.77 35.97 36.63 36.98 37.09 36.09 35.31 37.03 35.88 34.62 34.42 33.90 33.58 32.50 32.68 31.18 29.95 28.77 27.29 27.44 26.23 26.99 26.58 24.59 24.11 23.15 22.77
23.29 25.22 24.77 25.29 21.89 20.22 20.94 21.02 20.31 17.58 15.30 18.66 20.03 19.58 22.14 22.76 20.90 19.65 21.50 28.64 32.21 33.21 33.12 32.81 33.28 33.00 33.33 34.52 34.19 34.97 36.40 36.62 36.07 35.07 36.07 36.19 33.39 32.91 32.54 31.87 31.59 30.40 28.08 30.36 30.49 27.42 26.71 25.27 25.11 24.37 23.86 24.23 26.26 22.58
20.26 20.34 27.77 28.62 25.58 22.24 19.80 17.52 17.92 15.71 13.46 15.53 15.31 19.32 20.96 19.55 17.90 22.09 25.22 25.98 29.81 31.90 33.23 34.87 34.84 34.16 33.94 34.58 35.40 36.23 36.25 33.52 34.44 34.75 33.64 33.02 34.67 34.31 33.65 32.39 31.25 31.81 27.26 27.48 28.11 27.63 26.38 24.55 24.37 24.02 23.60 22.98 24.53 21.95
24.07 24.31 22.94 24.10 23.57 19.26 15.89 15.36 14.92 13.41 16.85 18.08 19.64 17.60 20.42 20.42 22.71 26.44 27.45 27.35 27.84 27.08 27.36 29.07 31.14 33.76 34.66 35.29 35.71 33.27 32.30 29.85 26.47 26.18 27.98 27.16 25.80 28.59 30.24 31.99 27.87 29.93 27.33 26.86 27.27 26.69 26.22 25.27 24.43 23.48 22.49 21.76 22.65 21.25
23.36 24.41 23.28 21.87 20.88 19.94 21.08 17.27 17.22 19.81 22.34 21.14 21.73 20.84 19.73 21.92 24.01 23.79 26.82 25.66 20.39 21.15 25.59 30.96 32.76 28.20 29.23 28.97 28.09 28.64 29.70 27.01 28.19 27.68 27.89 29.39 29.85 30.85 24.25 26.70 27.23 28.91 26.14 27.51 29.55 26.24 24.06 24.35 23.80 22.61 21.69 21.67 20.86 19.80
19.51 23.53 24.42 19.42 21.46 20.42 21.02 21.24 18.40 18.24 21.22 23.44 24.00 22.40 21.42 23.32 24.33 24.24 22.94 21.86 24.14 30.31 33.24 33.45 33.43 30.21 30.07 28.73 30.93 30.18 25.64 27.38 30.20 31.55 30.99 30.44 31.97 31.47 25.84 24.72 24.80 25.78 25.65 26.44 26.75 26.22 28.55 26.64 25.91 21.23 17.96 17.13 17.10 16.58
20.21 25.25 22.23 21.97 21.38 25.06 23.84 15.10 14.14 21.78 15.21 16.70 15.76 20.44 26.76 27.49 24.08 22.48 25.81 30.79 32.42 32.77 32.47 30.70 30.61 31.17 26.36 27.95 29.15 29.91 30.39 28.39 27.72 29.80 32.33 32.52 29.07 27.81 25.43 23.39 23.47 23.93 24.96 25.24 25.59 25.68 25.70 22.30 18.66 17.13 16.75 16.33 16.43 17.22
21.97 22.11 19.42 18.13 18.32 8.02 4.86 14.97 14.53 17.86 15.17 13.93 20.92 15.14 14.10 15.01 19.58 30.65 34.20 27.82 28.68 29.56 31.33 31.39 29.93 30.68 33.19 31.10 31.68 32.53 35.06 33.50 29.75 28.44 29.12 30.69 28.58 27.58 24.64 22.60 21.57 23.53 24.33 24.28 24.82 24.31 20.62 18.88 16.94 16.38 15.97 15.75 15.93 13.38
23.12 20.44 13.49 6.62 6.54 11.02 12.60 10.26 11.64 12.24 8.38 7.26 12.43 19.26 24.91 24.76 23.75 30.20 21.91 27.50 31.85 31.50 31.69 32.40 32.84 33.29 33.09 31.96 30.90 31.88 33.23 32.36 31.74 32.81 32.07 31.97 31.89 27.82 23.97 23.05 23.42 23.72 23.14 22.99 22.47 19.79 18.18 16.87 15.60 14.55 15.29 14.30 12.08 11.95

GFSWCAN_sfc_wetblb_105.txt.gz
Wetbulb
53.07 53.20 53.95 54.19 54.08 53.68 52.86 52.22 51.52 49.69 48.60 48.48 48.88 50.00 51.48 51.21 49.28 46.58 46.46 46.26 45.13 44.20 44.68 42.26 43.57 42.13 41.85 42.11 38.85 41.45 40.59 40.36 40.42 36.14 35.51 36.13 33.99 35.92 32.81 36.19 34.34 33.62 31.85 31.07 32.57 30.17 26.40 40.85 38.51 34.84 39.74 40.35 42.24 42.67
52.25 52.22 52.78 53.44 53.96 53.91 53.36 52.80 52.33 50.95 48.71 48.26 48.17 49.15 50.87 51.00 48.94 46.06 45.67 45.40 44.38 43.17 44.38 43.45 45.47 46.25 45.63 45.70 43.84 42.68 41.12 40.62 42.44 38.52 38.48 37.98 34.78 36.29 34.46 31.04 36.75 31.19 36.40 35.48 35.86 35.99 39.92 41.61 42.53 43.86 41.89 41.56 42.26 42.76
51.34 51.12 51.92 52.42 53.42 53.75 53.72 53.25 52.71 51.90 50.01 48.33 48.20 48.35 49.86 50.42 48.67 45.20 44.34 44.98 44.96 42.82 43.86 41.52 41.45 43.94 43.36 43.39 47.32 41.65 43.18 43.26 41.71 43.06 41.12 39.16 34.30 38.34 32.88 34.09 35.88 37.71 39.79 34.68 35.62 39.30 40.47 41.40 42.51 43.55 43.62 42.34 43.26 43.55
50.57 50.93 51.38 52.15 52.73 53.28 53.43 53.37 52.79 52.38 51.08 49.16 48.31 47.91 48.83 49.83 49.08 45.45 45.61 45.03 44.30 43.01 38.10 41.36 41.89 40.55 42.53 42.79 43.17 44.69 43.47 42.48 43.41 43.01 40.55 38.66 35.76 40.13 35.94 37.33 35.61 39.00 37.15 35.65 35.95 39.02 40.25 41.56 42.16 42.51 42.24 42.36 41.18 42.20
48.78 49.81 50.75 51.46 52.16 52.67 52.96 53.09 52.76 52.33 51.83 50.20 48.49 47.57 47.79 48.84 48.81 46.96 46.88 45.34 44.15 41.77 37.79 39.23 42.31 40.47 40.52 41.22 40.69 41.54 41.83 41.91 41.35 39.25 38.31 36.56 40.03 37.79 38.82 37.38 34.33 39.80 36.87 34.43 35.13 40.51 40.67 40.86 40.93 41.03 40.42 40.68 41.27 40.76
49.15 49.65 50.38 50.91 51.48 51.99 52.37 52.53 52.63 52.07 51.62 50.41 48.83 47.56 47.81 48.25 46.49 45.92 43.06 43.99 43.32 44.40 39.13 35.46 39.78 37.43 38.17 39.49 39.36 39.27 40.67 40.98 41.32 39.84 39.12 40.63 40.47 38.49 34.55 34.07 40.68 41.47 42.37 42.39 39.90 40.52 40.91 41.54 40.45 40.98 39.62 40.98 41.41 40.73
48.83 48.62 48.52 49.30 50.10 51.22 51.75 51.98 52.21 52.10 51.60 50.56 48.86 47.62 47.77 48.35 46.51 42.84 42.02 42.58 42.40 44.32 38.55 36.27 37.42 36.68 38.09 37.97 38.21 37.93 39.00 39.62 39.52 39.16 37.81 38.64 37.87 37.42 35.96 32.51 40.97 42.40 42.67 42.22 42.57 41.04 37.30 38.93 38.38 40.16 40.13 40.29 40.33 40.38
47.98 48.22 48.27 48.44 48.70 49.03 49.48 50.34 51.18 51.84 51.55 50.55 48.51 47.46 47.86 48.17 46.82 43.86 44.80 43.92 43.41 41.43 38.65 34.78 36.08 33.91 37.69 35.79 35.02 37.96 36.57 37.31 37.77 37.48 37.16 35.16 36.70 36.20 32.52 37.83 40.70 42.60 41.83 41.13 40.99 41.06 40.05 40.61 38.72 38.20 39.15 38.78 37.55 37.44
47.69 47.86 48.09 48.72 48.07 48.69 49.27 49.07 49.83 50.86 51.26 49.43 47.68 47.19 44.85 43.79 41.39 41.69 43.05 42.63 42.22 40.12 37.62 35.39 32.90 34.35 35.75 35.39 36.38 34.93 36.53 32.66 37.22 33.11 34.41 35.10 34.22 30.55 35.24 37.40 39.36 41.20 39.83 39.57 38.69 39.86 38.74 36.87 37.29 37.91 37.65 37.16 36.28 37.96
47.34 47.60 47.80 48.31 48.73 49.04 49.33 49.67 50.00 50.51 49.45 47.68 44.85 40.37 37.23 40.64 42.05 42.82 39.10 37.17 37.02 38.22 36.27 33.00 36.81 32.99 35.48 34.51 34.23 35.03 34.79 33.08 30.35 33.49 34.46 30.21 30.41 37.22 39.76 40.36 41.08 41.62 40.88 39.95 35.52 33.86 34.87 34.39 35.34 36.43 35.92 37.01 37.27 37.78
46.70 47.20 47.54 47.99 48.20 48.52 49.11 49.77 50.16 48.42 47.15 43.28 38.92 36.97 40.38 40.74 38.91 36.87 34.51 33.14 35.18 32.04 35.59 34.95 35.04 34.45 35.57 33.47 34.17 35.64 34.08 33.51 28.51 31.60 29.54 30.78 30.58 35.23 38.14 38.10 39.50 40.94 39.96 39.33 39.52 39.46 38.69 37.86 36.80 36.23 36.17 36.06 36.34 36.12
46.42 46.99 47.20 47.50 47.79 48.14 48.75 49.40 48.39 46.19 43.59 42.42 39.59 39.23 38.44 36.04 34.83 31.30 31.74 31.62 29.87 30.77 35.14 32.57 32.80 34.48 34.68 35.86 34.38 32.89 31.45 29.87 26.00 31.16 27.71 25.34 33.11 36.81 36.77 35.66 36.05 36.62 35.92 36.40 37.29 36.25 35.76 34.86 35.60 35.48 35.64 35.72 35.30 35.63
46.14 46.67 46.49 46.56 47.07 47.21 48.21 48.65 49.28 46.18 44.70 42.12 37.25 33.58 34.12 34.36 28.11 28.03 25.12 28.68 29.83 33.40 32.20 31.23 31.24 34.48 32.90 34.10 33.75 31.91 28.20 26.89 30.31 26.77 26.27 30.75 36.03 36.29 35.31 34.30 34.11 33.24 33.44 33.76 34.16 34.82 34.48 34.15 34.77 34.58 34.69 34.91 35.46 35.11
45.58 46.16 46.19 46.42 46.60 46.54 47.47 47.84 48.18 45.93 41.60 34.42 31.94 29.61 30.85 30.34 29.44 31.71 31.93 35.50 35.90 34.25 32.22 33.66 32.46 32.49 33.64 31.27 32.66 28.12 31.47 29.14 25.83 22.85 26.15 35.61 36.93 36.17 36.30 34.78 32.93 33.80 33.23 32.12 33.04 34.03 33.20 32.59 33.20 33.64 34.34 34.93 34.24 33.65
45.15 45.56 45.86 45.72 46.28 46.48 46.81 47.47 47.63 44.73 38.36 32.63 32.18 29.61 30.25 34.15 34.48 34.03 34.15 32.23 31.48 34.43 32.79 31.72 32.21 32.17 31.26 30.03 29.73 28.88 24.72 23.34 27.02 28.50 35.59 38.37 34.73 34.32 33.36 32.24 32.98 33.19 34.23 33.94 34.22 32.37 31.60 32.06 31.54 32.70 33.25 33.29 33.39 32.54
44.56 44.64 43.68 45.08 45.60 45.93 46.14 46.67 46.10 41.47 34.81 32.98 31.58 30.18 31.71 31.48 33.76 31.01 31.31 32.31 33.63 33.67 33.92 33.70 30.81 28.47 28.78 29.19 26.13 25.07 25.85 25.21 32.69 34.50 37.24 35.54 34.38 34.02 33.36 32.57 32.64 33.50 33.22 32.98 33.38 33.59 33.70 33.16 32.67 33.23 33.19 31.81 31.87 31.12
43.96 40.07 43.98 44.67 45.58 45.68 46.12 42.99 38.63 33.97 33.00 30.92 31.28 35.01 35.87 36.25 35.38 37.19 35.14 34.65 35.14 32.93 31.55 31.92 27.85 27.17 27.87 26.27 24.98 29.78 27.90 33.97 37.30 37.72 36.38 34.26 33.47 34.35 33.85 32.84 32.00 31.19 32.35 33.31 32.96 32.91 32.63 32.86 31.35 30.00 29.94 32.21 30.41 29.49
40.68 43.21 44.29 44.32 44.56 43.12 41.53 39.47 35.08 32.65 30.04 32.56 30.77 34.39 33.82 36.23 36.56 37.10 34.37 34.02 33.70 33.45 33.21 31.67 32.24 26.34 26.50 26.03 28.66 32.46 33.11 34.51 35.02 34.73 34.42 34.44 33.89 33.55 32.12 32.27 31.78 31.77 32.00 32.38 32.61 32.76 31.75 30.94 30.17 30.75 31.52 31.74 29.37 28.65
42.82 43.96 43.87 43.95 43.28 39.85 34.23 33.27 33.96 31.47 32.31 34.71 34.34 35.13 34.95 35.12 36.44 37.18 36.58 34.71 35.95 35.89 33.72 31.32 30.06 27.37 29.39 33.52 34.17 35.93 36.04 35.44 35.71 37.87 35.62 34.83 34.13 33.68 32.97 31.71 31.29 30.61 30.59 31.32 31.79 32.03 32.47 32.16 32.34 31.93 31.35 29.10 28.24 28.29
43.83 43.80 43.88 43.97 42.88 36.47 32.63 32.67 33.38 31.46 31.00 33.43 34.62 34.41 34.27 35.22 36.27 35.46 34.67 33.21 32.68 31.43 30.51 28.85 29.88 33.82 34.29 37.71 38.08 37.31 37.84 38.35 37.73 35.43 35.99 37.65 35.71 33.66 32.95 32.76 32.93 33.74 32.72 32.47 31.88 33.42 31.70 31.04 31.05 30.59 30.77 30.19 28.41 28.18
42.08 42.24 42.78 42.37 39.48 36.41 33.18 32.63 31.19 31.40 33.27 31.36 35.08 33.48 33.18 32.60 32.05 31.62 31.48 33.45 30.21 30.08 30.12 33.04 34.20 37.03 39.08 39.82 40.92 39.86 36.83 35.98 35.77 35.77 36.26 36.27 38.45 34.71 35.74 36.43 34.59 34.76 33.86 34.39 35.48 34.89 33.56 31.13 33.86 31.03 29.93 30.31 30.12 29.71
40.10 42.27 39.64 39.23 32.78 33.03 31.97 34.32 32.67 33.45 30.77 32.03 31.65 32.35 31.58 29.51 30.17 30.86 33.11 29.86 29.38 32.62 33.96 35.02 36.43 37.56 37.56 37.42 38.48 39.42 38.99 37.73 37.59 37.26 38.00 36.98 34.77 35.29 35.64 36.74 33.87 33.59 33.63 33.74 33.27 32.65 33.42 33.57 32.73 31.29 30.05 29.84 30.73 28.18
40.57 39.39 33.74 32.96 30.86 30.03 28.49 34.46 30.07 31.51 27.64 29.06 31.09 29.66 30.03 30.08 30.56 32.80 29.16 31.11 32.83 35.73 36.22 36.19 36.77 37.56 37.05 38.12 37.78 37.79 37.94 37.29 36.90 37.12 37.45 37.72 38.02 37.83 36.58 36.23 36.01 34.54 34.04 34.49 35.25 34.53 33.95 35.59 31.75 30.22 28.75 29.22 27.40 26.44
39.86 32.63 30.94 29.75 29.05 25.56 31.20 27.73 30.66 29.88 30.01 28.18 27.52 25.44 28.10 29.30 28.57 27.14 27.31 30.73 33.53 35.29 35.18 35.27 36.14 35.50 36.15 35.81 35.48 36.36 37.34 38.20 37.33 37.21 37.71 36.84 36.01 36.53 37.77 37.44 36.88 35.79 35.72 35.69 35.15 34.62 33.50 30.80 31.24 29.36 27.19 26.97 26.08 25.26
29.34 28.48 29.35 26.00 28.64 25.93 24.35 25.32 26.30 27.29 24.28 25.72 25.61 26.01 25.29 26.53 24.04 25.20 25.32 29.55 32.13 33.39 34.63 35.77 35.97 35.54 34.40 35.23 36.37 37.00 38.15 38.07 36.68 35.74 37.58 37.88 37.16 36.96 36.03 36.02 36.92 37.27 35.28 33.51 32.11 32.12 31.53 30.15 29.11 28.41 27.08 26.66 25.54 25.10
23.73 26.56 25.70 24.33 24.99 24.35 23.95 21.03 22.97 23.30 24.95 23.21 24.41 27.43 25.49 25.09 23.75 23.42 27.40 31.06 32.51 34.04 35.01 35.23 34.78 34.42 34.61 35.54 34.94 35.46 36.70 37.31 37.46 35.72 36.87 37.77 37.37 36.13 34.88 34.30 34.22 34.90 33.35 33.60 32.89 31.97 31.07 29.29 28.17 27.90 26.87 27.12 28.89 25.57
21.55 23.84 28.05 31.02 28.93 26.70 24.43 22.75 23.25 22.86 20.52 20.56 24.75 21.81 22.57 20.10 21.97 26.79 32.24 33.28 33.71 35.69 36.58 36.94 36.09 35.34 34.95 35.56 36.47 37.11 37.72 37.72 35.78 36.73 37.43 34.04 35.53 37.09 36.34 34.38 33.53 34.79 32.27 31.65 31.24 31.15 30.50 28.47 27.49 27.19 27.03 26.42 27.10 25.82
26.73 26.63 21.65 25.22 25.09 26.17 23.16 22.67 22.01 20.90 22.20 24.43 23.17 20.49 21.68 23.11 24.63 31.53 32.59 34.79 34.54 35.21 34.41 33.76 34.27 35.20 35.32 35.71 36.21 35.93 35.70 34.55 33.34 31.48 31.65 32.04 31.76 32.45 33.01 34.77 35.71 33.70 32.27 30.57 30.08 30.12 29.73 28.98 27.62 26.97 26.14 25.02 25.47 25.44
25.61 27.84 27.29 22.00 22.04 22.45 23.34 23.83 24.62 25.46 26.64 24.08 23.20 23.94 24.71 28.32 32.80 33.54 33.83 32.27 32.90 30.79 29.84 31.28 33.34 32.23 31.50 32.37 33.11 34.01 34.23 33.07 30.56 29.57 30.55 31.75 32.93 34.52 32.30 31.74 32.48 31.93 31.76 30.13 31.18 29.15 27.29 27.77 27.47 26.58 25.84 25.27 24.90 23.54
23.90 28.60 24.22 22.06 20.22 20.87 25.17 25.59 26.26 29.37 28.31 28.60 29.63 28.92 27.56 30.17 32.71 33.46 32.55 32.07 30.12 30.30 32.15 33.58 34.40 33.26 32.90 32.83 32.94 33.33 33.35 32.06 31.74 31.70 31.55 32.19 34.75 35.59 32.59 29.89 29.50 30.46 29.99 29.71 29.15 28.04 29.73 28.29 27.00 23.42 21.43 20.69 20.50 19.81
27.99 26.24 24.32 23.98 22.48 25.70 28.02 27.30 22.36 24.00 23.37 23.99 25.02 25.23 27.38 30.86 32.96 33.89 32.57 33.37 33.50 33.41 32.89 32.39 32.81 33.43 32.69 32.30 31.76 31.03 30.68 32.87 30.94 31.36 32.83 34.90 34.98 33.69 32.79 30.60 29.17 28.83 29.05 28.89 27.77 27.28 27.28 25.13 21.88 20.28 19.42 18.84 18.55 19.05
23.70 23.41 22.74 20.42 22.45 26.18 17.05 18.83 22.34 21.71 25.89 24.26 23.55 24.30 24.43 24.05 24.79 30.52 34.64 33.02 31.75 31.05 32.73 32.80 31.55 32.19 34.05 34.08 34.10 34.06 34.83 33.66 33.06 30.29 30.02 31.70 33.04 33.28 30.52 27.73 26.89 27.62 27.70 27.32 27.17 27.15 25.56 22.34 20.63 19.77 19.00 17.76 18.06 16.80
23.32 23.88 23.28 23.01 23.45 21.11 20.48 18.67 17.98 19.70 19.98 20.00 23.01 25.87 27.25 26.94 24.88 30.29 28.40 32.77 34.08 33.40 33.19 33.75 34.14 34.05 33.87 33.24 33.46 33.94 34.51 33.22 33.79 35.14 34.54 33.77 33.82 33.33 28.75 26.47 26.57 26.48 26.49 26.59 26.09 25.45 22.09 20.79 19.70 18.93 18.33 17.55 15.80 15.20

GFSWCAN_sfc_wetblb_108.txt.gz
Wetbulb
53.62 52.89 52.96 53.02 53.61 53.95 53.69 52.85 52.09 51.17 49.87 49.28 49.08 49.22 50.96 50.71 48.86 45.68 44.73 44.97 42.19 40.10 40.48 40.80 41.77 38.57 38.80 37.98 34.21 37.42 36.88 37.05 35.88 31.18 29.34 29.45 27.38 29.64 26.55 30.11 28.88 27.91 25.42 25.06 26.07 23.70 21.39 36.35 34.45 30.21 34.10 34.16 36.90 36.96
53.36 52.66 52.42 52.41 52.61 53.47 53.91 53.53 52.71 52.15 50.44 49.00 48.99 48.89 49.93 50.72 48.92 48.43 43.46 44.45 43.27 39.61 40.94 41.94 42.44 42.09 41.24 40.44 39.70 39.07 37.36 37.38 37.71 32.87 31.73 30.92 28.34 29.70 28.28 23.87 31.24 26.25 31.30 28.71 30.17 29.46 35.48 37.39 36.42 38.23 37.62 37.21 36.92 36.57
52.58 51.44 51.23 51.67 52.30 52.73 53.40 53.71 53.33 52.49 51.56 49.58 48.72 48.77 48.72 50.08 49.38 46.99 43.80 43.24 43.13 39.97 40.64 39.45 38.86 40.60 41.95 41.11 42.95 37.62 39.19 40.19 38.83 38.33 35.64 33.55 29.56 31.37 26.07 27.43 28.34 31.40 34.48 29.42 31.36 33.22 36.26 36.46 38.79 39.25 39.52 37.93 39.06 39.35
50.32 50.28 50.68 51.31 52.08 52.40 52.90 53.25 53.42 52.93 52.33 50.90 49.23 48.54 47.99 48.83 49.28 47.24 44.53 44.05 42.21 40.81 35.23 37.64 40.87 37.91 39.66 40.80 40.74 40.96 39.96 40.65 40.28 38.65 35.46 33.53 30.86 35.09 29.97 31.41 30.58 33.26 31.89 30.86 30.73 35.06 36.58 38.46 38.41 37.91 38.42 38.76 37.91 37.61
48.58 48.84 49.86 50.67 51.13 51.78 52.23 52.51 52.75 53.02 52.50 51.80 50.08 48.22 47.68 48.08 48.90 46.65 46.39 44.25 42.84 39.12 34.83 36.49 40.08 37.31 38.72 39.10 38.75 38.96 38.99 38.10 36.88 34.90 33.27 32.30 34.10 33.55 33.34 31.94 32.07 35.30 34.52 31.32 31.18 34.78 34.59 34.25 34.93 35.97 35.77 35.26 37.07 36.65
48.58 48.82 49.50 49.51 49.97 50.83 51.45 51.86 52.17 52.38 52.31 51.56 50.08 48.27 47.55 47.99 47.52 44.13 40.52 41.58 41.70 41.66 35.91 32.05 37.14 34.85 35.81 36.76 36.90 36.61 37.61 37.38 36.90 36.63 34.49 36.10 36.93 34.24 28.47 27.08 34.62 36.84 39.17 39.03 35.77 36.87 36.14 34.78 34.92 35.02 34.98 36.46 37.43 37.07
47.98 48.37 47.05 48.02 48.53 49.22 49.58 50.02 50.77 51.41 52.08 51.67 50.20 48.35 47.56 47.81 45.99 41.92 39.78 40.32 41.78 41.56 35.85 31.97 33.05 33.97 35.81 35.44 35.78 35.44 36.46 35.68 35.20 34.86 33.99 33.89 34.01 34.54 30.75 29.20 35.20 37.03 38.46 39.12 39.45 36.15 34.54 34.81 34.65 36.52 36.44 36.49 37.67 36.03
47.23 47.60 47.74 48.01 48.12 48.31 48.63 49.18 49.43 49.94 50.99 51.93 49.92 48.07 47.52 48.04 47.04 42.37 41.45 43.78 42.44 38.79 36.83 31.09 31.51 30.38 34.03 32.28 31.07 35.08 33.30 34.09 33.41 32.68 34.33 32.49 32.25 31.78 29.28 33.96 35.50 37.39 38.28 36.90 36.68 37.29 36.41 35.01 34.47 34.65 34.98 35.40 34.03 34.18
46.73 47.31 47.52 47.66 48.12 48.50 48.88 49.07 49.30 49.55 50.44 50.93 48.37 47.43 44.48 42.76 40.12 39.52 43.03 42.43 40.51 37.49 33.03 32.11 28.82 29.88 33.19 32.53 32.95 31.86 33.07 30.87 34.41 31.48 31.46 31.74 29.56 28.23 31.98 34.04 35.28 37.03 36.71 36.44 34.24 34.39 35.45 34.68 34.21 34.21 34.21 33.84 32.90 32.97
46.51 46.91 47.24 47.47 47.90 48.28 48.49 49.37 49.73 50.11 50.06 47.77 44.46 40.00 36.08 39.45 42.45 41.91 37.95 35.20 33.69 36.16 33.85 30.62 32.89 29.58 31.82 31.29 31.25 30.75 31.52 30.59 28.42 30.00 31.05 29.52 28.75 33.83 35.82 36.39 36.69 37.26 38.02 37.00 31.04 30.50 30.48 30.67 32.11 32.69 33.06 34.00 33.81 33.53
45.82 46.29 46.77 47.09 47.54 47.66 48.19 48.87 49.54 47.72 46.75 43.03 38.72 36.91 39.47 41.16 38.07 34.97 32.39 31.93 33.28 31.69 32.54 31.83 30.67 29.43 33.21 29.59 30.62 32.58 28.25 30.17 26.30 25.60 25.53 24.99 27.35 31.78 34.46 33.43 33.43 33.62 34.98 36.02 35.31 35.19 35.22 34.08 33.64 33.48 33.02 32.98 33.25 33.17
45.40 45.89 46.44 46.60 47.11 47.30 47.40 48.73 48.77 46.42 43.43 42.14 40.25 39.79 38.54 35.59 34.32 30.98 30.49 30.35 29.64 28.12 30.90 28.96 28.78 30.30 30.35 31.84 29.66 29.83 26.78 27.82 23.17 26.87 25.87 22.79 28.30 33.36 32.39 31.65 32.69 32.26 31.83 32.03 33.58 33.91 33.95 33.44 32.31 31.99 32.13 32.53 32.65 32.54
44.87 45.15 45.54 45.58 45.77 46.63 46.64 47.46 48.35 46.97 44.71 42.00 36.98 33.68 33.73 33.36 28.07 27.46 24.27 26.24 27.51 29.86 29.00 27.52 26.14 30.07 29.35 30.57 28.87 27.62 23.29 24.95 26.52 18.80 20.96 25.32 30.49 32.93 32.84 31.21 30.10 28.88 28.14 29.37 30.27 31.63 32.22 31.78 32.30 31.67 31.34 31.95 32.10 32.65
44.58 45.02 45.13 45.25 45.46 46.00 45.87 46.43 47.36 45.41 41.19 34.97 32.54 30.27 29.54 28.18 29.03 29.14 28.27 29.63 30.49 30.81 30.33 30.63 28.55 30.77 31.27 30.15 30.47 24.95 28.07 25.90 18.13 20.51 19.94 26.87 32.28 31.28 30.82 30.26 29.61 29.31 29.62 27.32 26.33 29.23 30.05 28.55 28.54 29.13 31.38 32.24 31.81 31.06
44.22 44.71 45.09 44.67 45.23 45.67 46.17 46.31 46.93 44.37 38.45 33.06 31.71 26.94 28.58 30.07 29.68 28.66 29.12 28.00 27.58 31.74 29.30 26.82 27.04 28.50 28.14 28.38 28.24 27.16 21.60 19.02 20.23 21.24 25.98 30.47 31.87 30.61 29.70 29.06 28.45 28.61 29.21 30.50 31.27 29.58 26.39 27.70 27.31 28.26 31.25 31.44 31.15 30.63
43.91 43.72 42.62 44.52 45.18 45.37 45.54 45.47 43.77 42.10 34.77 32.97 31.73 28.88 31.71 28.51 28.99 26.71 25.65 26.43 29.38 30.44 29.15 28.98 25.83 24.23 24.78 26.52 25.25 20.03 20.30 18.40 22.85 29.08 32.09 32.54 31.45 32.12 31.34 29.92 30.00 29.76 28.91 29.81 30.23 30.82 30.90 31.43 31.00 30.01 31.48 30.56 30.17 29.89
43.18 39.58 42.97 44.05 45.08 45.42 45.38 41.34 38.90 34.08 33.26 31.84 29.34 33.46 31.44 28.27 28.39 29.48 31.02 30.69 32.94 29.42 25.46 25.71 26.18 25.52 28.14 25.88 21.31 23.88 21.59 26.43 31.21 30.53 32.55 33.63 31.39 31.23 32.23 31.21 30.28 29.04 29.12 29.42 30.34 30.59 30.08 30.60 27.86 26.75 27.44 30.16 30.18 29.96
39.55 41.45 43.77 44.05 43.62 42.53 40.33 38.16 34.33 32.62 30.37 31.13 28.98 29.52 31.14 31.56 29.98 31.67 30.86 31.35 29.89 29.84 32.13 30.28 30.79 27.45 25.10 21.76 21.39 26.85 28.87 29.88 29.50 31.38 31.39 31.11 32.20 32.69 30.78 30.71 30.99 29.92 29.38 28.71 28.71 28.82 27.93 27.53 27.34 28.79 29.93 30.62 29.82 28.53
41.12 41.75 43.67 44.33 41.98 36.73 33.13 33.07 33.09 28.59 30.12 28.88 29.59 29.06 30.17 31.29 32.15 33.12 33.00 32.62 32.67 33.91 33.38 30.56 28.92 26.11 24.94 27.68 31.06 33.33 33.56 28.85 32.81 34.64 31.38 32.58 32.87 32.17 31.35 30.92 30.21 28.79 28.38 27.66 27.55 29.29 30.33 30.54 31.59 31.63 31.44 29.88 29.97 30.38
43.49 43.42 43.59 43.48 42.23 34.63 31.56 31.60 33.64 30.82 26.27 26.97 28.01 27.14 28.22 28.44 30.74 31.23 31.59 31.16 30.69 29.99 28.92 27.74 27.80 30.61 30.47 33.47 33.37 34.07 33.21 33.21 32.09 31.22 33.53 35.24 34.39 29.95 29.60 30.50 31.51 31.36 29.87 28.29 29.49 33.26 29.45 29.52 30.68 31.41 31.61 31.40 30.00 30.48
41.24 40.80 42.57 41.82 37.45 35.10 32.62 31.42 30.69 31.06 30.40 28.38 26.69 27.04 26.33 27.94 28.30 28.54 28.29 28.57 30.48 29.06 28.52 29.57 31.39 34.23 35.67 36.88 37.76 36.81 36.28 36.24 35.64 35.06 34.32 33.46 36.09 35.92 35.15 33.56 30.97 30.89 31.44 32.62 33.22 34.07 36.25 33.67 34.90 32.03 30.48 31.50 32.05 32.08
38.14 42.25 37.07 38.41 32.52 31.84 30.86 30.45 30.40 30.99 29.78 29.70 30.29 31.26 28.03 28.19 28.12 30.57 32.63 29.82 29.02 30.92 30.24 32.16 33.60 34.69 34.46 34.13 35.48 36.13 36.88 36.47 36.39 35.51 37.78 37.09 34.43 34.37 34.16 34.61 33.50 33.47 34.15 34.24 33.87 33.94 34.32 35.06 32.48 30.31 30.17 30.54 31.87 29.67
40.24 38.73 33.40 32.74 29.82 29.21 25.28 31.74 26.44 23.38 20.40 18.87 27.44 24.34 24.93 22.99 27.70 31.13 28.23 30.00 30.82 32.57 33.69 33.79 34.39 34.86 33.74 35.22 35.16 34.82 35.25 34.78 34.18 34.59 35.17 35.67 35.99 35.69 35.12 34.99 35.22 34.64 34.46 34.58 34.46 33.81 33.03 35.17 34.08 32.51 28.48 29.41 27.63 27.71
39.69 32.65 29.71 28.39 28.47 25.70 29.35 26.52 27.95 22.41 20.53 20.95 16.66 19.77 17.29 23.54 27.48 26.85 24.37 26.24 30.23 32.48 32.28 32.59 32.96 32.83 33.60 32.75 32.54 33.66 34.83 33.69 33.15 34.11 34.88 34.00 33.34 34.35 35.16 35.19 35.96 36.22 35.54 35.22 34.31 33.05 33.44 33.08 33.43 30.00 27.73 26.86 26.70 26.61
26.51 26.86 28.01 25.21 29.15 25.48 23.88 21.82 21.12 18.41 16.01 17.14 15.53 18.37 18.91 19.75 23.34 23.40 22.80 25.60 29.07 30.22 30.42 30.64 32.24 32.43 31.25 32.13 33.29 33.91 35.45 34.59 34.63 33.59 34.79 32.51 33.87 33.95 33.87 34.47 35.39 35.94 35.71 33.97 31.70 30.32 31.20 32.06 29.66 28.51 27.65 27.55 27.03 26.52
21.67 22.18 22.69 23.68 25.02 22.70 19.14 11.93 14.91 16.15 19.16 13.68 18.05 19.46 16.30 21.38 22.16 21.39 19.95 27.96 29.52 30.38 30.97 31.42 31.15 30.96 31.30 32.93 32.97 33.48 34.38 34.19 35.07 32.08 34.58 34.72 35.03 34.28 34.04 32.93 32.81 33.91 32.87 33.68 33.68 32.38 31.91 31.29 29.62 28.36 27.95 28.02 30.48 27.26
20.99 17.61 21.88 27.36 24.31 23.20 19.22 18.96 19.37 16.98 12.36 14.04 15.05 15.33 17.54 18.61 18.08 22.35 29.67 31.48 30.42 31.32 32.83 33.58 33.95 33.08 33.13 33.62 34.29 35.49 35.81 33.42 34.43 34.73 34.10 31.11 33.09 35.25 35.20 33.78 32.73 34.80 29.25 31.38 31.28 30.86 30.60 29.92 29.10 28.14 27.87 27.39 27.38 27.79
21.41 20.86 17.49 21.88 22.17 21.10 16.34 15.93 14.41 14.91 15.93 19.80 19.68 14.81 19.60 21.29 23.00 26.54 27.08 28.03 31.22 32.59 31.14 30.08 31.28 32.95 33.41 33.92 34.39 30.96 31.53 30.95 29.96 26.98 26.63 28.34 31.53 33.58 34.22 33.89 34.25 35.07 33.22 30.16 30.74 29.77 29.66 29.21 28.89 27.87 26.92 26.30 25.67 26.63
20.92 24.73 24.30 18.55 16.74 16.72 21.36 18.07 19.65 21.68 24.47 21.95 21.09 21.14 22.42 27.69 30.23 30.05 31.51 31.27 30.43 22.73 26.56 31.36 32.36 25.51 29.29 30.77 30.71 31.34 31.00 28.72 26.28 26.52 26.29 27.22 29.06 31.61 32.95 31.51 31.47 31.20 32.27 29.32 33.92 30.83 28.44 28.16 27.30 26.64 25.57 25.48 25.59 24.99
20.88 24.22 21.28 18.80 17.39 16.45 22.62 23.14 22.68 27.50 27.74 27.94 28.13 27.41 27.44 28.83 31.08 32.70 31.80 31.43 23.39 26.33 30.13 30.83 31.98 29.04 30.61 31.46 31.72 31.74 30.17 29.86 30.60 29.49 27.67 28.04 29.23 32.42 29.88 28.51 27.45 27.71 29.61 29.58 28.25 28.44 31.54 28.26 27.96 23.65 22.59 22.08 21.98 20.85
21.75 23.91 16.85 21.21 21.26 23.90 25.94 27.84 24.32 26.74 21.55 24.23 26.21 24.75 25.03 27.44 30.34 32.00 31.16 32.14 31.30 26.17 23.76 28.90 30.78 31.75 31.17 30.97 30.84 30.56 30.38 28.42 29.74 29.98 31.29 32.05 31.98 32.06 32.18 29.29 24.92 26.71 29.63 28.81 27.94 27.37 27.37 24.69 22.23 21.02 20.20 19.66 19.63 20.21
19.92 21.51 21.09 19.04 21.05 26.05 19.05 13.71 15.05 19.29 23.57 22.87 22.69 24.59 23.11 18.98 21.49 26.54 31.00 30.59 29.73 29.28 31.42 31.64 30.03 30.68 32.79 33.09 33.19 33.02 34.77 33.17 31.24 29.43 25.55 29.61 30.43 30.70 30.92 26.10 25.38 26.78 27.14 28.00 27.80 27.57 26.55 24.22 22.10 20.92 20.07 19.19 19.23 17.86
12.34 12.92 14.17 17.91 19.46 20.79 15.62 16.19 14.74 15.79 20.84 21.36 21.95 23.55 23.87 23.46 21.28 25.25 22.86 29.07 30.94 30.69 30.96 31.97 32.79 33.04 32.79 31.48 32.23 32.97 34.52 33.07 32.65 34.82 35.27 35.18 33.66 32.41 26.89 25.30 24.94 25.76 25.96 26.92 27.39 27.21 25.61 23.66 21.85 20.56 19.57 18.92 18.85 16.07

GFSWCAN_sfc_wetblb_111.txt.gz
Wetbulb
54.31 53.64 52.80 52.63 52.55 52.92 54.04 53.81 52.91 52.03 50.72 49.65 49.46 49.23 50.13 50.64 49.92 43.36 40.80 40.96 38.83 34.43 36.06 38.53 38.62 35.61 35.83 34.58 30.99 34.25 33.20 34.59 33.20 28.76 26.99 26.02 25.15 27.17 24.56 26.51 26.38 25.60 23.31 23.65 24.56 22.88 20.52 34.55 33.54 29.63 32.22 33.87 34.35 34.86
54.10 53.57 52.47 51.92 51.77 52.10 53.27 53.97 53.54 52.28 51.43 49.83 49.21 49.27 48.91 50.21 50.05 47.62 39.15 42.19 40.93 36.51 35.63 40.08 40.03 39.93 40.47 39.57 37.80 36.24 33.89 34.63 35.27 30.32 28.39 27.54 26.55 25.98 25.01 22.50 27.76 25.01 29.60 27.16 28.49 28.53 34.29 34.95 34.00 36.83 35.62 35.11 34.32 35.46
53.44 52.89 51.52 51.23 51.52 51.69 52.32 53.28 53.61 53.13 52.09 50.94 49.50 49.22 48.60 48.81 49.61 46.89 39.99 40.27 39.68 36.50 35.95 37.37 36.82 38.61 40.30 39.53 40.80 34.34 35.55 38.18 36.76 36.79 33.29 31.08 28.48 28.47 24.74 23.86 25.20 29.52 32.00 28.73 30.26 31.37 34.73 37.00 37.78 36.18 36.14 36.05 37.23 38.24
52.12 51.03 50.51 50.73 51.16 51.65 52.21 52.55 52.90 53.31 52.86 51.99 50.53 49.02 48.31 48.11 48.64 47.82 41.09 41.21 39.36 37.56 32.13 34.36 39.10 36.21 37.77 38.72 38.53 39.09 38.45 38.84 38.39 36.61 33.21 31.02 29.20 32.39 27.47 29.55 27.57 31.32 30.77 28.91 28.70 34.19 33.77 35.91 36.02 35.76 36.67 36.85 36.83 37.34
50.36 49.31 49.83 50.21 50.50 50.96 51.47 51.94 52.33 52.50 52.96 52.52 51.62 49.42 47.87 47.76 48.33 44.79 43.07 43.27 40.31 36.89 31.66 33.62 37.49 36.20 37.38 37.23 36.70 37.25 37.67 36.39 34.55 32.74 30.55 30.04 31.62 32.16 31.21 29.55 30.92 33.55 33.37 30.25 30.99 37.01 33.43 33.61 34.08 34.46 34.02 34.57 35.75 34.78
49.17 49.30 49.63 49.09 49.05 49.56 50.32 51.11 51.35 51.49 51.82 52.20 51.39 49.69 48.04 47.60 48.16 42.38 37.88 40.17 39.86 39.81 32.92 28.98 35.65 32.91 35.60 36.45 35.96 35.67 36.01 35.34 34.89 33.26 31.07 33.22 35.52 33.16 27.14 25.18 31.50 33.80 36.94 38.63 36.39 36.06 35.24 35.47 35.96 35.25 34.93 35.85 35.31 34.95
48.79 48.99 47.49 47.94 47.94 48.24 48.54 48.96 49.36 49.72 50.49 51.60 51.48 49.67 48.14 47.78 44.10 39.53 38.42 39.28 41.27 39.74 33.63 29.04 29.66 32.92 34.47 33.75 34.30 34.45 34.97 34.00 33.94 32.54 30.79 31.44 32.57 34.08 28.20 25.82 33.54 34.05 34.94 35.58 36.04 34.44 33.92 34.19 34.99 35.63 35.47 35.91 37.18 35.13
47.84 48.07 47.91 47.60 47.70 48.21 48.42 48.71 48.81 49.24 49.74 50.94 51.55 49.31 47.63 47.62 45.96 40.11 39.57 43.50 41.11 37.50 35.50 27.56 30.14 30.76 33.58 31.24 30.37 33.70 31.95 32.79 31.42 30.73 32.82 32.77 31.37 30.00 27.64 32.37 33.72 34.92 35.29 35.45 36.01 35.18 35.90 34.73 34.25 33.87 34.53 34.35 33.44 33.38
47.09 47.20 47.26 47.28 47.44 47.91 48.29 48.83 49.04 49.18 49.36 50.37 49.41 47.62 44.34 41.04 38.00 37.79 43.02 42.03 38.67 36.64 32.32 32.40 27.66 26.89 33.22 32.06 31.99 31.02 32.13 30.16 32.30 30.74 30.89 30.63 28.05 27.58 31.23 32.80 33.49 34.68 34.02 35.06 36.37 35.31 34.20 33.47 33.42 33.14 32.78 32.52 31.75 32.04
46.43 46.69 46.80 46.78 46.99 47.31 47.75 48.49 49.52 49.78 49.84 47.84 44.16 39.91 36.31 38.22 42.77 41.75 36.79 33.59 31.01 34.11 30.40 29.63 29.67 28.21 31.13 30.50 30.80 30.26 30.80 30.03 28.18 30.18 30.34 29.83 28.30 32.67 34.75 35.50 35.52 35.35 33.98 32.88 31.47 31.04 31.53 30.58 31.43 31.73 32.11 32.51 32.24 31.89
45.84 45.91 46.12 46.29 46.71 47.14 47.44 48.20 48.96 47.62 46.75 42.45 38.74 36.63 37.52 41.41 36.58 33.13 31.63 31.25 32.31 31.18 31.59 31.43 28.09 26.33 31.56 27.19 28.27 31.06 24.98 30.73 25.28 28.29 27.84 25.98 25.73 30.66 34.30 33.52 33.15 31.98 31.37 31.01 32.59 32.71 33.14 32.94 32.37 31.99 31.87 31.96 31.67 31.43
45.25 45.37 45.68 45.82 46.05 46.41 46.94 48.53 48.69 45.16 42.41 41.57 39.65 39.19 37.24 33.30 33.51 31.18 29.72 30.01 29.87 28.30 28.27 27.99 27.78 29.25 29.17 30.05 28.16 28.67 23.86 28.01 22.49 25.46 25.48 22.18 26.21 31.41 32.71 31.43 31.04 30.20 30.19 29.83 29.37 29.36 30.07 30.79 30.69 30.03 29.98 30.44 30.92 30.64
44.57 44.81 44.87 45.07 45.11 45.45 46.08 46.29 47.48 47.69 44.36 41.10 35.83 34.14 33.52 32.54 27.72 27.05 21.12 25.48 25.87 26.40 25.55 25.18 24.16 27.84 28.18 29.93 27.79 26.52 25.46 23.21 24.94 16.02 19.03 22.96 27.60 30.70 30.98 29.18 29.31 28.38 26.68 27.60 28.66 29.39 30.57 29.95 30.03 29.52 29.52 29.74 30.44 30.94
44.11 44.37 44.64 44.66 44.90 44.99 45.35 45.56 46.10 45.02 40.99 35.39 32.45 28.19 28.63 25.35 28.72 26.59 24.28 23.59 28.14 27.80 27.17 28.62 26.41 26.57 28.04 26.02 27.44 21.59 25.64 24.91 14.72 18.23 19.04 24.00 29.21 32.13 30.02 28.80 26.79 27.82 27.70 25.73 25.54 28.71 29.55 28.08 28.00 27.66 29.42 30.17 30.81 30.73
43.64 43.96 44.33 44.36 44.79 44.81 45.09 46.26 46.66 43.62 38.05 29.44 31.68 27.19 27.74 29.29 21.07 22.13 28.03 24.98 25.86 30.86 29.04 25.73 25.74 27.32 23.31 24.63 28.01 24.06 18.67 16.14 17.28 19.31 24.97 27.22 31.21 30.25 29.82 29.33 28.46 28.05 28.38 28.60 29.22 27.96 25.95 25.65 26.13 28.11 29.05 30.60 30.43 30.25
43.30 43.21 41.57 44.26 44.30 44.64 45.17 44.67 41.41 41.25 34.10 32.84 32.04 28.92 31.21 29.90 29.30 23.99 17.51 21.85 26.33 28.73 26.28 27.06 24.96 21.98 23.80 23.59 25.21 19.39 14.67 14.37 21.19 23.92 28.07 28.39 30.64 31.06 31.50 31.01 31.07 30.08 29.21 29.37 29.84 30.27 30.50 29.67 29.94 30.31 30.48 30.21 29.91 30.08
42.67 38.01 42.52 44.13 44.78 45.31 45.27 39.15 34.24 32.26 31.65 30.04 29.34 32.21 29.67 20.27 21.79 23.49 26.80 27.38 29.63 27.40 23.14 25.25 25.13 22.36 26.30 23.81 21.44 21.81 18.56 24.97 26.95 27.64 26.12 29.52 30.62 31.98 31.62 30.63 30.91 30.21 29.88 29.50 29.18 29.48 30.66 31.01 27.94 27.20 28.66 31.49 30.24 29.82
38.79 38.76 43.67 43.83 42.64 41.63 37.67 33.99 33.55 31.30 28.97 30.06 27.48 22.80 29.78 29.83 26.20 27.80 28.68 27.98 27.84 25.84 25.54 23.31 25.69 25.97 19.14 16.32 19.82 23.54 25.54 26.70 27.20 29.96 30.99 30.04 30.44 30.89 30.86 30.92 31.44 30.42 30.41 29.65 28.06 28.35 27.05 27.16 27.13 29.09 29.39 30.99 28.20 28.47
38.73 38.91 42.28 43.36 40.79 34.05 28.77 31.40 32.63 26.65 27.53 26.78 24.98 24.55 27.19 28.34 28.87 30.56 30.40 29.84 29.65 29.53 30.63 31.07 28.74 25.30 25.47 25.83 27.76 29.64 30.93 29.65 32.89 34.16 33.66 32.00 32.17 31.99 32.46 31.82 30.33 28.80 28.48 27.52 28.87 29.38 29.53 29.41 30.40 30.55 30.61 30.03 29.37 30.57
43.59 43.49 43.62 43.54 41.51 34.10 30.49 30.10 33.36 29.06 24.71 22.76 21.41 20.14 25.45 25.53 28.27 27.66 30.04 29.13 28.86 28.12 29.94 28.16 27.80 29.57 26.69 29.39 28.86 31.99 34.01 33.45 30.17 31.18 33.18 35.33 34.63 31.36 30.79 30.80 32.48 32.59 29.66 29.16 28.09 31.45 28.79 28.33 29.60 30.61 32.03 32.11 31.03 30.90
40.60 39.01 42.10 40.22 33.79 34.50 31.28 27.63 29.69 29.61 29.28 26.64 22.36 21.10 22.80 22.10 19.13 19.07 21.30 26.21 29.14 29.38 28.15 30.56 30.79 32.86 34.20 35.02 35.65 35.04 34.48 32.13 32.61 33.88 33.86 33.40 35.78 35.85 35.03 34.64 29.85 29.26 29.88 32.34 31.87 32.17 34.15 32.01 34.00 34.95 33.26 32.21 33.01 33.16
36.92 41.53 34.32 36.08 32.52 32.19 29.84 31.83 26.03 28.71 27.99 26.11 25.24 28.19 26.73 19.72 17.94 19.50 23.62 28.17 29.26 29.81 31.22 31.51 32.22 32.97 32.94 32.77 34.03 34.75 35.30 34.85 34.51 34.03 36.39 35.84 33.59 34.07 34.14 34.36 31.39 32.61 33.31 33.52 33.57 33.28 34.02 34.66 34.69 32.49 30.31 30.95 32.96 31.66
39.44 36.53 32.15 32.35 30.09 29.23 27.02 29.19 26.82 26.72 22.15 17.71 25.61 22.47 17.64 20.37 19.16 23.73 23.80 24.79 27.05 31.32 32.82 32.77 33.16 33.64 32.74 33.74 33.97 34.02 34.50 33.46 32.08 33.17 33.77 34.16 34.23 33.88 33.65 33.69 34.01 32.71 32.84 34.04 34.30 33.55 33.65 35.95 35.12 34.43 32.49 31.34 29.39 28.42
39.07 32.54 29.24 27.73 28.19 24.89 26.40 25.72 24.94 14.74 9.22 12.31 7.18 8.61 8.15 14.53 16.55 21.00 16.38 24.54 28.52 29.69 29.69 30.70 29.67 30.92 31.93 31.92 31.59 32.76 34.05 34.54 32.92 32.84 33.18 32.46 32.17 32.95 34.34 34.18 34.56 34.32 34.25 34.80 34.23 33.70 33.61 32.92 34.73 33.18 31.31 29.88 27.81 28.01
27.71 27.05 27.06 22.89 24.50 24.48 23.42 21.60 19.49 20.17 18.18 13.33 9.93 9.51 12.91 12.22 11.12 6.79 13.70 23.81 27.43 28.59 29.77 30.67 29.95 30.71 29.83 30.92 32.05 32.68 34.24 31.94 28.98 30.27 33.45 33.49 34.43 34.22 32.84 33.24 33.96 34.89 35.10 33.21 33.38 33.28 32.79 31.39 31.43 27.93 29.15 27.81 28.39 28.33
20.99 21.98 21.83 16.37 12.20 17.64 17.98 13.50 14.46 15.89 12.10 6.75 12.37 13.85 7.49 12.17 11.07 17.48 17.75 25.81 27.29 28.45 29.25 29.46 28.98 29.17 29.28 30.76 30.68 31.15 32.38 32.05 33.35 33.85 34.90 35.65 33.56 32.36 31.73 31.20 31.52 33.17 33.96 34.75 34.02 31.71 31.38 31.81 28.66 25.25 26.30 27.53 31.77 31.24
19.95 18.00 17.98 24.28 22.11 20.87 16.87 16.52 17.09 15.14 15.99 16.83 11.54 9.22 11.85 13.05 13.28 19.20 26.47 28.99 27.10 29.69 31.45 31.82 30.57 30.91 30.58 31.13 32.57 34.34 35.26 35.60 34.88 35.30 36.02 29.79 31.79 33.04 33.06 32.27 31.93 34.37 32.23 30.63 32.12 31.50 31.48 30.64 27.75 27.13 28.59 29.56 28.85 28.24
20.63 17.57 15.11 18.81 20.93 16.33 13.23 11.26 11.21 12.34 17.24 18.71 16.92 12.19 12.24 14.32 19.41 26.20 26.09 28.25 24.12 26.78 28.76 31.28 32.59 32.81 32.05 32.22 33.15 33.67 33.28 30.29 30.26 30.16 28.01 28.03 28.76 31.77 33.15 33.55 34.13 34.80 34.32 33.73 33.30 32.83 31.01 31.10 29.83 28.53 28.18 28.09 27.76 26.66
19.60 20.31 19.48 12.21 12.96 9.81 15.85 16.39 18.58 20.55 25.38 20.90 19.40 20.04 21.69 26.13 28.96 28.98 30.41 29.81 24.21 21.25 26.37 28.79 30.15 26.57 24.14 28.88 29.92 30.52 30.48 27.79 21.41 25.58 26.02 27.39 29.76 30.52 28.30 30.15 30.67 30.73 31.08 30.51 33.37 34.46 30.48 30.41 28.97 27.88 27.45 26.65 25.88 24.93
20.70 22.66 17.41 16.27 13.69 14.92 21.49 21.04 21.02 26.90 26.88 26.41 26.76 26.24 26.29 27.63 30.14 32.14 30.70 28.94 22.65 25.46 28.13 28.73 30.20 30.20 29.64 29.92 30.07 30.89 32.60 28.23 29.34 28.57 28.23 28.82 30.04 29.69 27.26 27.13 23.90 25.46 23.70 25.53 26.12 23.10 33.96 30.66 29.56 24.57 24.12 23.45 22.85 21.99
19.19 22.21 16.91 20.91 20.14 23.07 24.93 27.18 27.23 26.71 26.27 25.21 26.14 23.63 23.66 26.34 29.32 31.40 31.01 31.10 30.46 29.91 29.04 28.86 29.24 29.79 29.34 29.35 29.14 28.72 29.04 32.25 29.10 29.19 31.04 32.32 31.96 30.92 30.71 31.19 29.25 24.72 22.34 24.03 23.34 23.95 25.21 25.14 24.31 23.16 22.58 22.13 21.59 22.31
17.64 18.69 19.86 15.40 20.40 25.41 17.80 10.30 8.50 13.83 22.83 22.43 22.63 24.57 24.42 23.58 21.86 26.57 30.71 30.25 28.74 27.65 29.77 29.82 28.18 28.85 31.15 31.57 32.24 32.30 34.03 32.48 26.80 27.82 23.82 28.16 29.92 30.30 30.45 30.35 26.22 22.77 22.28 23.09 24.93 25.30 25.88 24.83 23.76 23.46 22.69 21.39 20.78 20.96
6.80 5.11 17.13 16.99 17.03 14.07 20.60 19.10 12.43 11.06 20.51 21.16 21.87 23.30 23.74 22.92 20.73 26.93 27.88 28.43 30.01 29.16 28.87 29.60 30.41 30.97 31.33 31.21 31.24 31.81 33.71 32.51 32.73 34.68 34.92 35.12 35.23 34.20 30.87 29.17 23.73 23.21 22.58 23.75 24.17 25.25 25.60 25.57 24.65 23.88 21.92 21.61 21.08 19.93